<?xml version="1.0" encoding="UTF-8" standalone="no" ?>
<gpx xmlns="http://www.topografix.com/GPX/1/1" xmlns:xsi="http://www.w3.org/2001/XMLSchema-instance" xsi:schemaLocation="http://www.topografix.com/GPX/1/1 http://www.topografix.com/GPX/1/1/gpx.xsd" version="1.1" creator="VisuGPX - https://www.visugpx.com">
  <metadata>
    <name>Regordane</name>
    <desc><![CDATA[Geonaute Keymaze 500]]></desc>
  </metadata>
  <trk>
    <name><![CDATA[Regordane_1]]></name>
    <trkseg>
      <trkpt lat="44.76892" lon="3.88192">
        <ele>1156</ele>
        <time>2011-06-01T06:19:32Z</time>
      </trkpt>
      <trkpt lat="44.76885" lon="3.88229">
        <ele>1151</ele>
        <time>2011-06-01T06:20:40Z</time>
      </trkpt>
      <trkpt lat="44.76875" lon="3.88235">
        <ele>1151</ele>
        <time>2011-06-01T06:20:50Z</time>
      </trkpt>
      <trkpt lat="44.76865" lon="3.88241">
        <ele>1152</ele>
        <time>2011-06-01T06:21:00Z</time>
      </trkpt>
      <trkpt lat="44.76857" lon="3.88244">
        <ele>1152</ele>
        <time>2011-06-01T06:21:11Z</time>
      </trkpt>
      <trkpt lat="44.76848" lon="3.88251">
        <ele>1154</ele>
        <time>2011-06-01T06:21:22Z</time>
      </trkpt>
      <trkpt lat="44.76838" lon="3.88252">
        <ele>1154</ele>
        <time>2011-06-01T06:21:33Z</time>
      </trkpt>
      <trkpt lat="44.7683" lon="3.88252">
        <ele>1149</ele>
        <time>2011-06-01T06:21:43Z</time>
      </trkpt>
      <trkpt lat="44.76823" lon="3.88253">
        <ele>1142</ele>
        <time>2011-06-01T06:21:53Z</time>
      </trkpt>
      <trkpt lat="44.76815" lon="3.88257">
        <ele>1141</ele>
        <time>2011-06-01T06:22:07Z</time>
      </trkpt>
      <trkpt lat="44.76805" lon="3.88262">
        <ele>1141</ele>
        <time>2011-06-01T06:22:17Z</time>
      </trkpt>
      <trkpt lat="44.76796" lon="3.88271">
        <ele>1141</ele>
        <time>2011-06-01T06:22:27Z</time>
      </trkpt>
      <trkpt lat="44.76783" lon="3.8828">
        <ele>1141</ele>
        <time>2011-06-01T06:22:37Z</time>
      </trkpt>
      <trkpt lat="44.76772" lon="3.88287">
        <ele>1141</ele>
        <time>2011-06-01T06:22:47Z</time>
      </trkpt>
      <trkpt lat="44.76762" lon="3.88295">
        <ele>1141</ele>
        <time>2011-06-01T06:22:57Z</time>
      </trkpt>
      <trkpt lat="44.76751" lon="3.88305">
        <ele>1141</ele>
        <time>2011-06-01T06:23:08Z</time>
      </trkpt>
      <trkpt lat="44.76742" lon="3.88313">
        <ele>1138</ele>
        <time>2011-06-01T06:23:19Z</time>
      </trkpt>
      <trkpt lat="44.76729" lon="3.8832">
        <ele>1136</ele>
        <time>2011-06-01T06:23:30Z</time>
      </trkpt>
      <trkpt lat="44.76721" lon="3.88319">
        <ele>1132</ele>
        <time>2011-06-01T06:23:40Z</time>
      </trkpt>
      <trkpt lat="44.7671" lon="3.88319">
        <ele>1127</ele>
        <time>2011-06-01T06:23:50Z</time>
      </trkpt>
      <trkpt lat="44.76694" lon="3.88318">
        <ele>1131</ele>
        <time>2011-06-01T06:24:00Z</time>
      </trkpt>
      <trkpt lat="44.76684" lon="3.88321">
        <ele>1131</ele>
        <time>2011-06-01T06:24:11Z</time>
      </trkpt>
      <trkpt lat="44.76677" lon="3.88318">
        <ele>1126</ele>
        <time>2011-06-01T06:24:22Z</time>
      </trkpt>
      <trkpt lat="44.76665" lon="3.88321">
        <ele>1124</ele>
        <time>2011-06-01T06:24:32Z</time>
      </trkpt>
      <trkpt lat="44.76656" lon="3.88326">
        <ele>1133</ele>
        <time>2011-06-01T06:24:43Z</time>
      </trkpt>
      <trkpt lat="44.76647" lon="3.88331">
        <ele>1136</ele>
        <time>2011-06-01T06:24:55Z</time>
      </trkpt>
      <trkpt lat="44.76651" lon="3.88322">
        <ele>1136</ele>
        <time>2011-06-01T06:25:05Z</time>
      </trkpt>
      <trkpt lat="44.76655" lon="3.88325">
        <ele>1135</ele>
        <time>2011-06-01T06:25:15Z</time>
      </trkpt>
      <trkpt lat="44.76655" lon="3.8833">
        <ele>1132</ele>
        <time>2011-06-01T06:25:25Z</time>
      </trkpt>
      <trkpt lat="44.76643" lon="3.88339">
        <ele>1126</ele>
        <time>2011-06-01T06:25:36Z</time>
      </trkpt>
      <trkpt lat="44.7663" lon="3.88345">
        <ele>1122</ele>
        <time>2011-06-01T06:25:47Z</time>
      </trkpt>
      <trkpt lat="44.76619" lon="3.88352">
        <ele>1117</ele>
        <time>2011-06-01T06:25:58Z</time>
      </trkpt>
      <trkpt lat="44.76608" lon="3.8836">
        <ele>1114</ele>
        <time>2011-06-01T06:26:08Z</time>
      </trkpt>
      <trkpt lat="44.76597" lon="3.88368">
        <ele>1112</ele>
        <time>2011-06-01T06:26:19Z</time>
      </trkpt>
      <trkpt lat="44.76587" lon="3.88375">
        <ele>1110</ele>
        <time>2011-06-01T06:26:29Z</time>
      </trkpt>
      <trkpt lat="44.76576" lon="3.88384">
        <ele>1110</ele>
        <time>2011-06-01T06:26:40Z</time>
      </trkpt>
      <trkpt lat="44.76566" lon="3.88387">
        <ele>1110</ele>
        <time>2011-06-01T06:26:50Z</time>
      </trkpt>
      <trkpt lat="44.76556" lon="3.88384">
        <ele>1110</ele>
        <time>2011-06-01T06:27:00Z</time>
      </trkpt>
      <trkpt lat="44.76546" lon="3.88375">
        <ele>1110</ele>
        <time>2011-06-01T06:27:10Z</time>
      </trkpt>
      <trkpt lat="44.76538" lon="3.88361">
        <ele>1110</ele>
        <time>2011-06-01T06:27:20Z</time>
      </trkpt>
      <trkpt lat="44.76534" lon="3.88343">
        <ele>1110</ele>
        <time>2011-06-01T06:27:30Z</time>
      </trkpt>
      <trkpt lat="44.76531" lon="3.88326">
        <ele>1110</ele>
        <time>2011-06-01T06:27:40Z</time>
      </trkpt>
      <trkpt lat="44.76526" lon="3.88309">
        <ele>1110</ele>
        <time>2011-06-01T06:27:51Z</time>
      </trkpt>
      <trkpt lat="44.76522" lon="3.88302">
        <ele>1110</ele>
        <time>2011-06-01T06:28:04Z</time>
      </trkpt>
      <trkpt lat="44.76518" lon="3.88285">
        <ele>1110</ele>
        <time>2011-06-01T06:28:15Z</time>
      </trkpt>
      <trkpt lat="44.76511" lon="3.88269">
        <ele>1109</ele>
        <time>2011-06-01T06:28:25Z</time>
      </trkpt>
      <trkpt lat="44.76501" lon="3.88256">
        <ele>1108</ele>
        <time>2011-06-01T06:28:35Z</time>
      </trkpt>
      <trkpt lat="44.7649" lon="3.88243">
        <ele>1108</ele>
        <time>2011-06-01T06:28:46Z</time>
      </trkpt>
      <trkpt lat="44.76479" lon="3.88235">
        <ele>1108</ele>
        <time>2011-06-01T06:28:56Z</time>
      </trkpt>
      <trkpt lat="44.76466" lon="3.88228">
        <ele>1106</ele>
        <time>2011-06-01T06:29:06Z</time>
      </trkpt>
      <trkpt lat="44.76454" lon="3.88221">
        <ele>1105</ele>
        <time>2011-06-01T06:29:16Z</time>
      </trkpt>
      <trkpt lat="44.7644" lon="3.88217">
        <ele>1105</ele>
        <time>2011-06-01T06:29:26Z</time>
      </trkpt>
      <trkpt lat="44.76425" lon="3.88213">
        <ele>1105</ele>
        <time>2011-06-01T06:29:36Z</time>
      </trkpt>
      <trkpt lat="44.76412" lon="3.88209">
        <ele>1105</ele>
        <time>2011-06-01T06:29:46Z</time>
      </trkpt>
      <trkpt lat="44.76399" lon="3.88206">
        <ele>1104</ele>
        <time>2011-06-01T06:29:56Z</time>
      </trkpt>
      <trkpt lat="44.76387" lon="3.88201">
        <ele>1103</ele>
        <time>2011-06-01T06:30:06Z</time>
      </trkpt>
      <trkpt lat="44.76374" lon="3.88197">
        <ele>1102</ele>
        <time>2011-06-01T06:30:16Z</time>
      </trkpt>
      <trkpt lat="44.76362" lon="3.88193">
        <ele>1100</ele>
        <time>2011-06-01T06:30:26Z</time>
      </trkpt>
      <trkpt lat="44.7635" lon="3.88188">
        <ele>1099</ele>
        <time>2011-06-01T06:30:36Z</time>
      </trkpt>
      <trkpt lat="44.76338" lon="3.88182">
        <ele>1097</ele>
        <time>2011-06-01T06:30:46Z</time>
      </trkpt>
      <trkpt lat="44.76326" lon="3.88175">
        <ele>1096</ele>
        <time>2011-06-01T06:30:56Z</time>
      </trkpt>
      <trkpt lat="44.76314" lon="3.88168">
        <ele>1095</ele>
        <time>2011-06-01T06:31:06Z</time>
      </trkpt>
      <trkpt lat="44.76302" lon="3.8816">
        <ele>1094</ele>
        <time>2011-06-01T06:31:16Z</time>
      </trkpt>
      <trkpt lat="44.76291" lon="3.88151">
        <ele>1093</ele>
        <time>2011-06-01T06:31:26Z</time>
      </trkpt>
      <trkpt lat="44.76278" lon="3.88141">
        <ele>1093</ele>
        <time>2011-06-01T06:31:36Z</time>
      </trkpt>
      <trkpt lat="44.76267" lon="3.8813">
        <ele>1093</ele>
        <time>2011-06-01T06:31:46Z</time>
      </trkpt>
      <trkpt lat="44.76257" lon="3.88118">
        <ele>1093</ele>
        <time>2011-06-01T06:31:56Z</time>
      </trkpt>
      <trkpt lat="44.76247" lon="3.88105">
        <ele>1092</ele>
        <time>2011-06-01T06:32:07Z</time>
      </trkpt>
      <trkpt lat="44.76238" lon="3.88093">
        <ele>1090</ele>
        <time>2011-06-01T06:32:17Z</time>
      </trkpt>
      <trkpt lat="44.76227" lon="3.88081">
        <ele>1089</ele>
        <time>2011-06-01T06:32:28Z</time>
      </trkpt>
      <trkpt lat="44.76217" lon="3.8807">
        <ele>1089</ele>
        <time>2011-06-01T06:32:38Z</time>
      </trkpt>
      <trkpt lat="44.76205" lon="3.8806">
        <ele>1089</ele>
        <time>2011-06-01T06:32:49Z</time>
      </trkpt>
      <trkpt lat="44.76197" lon="3.88051">
        <ele>1088</ele>
        <time>2011-06-01T06:32:59Z</time>
      </trkpt>
      <trkpt lat="44.7619" lon="3.88047">
        <ele>1086</ele>
        <time>2011-06-01T06:33:13Z</time>
      </trkpt>
      <trkpt lat="44.76198" lon="3.88055">
        <ele>1086</ele>
        <time>2011-06-01T06:33:23Z</time>
      </trkpt>
      <trkpt lat="44.76206" lon="3.88062">
        <ele>1086</ele>
        <time>2011-06-01T06:33:35Z</time>
      </trkpt>
      <trkpt lat="44.76214" lon="3.88073">
        <ele>1086</ele>
        <time>2011-06-01T06:33:46Z</time>
      </trkpt>
      <trkpt lat="44.76223" lon="3.88082">
        <ele>1086</ele>
        <time>2011-06-01T06:33:56Z</time>
      </trkpt>
      <trkpt lat="44.7623" lon="3.88092">
        <ele>1087</ele>
        <time>2011-06-01T06:34:06Z</time>
      </trkpt>
      <trkpt lat="44.76238" lon="3.881">
        <ele>1087</ele>
        <time>2011-06-01T06:34:16Z</time>
      </trkpt>
      <trkpt lat="44.76246" lon="3.8811">
        <ele>1087</ele>
        <time>2011-06-01T06:34:26Z</time>
      </trkpt>
      <trkpt lat="44.76252" lon="3.88121">
        <ele>1088</ele>
        <time>2011-06-01T06:34:36Z</time>
      </trkpt>
      <trkpt lat="44.7626" lon="3.88131">
        <ele>1089</ele>
        <time>2011-06-01T06:34:46Z</time>
      </trkpt>
      <trkpt lat="44.76255" lon="3.88133">
        <ele>1089</ele>
        <time>2011-06-01T06:34:56Z</time>
      </trkpt>
      <trkpt lat="44.76249" lon="3.88122">
        <ele>1089</ele>
        <time>2011-06-01T06:35:06Z</time>
      </trkpt>
      <trkpt lat="44.76241" lon="3.88112">
        <ele>1089</ele>
        <time>2011-06-01T06:35:16Z</time>
      </trkpt>
      <trkpt lat="44.76233" lon="3.881">
        <ele>1089</ele>
        <time>2011-06-01T06:35:26Z</time>
      </trkpt>
      <trkpt lat="44.76225" lon="3.88089">
        <ele>1089</ele>
        <time>2011-06-01T06:35:36Z</time>
      </trkpt>
      <trkpt lat="44.76215" lon="3.88078">
        <ele>1087</ele>
        <time>2011-06-01T06:35:46Z</time>
      </trkpt>
      <trkpt lat="44.76205" lon="3.8807">
        <ele>1086</ele>
        <time>2011-06-01T06:35:56Z</time>
      </trkpt>
      <trkpt lat="44.76195" lon="3.88065">
        <ele>1083</ele>
        <time>2011-06-01T06:36:06Z</time>
      </trkpt>
      <trkpt lat="44.76182" lon="3.88062">
        <ele>1082</ele>
        <time>2011-06-01T06:36:17Z</time>
      </trkpt>
      <trkpt lat="44.76171" lon="3.8806">
        <ele>1079</ele>
        <time>2011-06-01T06:36:27Z</time>
      </trkpt>
      <trkpt lat="44.76159" lon="3.88059">
        <ele>1076</ele>
        <time>2011-06-01T06:36:37Z</time>
      </trkpt>
      <trkpt lat="44.76146" lon="3.88059">
        <ele>1074</ele>
        <time>2011-06-01T06:36:47Z</time>
      </trkpt>
      <trkpt lat="44.76134" lon="3.88059">
        <ele>1072</ele>
        <time>2011-06-01T06:36:57Z</time>
      </trkpt>
      <trkpt lat="44.76122" lon="3.88059">
        <ele>1072</ele>
        <time>2011-06-01T06:37:07Z</time>
      </trkpt>
      <trkpt lat="44.76109" lon="3.88057">
        <ele>1068</ele>
        <time>2011-06-01T06:37:18Z</time>
      </trkpt>
      <trkpt lat="44.76096" lon="3.88053">
        <ele>1067</ele>
        <time>2011-06-01T06:37:28Z</time>
      </trkpt>
      <trkpt lat="44.76083" lon="3.8805">
        <ele>1066</ele>
        <time>2011-06-01T06:37:38Z</time>
      </trkpt>
      <trkpt lat="44.76068" lon="3.88047">
        <ele>1066</ele>
        <time>2011-06-01T06:37:48Z</time>
      </trkpt>
      <trkpt lat="44.76056" lon="3.88041">
        <ele>1066</ele>
        <time>2011-06-01T06:37:58Z</time>
      </trkpt>
      <trkpt lat="44.76044" lon="3.88034">
        <ele>1065</ele>
        <time>2011-06-01T06:38:08Z</time>
      </trkpt>
      <trkpt lat="44.76033" lon="3.88026">
        <ele>1064</ele>
        <time>2011-06-01T06:38:18Z</time>
      </trkpt>
      <trkpt lat="44.76023" lon="3.88018">
        <ele>1064</ele>
        <time>2011-06-01T06:38:28Z</time>
      </trkpt>
      <trkpt lat="44.76011" lon="3.88007">
        <ele>1064</ele>
        <time>2011-06-01T06:38:39Z</time>
      </trkpt>
      <trkpt lat="44.75999" lon="3.87996">
        <ele>1064</ele>
        <time>2011-06-01T06:38:50Z</time>
      </trkpt>
      <trkpt lat="44.75987" lon="3.87991">
        <ele>1063</ele>
        <time>2011-06-01T06:39:00Z</time>
      </trkpt>
      <trkpt lat="44.75975" lon="3.87991">
        <ele>1061</ele>
        <time>2011-06-01T06:39:10Z</time>
      </trkpt>
      <trkpt lat="44.75964" lon="3.87995">
        <ele>1059</ele>
        <time>2011-06-01T06:39:20Z</time>
      </trkpt>
      <trkpt lat="44.75951" lon="3.88001">
        <ele>1059</ele>
        <time>2011-06-01T06:39:30Z</time>
      </trkpt>
      <trkpt lat="44.75938" lon="3.88008">
        <ele>1058</ele>
        <time>2011-06-01T06:39:41Z</time>
      </trkpt>
      <trkpt lat="44.75928" lon="3.88016">
        <ele>1057</ele>
        <time>2011-06-01T06:39:51Z</time>
      </trkpt>
      <trkpt lat="44.75915" lon="3.88024">
        <ele>1055</ele>
        <time>2011-06-01T06:40:02Z</time>
      </trkpt>
      <trkpt lat="44.75904" lon="3.88031">
        <ele>1054</ele>
        <time>2011-06-01T06:40:12Z</time>
      </trkpt>
      <trkpt lat="44.75894" lon="3.88037">
        <ele>1052</ele>
        <time>2011-06-01T06:40:22Z</time>
      </trkpt>
      <trkpt lat="44.7588" lon="3.88051">
        <ele>1052</ele>
        <time>2011-06-01T06:40:32Z</time>
      </trkpt>
      <trkpt lat="44.75867" lon="3.88061">
        <ele>1054</ele>
        <time>2011-06-01T06:40:43Z</time>
      </trkpt>
      <trkpt lat="44.75856" lon="3.88069">
        <ele>1055</ele>
        <time>2011-06-01T06:40:54Z</time>
      </trkpt>
      <trkpt lat="44.75844" lon="3.88078">
        <ele>1055</ele>
        <time>2011-06-01T06:41:04Z</time>
      </trkpt>
      <trkpt lat="44.75834" lon="3.88086">
        <ele>1055</ele>
        <time>2011-06-01T06:41:14Z</time>
      </trkpt>
      <trkpt lat="44.75822" lon="3.88095">
        <ele>1055</ele>
        <time>2011-06-01T06:41:24Z</time>
      </trkpt>
      <trkpt lat="44.75811" lon="3.88103">
        <ele>1055</ele>
        <time>2011-06-01T06:41:34Z</time>
      </trkpt>
      <trkpt lat="44.758" lon="3.88112">
        <ele>1055</ele>
        <time>2011-06-01T06:41:44Z</time>
      </trkpt>
      <trkpt lat="44.75789" lon="3.8812">
        <ele>1055</ele>
        <time>2011-06-01T06:41:54Z</time>
      </trkpt>
      <trkpt lat="44.75777" lon="3.88128">
        <ele>1055</ele>
        <time>2011-06-01T06:42:04Z</time>
      </trkpt>
      <trkpt lat="44.75765" lon="3.88134">
        <ele>1055</ele>
        <time>2011-06-01T06:42:14Z</time>
      </trkpt>
      <trkpt lat="44.75752" lon="3.88138">
        <ele>1055</ele>
        <time>2011-06-01T06:42:24Z</time>
      </trkpt>
      <trkpt lat="44.75739" lon="3.88144">
        <ele>1055</ele>
        <time>2011-06-01T06:42:34Z</time>
      </trkpt>
      <trkpt lat="44.75724" lon="3.88149">
        <ele>1055</ele>
        <time>2011-06-01T06:42:45Z</time>
      </trkpt>
      <trkpt lat="44.75714" lon="3.88154">
        <ele>1055</ele>
        <time>2011-06-01T06:42:56Z</time>
      </trkpt>
      <trkpt lat="44.757" lon="3.88158">
        <ele>1055</ele>
        <time>2011-06-01T06:43:06Z</time>
      </trkpt>
      <trkpt lat="44.75689" lon="3.88161">
        <ele>1054</ele>
        <time>2011-06-01T06:43:17Z</time>
      </trkpt>
      <trkpt lat="44.75675" lon="3.88169">
        <ele>1053</ele>
        <time>2011-06-01T06:43:28Z</time>
      </trkpt>
      <trkpt lat="44.75662" lon="3.88172">
        <ele>1050</ele>
        <time>2011-06-01T06:43:39Z</time>
      </trkpt>
      <trkpt lat="44.7565" lon="3.88172">
        <ele>1047</ele>
        <time>2011-06-01T06:43:50Z</time>
      </trkpt>
      <trkpt lat="44.75636" lon="3.88171">
        <ele>1046</ele>
        <time>2011-06-01T06:44:02Z</time>
      </trkpt>
      <trkpt lat="44.75623" lon="3.8817">
        <ele>1043</ele>
        <time>2011-06-01T06:44:12Z</time>
      </trkpt>
      <trkpt lat="44.75611" lon="3.88169">
        <ele>1041</ele>
        <time>2011-06-01T06:44:22Z</time>
      </trkpt>
      <trkpt lat="44.75598" lon="3.88167">
        <ele>1041</ele>
        <time>2011-06-01T06:44:32Z</time>
      </trkpt>
      <trkpt lat="44.75586" lon="3.88162">
        <ele>1041</ele>
        <time>2011-06-01T06:44:42Z</time>
      </trkpt>
      <trkpt lat="44.75573" lon="3.88154">
        <ele>1041</ele>
        <time>2011-06-01T06:44:52Z</time>
      </trkpt>
      <trkpt lat="44.7556" lon="3.88144">
        <ele>1041</ele>
        <time>2011-06-01T06:45:03Z</time>
      </trkpt>
      <trkpt lat="44.75549" lon="3.88137">
        <ele>1041</ele>
        <time>2011-06-01T06:45:13Z</time>
      </trkpt>
      <trkpt lat="44.75535" lon="3.88128">
        <ele>1041</ele>
        <time>2011-06-01T06:45:24Z</time>
      </trkpt>
      <trkpt lat="44.75524" lon="3.88119">
        <ele>1041</ele>
        <time>2011-06-01T06:45:34Z</time>
      </trkpt>
      <trkpt lat="44.75513" lon="3.88109">
        <ele>1041</ele>
        <time>2011-06-01T06:45:44Z</time>
      </trkpt>
      <trkpt lat="44.75501" lon="3.88098">
        <ele>1041</ele>
        <time>2011-06-01T06:45:55Z</time>
      </trkpt>
      <trkpt lat="44.75489" lon="3.88087">
        <ele>1041</ele>
        <time>2011-06-01T06:46:06Z</time>
      </trkpt>
      <trkpt lat="44.75479" lon="3.88077">
        <ele>1041</ele>
        <time>2011-06-01T06:46:16Z</time>
      </trkpt>
      <trkpt lat="44.75467" lon="3.88066">
        <ele>1041</ele>
        <time>2011-06-01T06:46:28Z</time>
      </trkpt>
      <trkpt lat="44.75454" lon="3.88053">
        <ele>1041</ele>
        <time>2011-06-01T06:46:39Z</time>
      </trkpt>
      <trkpt lat="44.75443" lon="3.88042">
        <ele>1040</ele>
        <time>2011-06-01T06:46:50Z</time>
      </trkpt>
      <trkpt lat="44.75431" lon="3.88031">
        <ele>1039</ele>
        <time>2011-06-01T06:47:01Z</time>
      </trkpt>
      <trkpt lat="44.7542" lon="3.88021">
        <ele>1038</ele>
        <time>2011-06-01T06:47:11Z</time>
      </trkpt>
      <trkpt lat="44.75408" lon="3.88009">
        <ele>1037</ele>
        <time>2011-06-01T06:47:22Z</time>
      </trkpt>
      <trkpt lat="44.75399" lon="3.88002">
        <ele>1037</ele>
        <time>2011-06-01T06:48:15Z</time>
      </trkpt>
      <trkpt lat="44.75397" lon="3.88002">
        <ele>1037</ele>
        <time>2011-06-01T06:48:32Z</time>
      </trkpt>
      <trkpt lat="44.75396" lon="3.88002">
        <ele>1038</ele>
        <time>2011-06-01T06:48:46Z</time>
      </trkpt>
      <trkpt lat="44.75397" lon="3.88002">
        <ele>1039</ele>
        <time>2011-06-01T06:49:20Z</time>
      </trkpt>
      <trkpt lat="44.75404" lon="3.88009">
        <ele>1039</ele>
        <time>2011-06-01T06:49:30Z</time>
      </trkpt>
      <trkpt lat="44.7541" lon="3.88017">
        <ele>1039</ele>
        <time>2011-06-01T06:49:40Z</time>
      </trkpt>
      <trkpt lat="44.75419" lon="3.88025">
        <ele>1039</ele>
        <time>2011-06-01T06:49:51Z</time>
      </trkpt>
      <trkpt lat="44.7543" lon="3.88036">
        <ele>1039</ele>
        <time>2011-06-01T06:50:03Z</time>
      </trkpt>
      <trkpt lat="44.75442" lon="3.88046">
        <ele>1039</ele>
        <time>2011-06-01T06:50:15Z</time>
      </trkpt>
      <trkpt lat="44.75452" lon="3.88056">
        <ele>1039</ele>
        <time>2011-06-01T06:50:26Z</time>
      </trkpt>
      <trkpt lat="44.75463" lon="3.88068">
        <ele>1039</ele>
        <time>2011-06-01T06:50:37Z</time>
      </trkpt>
      <trkpt lat="44.75474" lon="3.88078">
        <ele>1039</ele>
        <time>2011-06-01T06:50:47Z</time>
      </trkpt>
      <trkpt lat="44.75485" lon="3.88089">
        <ele>1039</ele>
        <time>2011-06-01T06:50:58Z</time>
      </trkpt>
      <trkpt lat="44.75497" lon="3.881">
        <ele>1040</ele>
        <time>2011-06-01T06:51:08Z</time>
      </trkpt>
      <trkpt lat="44.75505" lon="3.88108">
        <ele>1040</ele>
        <time>2011-06-01T06:51:18Z</time>
      </trkpt>
      <trkpt lat="44.75516" lon="3.88117">
        <ele>1041</ele>
        <time>2011-06-01T06:51:29Z</time>
      </trkpt>
      <trkpt lat="44.75524" lon="3.88125">
        <ele>1042</ele>
        <time>2011-06-01T06:51:39Z</time>
      </trkpt>
      <trkpt lat="44.75533" lon="3.88133">
        <ele>1042</ele>
        <time>2011-06-01T06:51:49Z</time>
      </trkpt>
      <trkpt lat="44.75543" lon="3.88141">
        <ele>1042</ele>
        <time>2011-06-01T06:52:00Z</time>
      </trkpt>
      <trkpt lat="44.75555" lon="3.88149">
        <ele>1043</ele>
        <time>2011-06-01T06:52:10Z</time>
      </trkpt>
      <trkpt lat="44.75565" lon="3.88158">
        <ele>1044</ele>
        <time>2011-06-01T06:52:21Z</time>
      </trkpt>
      <trkpt lat="44.75573" lon="3.88167">
        <ele>1046</ele>
        <time>2011-06-01T06:52:31Z</time>
      </trkpt>
      <trkpt lat="44.75584" lon="3.88172">
        <ele>1046</ele>
        <time>2011-06-01T06:52:41Z</time>
      </trkpt>
      <trkpt lat="44.75594" lon="3.88179">
        <ele>1047</ele>
        <time>2011-06-01T06:52:52Z</time>
      </trkpt>
      <trkpt lat="44.75591" lon="3.88181">
        <ele>1047</ele>
        <time>2011-06-01T06:53:03Z</time>
      </trkpt>
      <trkpt lat="44.75582" lon="3.88181">
        <ele>1047</ele>
        <time>2011-06-01T06:53:13Z</time>
      </trkpt>
      <trkpt lat="44.75571" lon="3.88183">
        <ele>1046</ele>
        <time>2011-06-01T06:53:24Z</time>
      </trkpt>
      <trkpt lat="44.75559" lon="3.88184">
        <ele>1044</ele>
        <time>2011-06-01T06:53:35Z</time>
      </trkpt>
      <trkpt lat="44.75549" lon="3.88188">
        <ele>1041</ele>
        <time>2011-06-01T06:53:45Z</time>
      </trkpt>
      <trkpt lat="44.75538" lon="3.88193">
        <ele>1039</ele>
        <time>2011-06-01T06:53:55Z</time>
      </trkpt>
      <trkpt lat="44.75529" lon="3.88189">
        <ele>1038</ele>
        <time>2011-06-01T06:54:06Z</time>
      </trkpt>
      <trkpt lat="44.75518" lon="3.88189">
        <ele>1035</ele>
        <time>2011-06-01T06:54:17Z</time>
      </trkpt>
      <trkpt lat="44.75508" lon="3.88191">
        <ele>1033</ele>
        <time>2011-06-01T06:54:27Z</time>
      </trkpt>
      <trkpt lat="44.75498" lon="3.88189">
        <ele>1030</ele>
        <time>2011-06-01T06:54:37Z</time>
      </trkpt>
      <trkpt lat="44.75488" lon="3.88186">
        <ele>1028</ele>
        <time>2011-06-01T06:54:48Z</time>
      </trkpt>
      <trkpt lat="44.7548" lon="3.88185">
        <ele>1026</ele>
        <time>2011-06-01T06:55:00Z</time>
      </trkpt>
      <trkpt lat="44.75468" lon="3.88187">
        <ele>1025</ele>
        <time>2011-06-01T06:55:11Z</time>
      </trkpt>
      <trkpt lat="44.75455" lon="3.88194">
        <ele>1025</ele>
        <time>2011-06-01T06:55:21Z</time>
      </trkpt>
      <trkpt lat="44.75445" lon="3.88197">
        <ele>1025</ele>
        <time>2011-06-01T06:55:31Z</time>
      </trkpt>
      <trkpt lat="44.75434" lon="3.88199">
        <ele>1022</ele>
        <time>2011-06-01T06:55:41Z</time>
      </trkpt>
      <trkpt lat="44.7542" lon="3.88204">
        <ele>1022</ele>
        <time>2011-06-01T06:55:51Z</time>
      </trkpt>
      <trkpt lat="44.75408" lon="3.88202">
        <ele>1022</ele>
        <time>2011-06-01T06:56:01Z</time>
      </trkpt>
      <trkpt lat="44.75396" lon="3.88197">
        <ele>1022</ele>
        <time>2011-06-01T06:56:11Z</time>
      </trkpt>
      <trkpt lat="44.75387" lon="3.88192">
        <ele>1022</ele>
        <time>2011-06-01T06:56:21Z</time>
      </trkpt>
      <trkpt lat="44.75376" lon="3.88188">
        <ele>1022</ele>
        <time>2011-06-01T06:56:31Z</time>
      </trkpt>
      <trkpt lat="44.75367" lon="3.88182">
        <ele>1022</ele>
        <time>2011-06-01T06:56:41Z</time>
      </trkpt>
      <trkpt lat="44.75357" lon="3.88181">
        <ele>1023</ele>
        <time>2011-06-01T06:56:51Z</time>
      </trkpt>
      <trkpt lat="44.75344" lon="3.88187">
        <ele>1023</ele>
        <time>2011-06-01T06:57:02Z</time>
      </trkpt>
      <trkpt lat="44.75332" lon="3.88187">
        <ele>1023</ele>
        <time>2011-06-01T06:57:12Z</time>
      </trkpt>
      <trkpt lat="44.7532" lon="3.8819">
        <ele>1024</ele>
        <time>2011-06-01T06:57:22Z</time>
      </trkpt>
      <trkpt lat="44.75309" lon="3.88189">
        <ele>1025</ele>
        <time>2011-06-01T06:57:32Z</time>
      </trkpt>
      <trkpt lat="44.75294" lon="3.8819">
        <ele>1028</ele>
        <time>2011-06-01T06:57:42Z</time>
      </trkpt>
      <trkpt lat="44.75282" lon="3.88188">
        <ele>1030</ele>
        <time>2011-06-01T06:57:53Z</time>
      </trkpt>
      <trkpt lat="44.75272" lon="3.88187">
        <ele>1030</ele>
        <time>2011-06-01T06:58:03Z</time>
      </trkpt>
      <trkpt lat="44.75261" lon="3.88187">
        <ele>1030</ele>
        <time>2011-06-01T06:58:14Z</time>
      </trkpt>
      <trkpt lat="44.75253" lon="3.88191">
        <ele>1030</ele>
        <time>2011-06-01T06:58:24Z</time>
      </trkpt>
      <trkpt lat="44.75252" lon="3.88193">
        <ele>1031</ele>
        <time>2011-06-01T06:58:44Z</time>
      </trkpt>
      <trkpt lat="44.75263" lon="3.88186">
        <ele>1031</ele>
        <time>2011-06-01T06:58:55Z</time>
      </trkpt>
      <trkpt lat="44.75271" lon="3.88177">
        <ele>1031</ele>
        <time>2011-06-01T06:59:05Z</time>
      </trkpt>
      <trkpt lat="44.75278" lon="3.88164">
        <ele>1031</ele>
        <time>2011-06-01T06:59:15Z</time>
      </trkpt>
      <trkpt lat="44.75282" lon="3.8815">
        <ele>1030</ele>
        <time>2011-06-01T06:59:25Z</time>
      </trkpt>
      <trkpt lat="44.75287" lon="3.88133">
        <ele>1028</ele>
        <time>2011-06-01T06:59:35Z</time>
      </trkpt>
      <trkpt lat="44.75286" lon="3.88116">
        <ele>1028</ele>
        <time>2011-06-01T06:59:46Z</time>
      </trkpt>
      <trkpt lat="44.75278" lon="3.88107">
        <ele>1028</ele>
        <time>2011-06-01T06:59:56Z</time>
      </trkpt>
      <trkpt lat="44.7527" lon="3.88095">
        <ele>1028</ele>
        <time>2011-06-01T07:00:06Z</time>
      </trkpt>
      <trkpt lat="44.75264" lon="3.88082">
        <ele>1028</ele>
        <time>2011-06-01T07:00:16Z</time>
      </trkpt>
      <trkpt lat="44.75259" lon="3.88067">
        <ele>1028</ele>
        <time>2011-06-01T07:00:26Z</time>
      </trkpt>
      <trkpt lat="44.75254" lon="3.88053">
        <ele>1028</ele>
        <time>2011-06-01T07:00:38Z</time>
      </trkpt>
      <trkpt lat="44.75244" lon="3.88047">
        <ele>1028</ele>
        <time>2011-06-01T07:00:48Z</time>
      </trkpt>
      <trkpt lat="44.75232" lon="3.88042">
        <ele>1028</ele>
        <time>2011-06-01T07:00:58Z</time>
      </trkpt>
      <trkpt lat="44.7522" lon="3.88043">
        <ele>1028</ele>
        <time>2011-06-01T07:01:09Z</time>
      </trkpt>
      <trkpt lat="44.75206" lon="3.8804">
        <ele>1028</ele>
        <time>2011-06-01T07:01:21Z</time>
      </trkpt>
      <trkpt lat="44.75199" lon="3.88035">
        <ele>1028</ele>
        <time>2011-06-01T07:01:31Z</time>
      </trkpt>
      <trkpt lat="44.7519" lon="3.88039">
        <ele>1026</ele>
        <time>2011-06-01T07:01:41Z</time>
      </trkpt>
      <trkpt lat="44.75179" lon="3.88041">
        <ele>1023</ele>
        <time>2011-06-01T07:01:52Z</time>
      </trkpt>
      <trkpt lat="44.75169" lon="3.88038">
        <ele>1021</ele>
        <time>2011-06-01T07:02:02Z</time>
      </trkpt>
      <trkpt lat="44.75164" lon="3.88032">
        <ele>1020</ele>
        <time>2011-06-01T07:02:23Z</time>
      </trkpt>
      <trkpt lat="44.75153" lon="3.88026">
        <ele>1020</ele>
        <time>2011-06-01T07:02:33Z</time>
      </trkpt>
      <trkpt lat="44.75142" lon="3.88022">
        <ele>1020</ele>
        <time>2011-06-01T07:02:43Z</time>
      </trkpt>
      <trkpt lat="44.7513" lon="3.8802">
        <ele>1020</ele>
        <time>2011-06-01T07:02:53Z</time>
      </trkpt>
      <trkpt lat="44.75118" lon="3.8802">
        <ele>1020</ele>
        <time>2011-06-01T07:03:03Z</time>
      </trkpt>
      <trkpt lat="44.75106" lon="3.8802">
        <ele>1020</ele>
        <time>2011-06-01T07:03:13Z</time>
      </trkpt>
      <trkpt lat="44.75093" lon="3.88019">
        <ele>1020</ele>
        <time>2011-06-01T07:03:24Z</time>
      </trkpt>
      <trkpt lat="44.75081" lon="3.88018">
        <ele>1020</ele>
        <time>2011-06-01T07:03:34Z</time>
      </trkpt>
      <trkpt lat="44.75069" lon="3.88016">
        <ele>1020</ele>
        <time>2011-06-01T07:03:44Z</time>
      </trkpt>
      <trkpt lat="44.75058" lon="3.88015">
        <ele>1020</ele>
        <time>2011-06-01T07:03:54Z</time>
      </trkpt>
      <trkpt lat="44.75046" lon="3.88013">
        <ele>1019</ele>
        <time>2011-06-01T07:04:04Z</time>
      </trkpt>
      <trkpt lat="44.75035" lon="3.8801">
        <ele>1019</ele>
        <time>2011-06-01T07:04:15Z</time>
      </trkpt>
      <trkpt lat="44.75034" lon="3.88009">
        <ele>1018</ele>
        <time>2011-06-01T07:04:27Z</time>
      </trkpt>
      <trkpt lat="44.75033" lon="3.88008">
        <ele>1018</ele>
        <time>2011-06-01T07:04:59Z</time>
      </trkpt>
      <trkpt lat="44.75031" lon="3.88007">
        <ele>1018</ele>
        <time>2011-06-01T07:05:35Z</time>
      </trkpt>
      <trkpt lat="44.75024" lon="3.88005">
        <ele>1018</ele>
        <time>2011-06-01T07:05:45Z</time>
      </trkpt>
      <trkpt lat="44.75015" lon="3.88009">
        <ele>1018</ele>
        <time>2011-06-01T07:05:55Z</time>
      </trkpt>
      <trkpt lat="44.75006" lon="3.88016">
        <ele>1019</ele>
        <time>2011-06-01T07:06:05Z</time>
      </trkpt>
      <trkpt lat="44.75" lon="3.88022">
        <ele>1019</ele>
        <time>2011-06-01T07:06:15Z</time>
      </trkpt>
      <trkpt lat="44.74992" lon="3.88032">
        <ele>1019</ele>
        <time>2011-06-01T07:06:25Z</time>
      </trkpt>
      <trkpt lat="44.74985" lon="3.88043">
        <ele>1020</ele>
        <time>2011-06-01T07:06:35Z</time>
      </trkpt>
      <trkpt lat="44.7498" lon="3.88055">
        <ele>1021</ele>
        <time>2011-06-01T07:06:45Z</time>
      </trkpt>
      <trkpt lat="44.74974" lon="3.88069">
        <ele>1021</ele>
        <time>2011-06-01T07:06:56Z</time>
      </trkpt>
      <trkpt lat="44.74968" lon="3.8808">
        <ele>1021</ele>
        <time>2011-06-01T07:07:06Z</time>
      </trkpt>
      <trkpt lat="44.74962" lon="3.88097">
        <ele>1021</ele>
        <time>2011-06-01T07:07:17Z</time>
      </trkpt>
      <trkpt lat="44.74956" lon="3.88112">
        <ele>1021</ele>
        <time>2011-06-01T07:07:27Z</time>
      </trkpt>
      <trkpt lat="44.74951" lon="3.88127">
        <ele>1021</ele>
        <time>2011-06-01T07:07:37Z</time>
      </trkpt>
      <trkpt lat="44.74946" lon="3.88143">
        <ele>1021</ele>
        <time>2011-06-01T07:07:47Z</time>
      </trkpt>
      <trkpt lat="44.74942" lon="3.88158">
        <ele>1023</ele>
        <time>2011-06-01T07:07:57Z</time>
      </trkpt>
      <trkpt lat="44.74937" lon="3.88175">
        <ele>1024</ele>
        <time>2011-06-01T07:08:08Z</time>
      </trkpt>
      <trkpt lat="44.74931" lon="3.88187">
        <ele>1024</ele>
        <time>2011-06-01T07:08:18Z</time>
      </trkpt>
      <trkpt lat="44.74927" lon="3.88202">
        <ele>1024</ele>
        <time>2011-06-01T07:08:28Z</time>
      </trkpt>
      <trkpt lat="44.74924" lon="3.88218">
        <ele>1024</ele>
        <time>2011-06-01T07:08:38Z</time>
      </trkpt>
      <trkpt lat="44.7492" lon="3.88235">
        <ele>1024</ele>
        <time>2011-06-01T07:08:49Z</time>
      </trkpt>
      <trkpt lat="44.7492" lon="3.88251">
        <ele>1024</ele>
        <time>2011-06-01T07:08:59Z</time>
      </trkpt>
      <trkpt lat="44.74918" lon="3.88267">
        <ele>1024</ele>
        <time>2011-06-01T07:09:09Z</time>
      </trkpt>
      <trkpt lat="44.74916" lon="3.88283">
        <ele>1024</ele>
        <time>2011-06-01T07:09:19Z</time>
      </trkpt>
      <trkpt lat="44.74909" lon="3.88299">
        <ele>1024</ele>
        <time>2011-06-01T07:09:30Z</time>
      </trkpt>
      <trkpt lat="44.74898" lon="3.88308">
        <ele>1025</ele>
        <time>2011-06-01T07:09:40Z</time>
      </trkpt>
      <trkpt lat="44.74886" lon="3.88308">
        <ele>1027</ele>
        <time>2011-06-01T07:09:50Z</time>
      </trkpt>
      <trkpt lat="44.7487" lon="3.88308">
        <ele>1038</ele>
        <time>2011-06-01T07:10:01Z</time>
      </trkpt>
      <trkpt lat="44.74861" lon="3.88302">
        <ele>1044</ele>
        <time>2011-06-01T07:10:11Z</time>
      </trkpt>
      <trkpt lat="44.74857" lon="3.88289">
        <ele>1038</ele>
        <time>2011-06-01T07:10:21Z</time>
      </trkpt>
      <trkpt lat="44.74849" lon="3.88276">
        <ele>1034</ele>
        <time>2011-06-01T07:10:31Z</time>
      </trkpt>
      <trkpt lat="44.74841" lon="3.88265">
        <ele>1034</ele>
        <time>2011-06-01T07:10:41Z</time>
      </trkpt>
      <trkpt lat="44.74833" lon="3.88254">
        <ele>1033</ele>
        <time>2011-06-01T07:10:51Z</time>
      </trkpt>
      <trkpt lat="44.74824" lon="3.88243">
        <ele>1033</ele>
        <time>2011-06-01T07:11:01Z</time>
      </trkpt>
      <trkpt lat="44.74817" lon="3.88231">
        <ele>1033</ele>
        <time>2011-06-01T07:11:11Z</time>
      </trkpt>
      <trkpt lat="44.74811" lon="3.88217">
        <ele>1033</ele>
        <time>2011-06-01T07:11:21Z</time>
      </trkpt>
      <trkpt lat="44.7481" lon="3.88201">
        <ele>1033</ele>
        <time>2011-06-01T07:11:31Z</time>
      </trkpt>
      <trkpt lat="44.74812" lon="3.88186">
        <ele>1033</ele>
        <time>2011-06-01T07:11:42Z</time>
      </trkpt>
      <trkpt lat="44.74816" lon="3.88172">
        <ele>1033</ele>
        <time>2011-06-01T07:11:52Z</time>
      </trkpt>
      <trkpt lat="44.74819" lon="3.88157">
        <ele>1033</ele>
        <time>2011-06-01T07:12:03Z</time>
      </trkpt>
      <trkpt lat="44.74818" lon="3.88141">
        <ele>1033</ele>
        <time>2011-06-01T07:12:13Z</time>
      </trkpt>
      <trkpt lat="44.74813" lon="3.88127">
        <ele>1033</ele>
        <time>2011-06-01T07:12:23Z</time>
      </trkpt>
      <trkpt lat="44.74804" lon="3.88116">
        <ele>1033</ele>
        <time>2011-06-01T07:12:33Z</time>
      </trkpt>
      <trkpt lat="44.74793" lon="3.8811">
        <ele>1035</ele>
        <time>2011-06-01T07:12:43Z</time>
      </trkpt>
      <trkpt lat="44.74781" lon="3.88107">
        <ele>1036</ele>
        <time>2011-06-01T07:12:54Z</time>
      </trkpt>
      <trkpt lat="44.7477" lon="3.88106">
        <ele>1036</ele>
        <time>2011-06-01T07:13:05Z</time>
      </trkpt>
      <trkpt lat="44.7476" lon="3.88109">
        <ele>1036</ele>
        <time>2011-06-01T07:13:15Z</time>
      </trkpt>
      <trkpt lat="44.74749" lon="3.8811">
        <ele>1036</ele>
        <time>2011-06-01T07:13:25Z</time>
      </trkpt>
      <trkpt lat="44.74737" lon="3.8811">
        <ele>1036</ele>
        <time>2011-06-01T07:13:35Z</time>
      </trkpt>
      <trkpt lat="44.74726" lon="3.88108">
        <ele>1036</ele>
        <time>2011-06-01T07:13:45Z</time>
      </trkpt>
      <trkpt lat="44.74716" lon="3.88105">
        <ele>1036</ele>
        <time>2011-06-01T07:13:55Z</time>
      </trkpt>
      <trkpt lat="44.74711" lon="3.88102">
        <ele>1044</ele>
        <time>2011-06-01T07:15:13Z</time>
      </trkpt>
      <trkpt lat="44.7471" lon="3.88102">
        <ele>1044</ele>
        <time>2011-06-01T07:15:37Z</time>
      </trkpt>
      <trkpt lat="44.74706" lon="3.88105">
        <ele>1049</ele>
        <time>2011-06-01T07:15:47Z</time>
      </trkpt>
      <trkpt lat="44.74707" lon="3.88104">
        <ele>1049</ele>
        <time>2011-06-01T07:15:58Z</time>
      </trkpt>
      <trkpt lat="44.7471" lon="3.88103">
        <ele>1049</ele>
        <time>2011-06-01T07:16:16Z</time>
      </trkpt>
      <trkpt lat="44.74711" lon="3.88102">
        <ele>1049</ele>
        <time>2011-06-01T07:16:31Z</time>
      </trkpt>
      <trkpt lat="44.74712" lon="3.88101">
        <ele>1048</ele>
        <time>2011-06-01T07:17:01Z</time>
      </trkpt>
      <trkpt lat="44.7471" lon="3.88104">
        <ele>1047</ele>
        <time>2011-06-01T07:17:24Z</time>
      </trkpt>
      <trkpt lat="44.74709" lon="3.88104">
        <ele>1047</ele>
        <time>2011-06-01T07:17:35Z</time>
      </trkpt>
      <trkpt lat="44.74702" lon="3.88098">
        <ele>1047</ele>
        <time>2011-06-01T07:17:45Z</time>
      </trkpt>
      <trkpt lat="44.74693" lon="3.88093">
        <ele>1047</ele>
        <time>2011-06-01T07:17:59Z</time>
      </trkpt>
      <trkpt lat="44.74684" lon="3.88088">
        <ele>1046</ele>
        <time>2011-06-01T07:18:09Z</time>
      </trkpt>
      <trkpt lat="44.74672" lon="3.88085">
        <ele>1046</ele>
        <time>2011-06-01T07:18:19Z</time>
      </trkpt>
      <trkpt lat="44.74661" lon="3.88083">
        <ele>1046</ele>
        <time>2011-06-01T07:18:30Z</time>
      </trkpt>
      <trkpt lat="44.7465" lon="3.88083">
        <ele>1046</ele>
        <time>2011-06-01T07:18:41Z</time>
      </trkpt>
      <trkpt lat="44.74641" lon="3.88085">
        <ele>1046</ele>
        <time>2011-06-01T07:18:51Z</time>
      </trkpt>
      <trkpt lat="44.74635" lon="3.88087">
        <ele>1046</ele>
        <time>2011-06-01T07:19:30Z</time>
      </trkpt>
      <trkpt lat="44.74628" lon="3.88089">
        <ele>1046</ele>
        <time>2011-06-01T07:19:41Z</time>
      </trkpt>
      <trkpt lat="44.74626" lon="3.88089">
        <ele>1046</ele>
        <time>2011-06-01T07:19:53Z</time>
      </trkpt>
      <trkpt lat="44.7462" lon="3.88092">
        <ele>1046</ele>
        <time>2011-06-01T07:20:03Z</time>
      </trkpt>
      <trkpt lat="44.74614" lon="3.88096">
        <ele>1046</ele>
        <time>2011-06-01T07:20:13Z</time>
      </trkpt>
      <trkpt lat="44.74606" lon="3.88101">
        <ele>1046</ele>
        <time>2011-06-01T07:20:24Z</time>
      </trkpt>
      <trkpt lat="44.74599" lon="3.88107">
        <ele>1046</ele>
        <time>2011-06-01T07:20:34Z</time>
      </trkpt>
      <trkpt lat="44.74591" lon="3.88113">
        <ele>1046</ele>
        <time>2011-06-01T07:20:44Z</time>
      </trkpt>
      <trkpt lat="44.74581" lon="3.88119">
        <ele>1046</ele>
        <time>2011-06-01T07:20:54Z</time>
      </trkpt>
      <trkpt lat="44.74572" lon="3.88122">
        <ele>1046</ele>
        <time>2011-06-01T07:21:04Z</time>
      </trkpt>
      <trkpt lat="44.74564" lon="3.88129">
        <ele>1046</ele>
        <time>2011-06-01T07:21:14Z</time>
      </trkpt>
      <trkpt lat="44.74556" lon="3.88137">
        <ele>1046</ele>
        <time>2011-06-01T07:21:25Z</time>
      </trkpt>
      <trkpt lat="44.74546" lon="3.88145">
        <ele>1046</ele>
        <time>2011-06-01T07:21:36Z</time>
      </trkpt>
      <trkpt lat="44.74537" lon="3.88151">
        <ele>1046</ele>
        <time>2011-06-01T07:21:46Z</time>
      </trkpt>
      <trkpt lat="44.74528" lon="3.88157">
        <ele>1046</ele>
        <time>2011-06-01T07:21:56Z</time>
      </trkpt>
      <trkpt lat="44.74516" lon="3.88167">
        <ele>1046</ele>
        <time>2011-06-01T07:22:07Z</time>
      </trkpt>
      <trkpt lat="44.74506" lon="3.88174">
        <ele>1046</ele>
        <time>2011-06-01T07:22:17Z</time>
      </trkpt>
      <trkpt lat="44.74498" lon="3.8818">
        <ele>1046</ele>
        <time>2011-06-01T07:22:27Z</time>
      </trkpt>
      <trkpt lat="44.74488" lon="3.88188">
        <ele>1046</ele>
        <time>2011-06-01T07:22:37Z</time>
      </trkpt>
      <trkpt lat="44.74478" lon="3.88195">
        <ele>1046</ele>
        <time>2011-06-01T07:22:47Z</time>
      </trkpt>
      <trkpt lat="44.74469" lon="3.88202">
        <ele>1046</ele>
        <time>2011-06-01T07:22:57Z</time>
      </trkpt>
      <trkpt lat="44.74459" lon="3.88209">
        <ele>1047</ele>
        <time>2011-06-01T07:23:07Z</time>
      </trkpt>
      <trkpt lat="44.7445" lon="3.88216">
        <ele>1047</ele>
        <time>2011-06-01T07:23:17Z</time>
      </trkpt>
      <trkpt lat="44.7444" lon="3.88223">
        <ele>1048</ele>
        <time>2011-06-01T07:23:27Z</time>
      </trkpt>
      <trkpt lat="44.74431" lon="3.8823">
        <ele>1049</ele>
        <time>2011-06-01T07:23:37Z</time>
      </trkpt>
      <trkpt lat="44.74421" lon="3.88237">
        <ele>1049</ele>
        <time>2011-06-01T07:23:47Z</time>
      </trkpt>
      <trkpt lat="44.74411" lon="3.88245">
        <ele>1050</ele>
        <time>2011-06-01T07:23:57Z</time>
      </trkpt>
      <trkpt lat="44.74399" lon="3.88255">
        <ele>1051</ele>
        <time>2011-06-01T07:24:08Z</time>
      </trkpt>
      <trkpt lat="44.7439" lon="3.88264">
        <ele>1052</ele>
        <time>2011-06-01T07:24:18Z</time>
      </trkpt>
      <trkpt lat="44.74379" lon="3.88274">
        <ele>1053</ele>
        <time>2011-06-01T07:24:28Z</time>
      </trkpt>
      <trkpt lat="44.7437" lon="3.88285">
        <ele>1054</ele>
        <time>2011-06-01T07:24:38Z</time>
      </trkpt>
      <trkpt lat="44.7436" lon="3.88294">
        <ele>1054</ele>
        <time>2011-06-01T07:24:48Z</time>
      </trkpt>
      <trkpt lat="44.74351" lon="3.88303">
        <ele>1054</ele>
        <time>2011-06-01T07:24:58Z</time>
      </trkpt>
      <trkpt lat="44.74341" lon="3.88313">
        <ele>1055</ele>
        <time>2011-06-01T07:25:08Z</time>
      </trkpt>
      <trkpt lat="44.7433" lon="3.88324">
        <ele>1056</ele>
        <time>2011-06-01T07:25:19Z</time>
      </trkpt>
      <trkpt lat="44.7432" lon="3.88334">
        <ele>1056</ele>
        <time>2011-06-01T07:25:29Z</time>
      </trkpt>
      <trkpt lat="44.7431" lon="3.88344">
        <ele>1057</ele>
        <time>2011-06-01T07:25:40Z</time>
      </trkpt>
      <trkpt lat="44.743" lon="3.88353">
        <ele>1057</ele>
        <time>2011-06-01T07:25:50Z</time>
      </trkpt>
      <trkpt lat="44.74289" lon="3.88365">
        <ele>1058</ele>
        <time>2011-06-01T07:26:01Z</time>
      </trkpt>
      <trkpt lat="44.7428" lon="3.88375">
        <ele>1059</ele>
        <time>2011-06-01T07:26:11Z</time>
      </trkpt>
      <trkpt lat="44.74272" lon="3.88385">
        <ele>1059</ele>
        <time>2011-06-01T07:26:21Z</time>
      </trkpt>
      <trkpt lat="44.74265" lon="3.88396">
        <ele>1059</ele>
        <time>2011-06-01T07:26:31Z</time>
      </trkpt>
      <trkpt lat="44.74258" lon="3.88409">
        <ele>1059</ele>
        <time>2011-06-01T07:26:41Z</time>
      </trkpt>
      <trkpt lat="44.74252" lon="3.88421">
        <ele>1060</ele>
        <time>2011-06-01T07:26:51Z</time>
      </trkpt>
      <trkpt lat="44.74245" lon="3.88436">
        <ele>1060</ele>
        <time>2011-06-01T07:27:02Z</time>
      </trkpt>
      <trkpt lat="44.74239" lon="3.88449">
        <ele>1060</ele>
        <time>2011-06-01T07:27:12Z</time>
      </trkpt>
      <trkpt lat="44.74232" lon="3.88461">
        <ele>1060</ele>
        <time>2011-06-01T07:27:22Z</time>
      </trkpt>
      <trkpt lat="44.74227" lon="3.88473">
        <ele>1060</ele>
        <time>2011-06-01T07:27:32Z</time>
      </trkpt>
      <trkpt lat="44.74223" lon="3.88487">
        <ele>1060</ele>
        <time>2011-06-01T07:27:42Z</time>
      </trkpt>
      <trkpt lat="44.7422" lon="3.88501">
        <ele>1061</ele>
        <time>2011-06-01T07:27:52Z</time>
      </trkpt>
      <trkpt lat="44.74221" lon="3.88516">
        <ele>1061</ele>
        <time>2011-06-01T07:28:03Z</time>
      </trkpt>
      <trkpt lat="44.7422" lon="3.8853">
        <ele>1061</ele>
        <time>2011-06-01T07:28:13Z</time>
      </trkpt>
      <trkpt lat="44.7422" lon="3.88544">
        <ele>1061</ele>
        <time>2011-06-01T07:28:25Z</time>
      </trkpt>
      <trkpt lat="44.74217" lon="3.88558">
        <ele>1061</ele>
        <time>2011-06-01T07:28:35Z</time>
      </trkpt>
      <trkpt lat="44.74216" lon="3.88573">
        <ele>1062</ele>
        <time>2011-06-01T07:28:45Z</time>
      </trkpt>
      <trkpt lat="44.74215" lon="3.88588">
        <ele>1062</ele>
        <time>2011-06-01T07:28:55Z</time>
      </trkpt>
      <trkpt lat="44.74214" lon="3.88602">
        <ele>1063</ele>
        <time>2011-06-01T07:29:05Z</time>
      </trkpt>
      <trkpt lat="44.74213" lon="3.88618">
        <ele>1063</ele>
        <time>2011-06-01T07:29:16Z</time>
      </trkpt>
      <trkpt lat="44.74213" lon="3.88635">
        <ele>1063</ele>
        <time>2011-06-01T07:29:27Z</time>
      </trkpt>
      <trkpt lat="44.74211" lon="3.88651">
        <ele>1064</ele>
        <time>2011-06-01T07:29:37Z</time>
      </trkpt>
      <trkpt lat="44.74208" lon="3.88668">
        <ele>1064</ele>
        <time>2011-06-01T07:29:48Z</time>
      </trkpt>
      <trkpt lat="44.74205" lon="3.88683">
        <ele>1065</ele>
        <time>2011-06-01T07:29:58Z</time>
      </trkpt>
      <trkpt lat="44.742" lon="3.88697">
        <ele>1065</ele>
        <time>2011-06-01T07:30:08Z</time>
      </trkpt>
      <trkpt lat="44.74194" lon="3.88713">
        <ele>1066</ele>
        <time>2011-06-01T07:30:19Z</time>
      </trkpt>
      <trkpt lat="44.74189" lon="3.88727">
        <ele>1067</ele>
        <time>2011-06-01T07:30:29Z</time>
      </trkpt>
      <trkpt lat="44.74181" lon="3.88743">
        <ele>1067</ele>
        <time>2011-06-01T07:30:41Z</time>
      </trkpt>
      <trkpt lat="44.74173" lon="3.88758">
        <ele>1067</ele>
        <time>2011-06-01T07:30:53Z</time>
      </trkpt>
      <trkpt lat="44.74163" lon="3.88773">
        <ele>1068</ele>
        <time>2011-06-01T07:31:05Z</time>
      </trkpt>
      <trkpt lat="44.74152" lon="3.88786">
        <ele>1069</ele>
        <time>2011-06-01T07:31:17Z</time>
      </trkpt>
      <trkpt lat="44.74142" lon="3.88799">
        <ele>1070</ele>
        <time>2011-06-01T07:31:29Z</time>
      </trkpt>
      <trkpt lat="44.74131" lon="3.8881">
        <ele>1071</ele>
        <time>2011-06-01T07:31:41Z</time>
      </trkpt>
      <trkpt lat="44.7412" lon="3.88818">
        <ele>1071</ele>
        <time>2011-06-01T07:31:52Z</time>
      </trkpt>
      <trkpt lat="44.74108" lon="3.88825">
        <ele>1071</ele>
        <time>2011-06-01T07:32:04Z</time>
      </trkpt>
      <trkpt lat="44.74097" lon="3.88833">
        <ele>1072</ele>
        <time>2011-06-01T07:32:15Z</time>
      </trkpt>
      <trkpt lat="44.74085" lon="3.88841">
        <ele>1073</ele>
        <time>2011-06-01T07:32:26Z</time>
      </trkpt>
      <trkpt lat="44.74073" lon="3.88852">
        <ele>1074</ele>
        <time>2011-06-01T07:32:38Z</time>
      </trkpt>
      <trkpt lat="44.7406" lon="3.88863">
        <ele>1075</ele>
        <time>2011-06-01T07:32:50Z</time>
      </trkpt>
      <trkpt lat="44.74049" lon="3.88873">
        <ele>1076</ele>
        <time>2011-06-01T07:33:01Z</time>
      </trkpt>
      <trkpt lat="44.74037" lon="3.88882">
        <ele>1076</ele>
        <time>2011-06-01T07:33:13Z</time>
      </trkpt>
      <trkpt lat="44.74026" lon="3.88891">
        <ele>1077</ele>
        <time>2011-06-01T07:33:24Z</time>
      </trkpt>
      <trkpt lat="44.74013" lon="3.889">
        <ele>1077</ele>
        <time>2011-06-01T07:33:36Z</time>
      </trkpt>
      <trkpt lat="44.74002" lon="3.88908">
        <ele>1078</ele>
        <time>2011-06-01T07:33:47Z</time>
      </trkpt>
      <trkpt lat="44.73993" lon="3.88915">
        <ele>1078</ele>
        <time>2011-06-01T07:33:57Z</time>
      </trkpt>
      <trkpt lat="44.73983" lon="3.88923">
        <ele>1078</ele>
        <time>2011-06-01T07:34:07Z</time>
      </trkpt>
      <trkpt lat="44.73974" lon="3.88929">
        <ele>1078</ele>
        <time>2011-06-01T07:34:17Z</time>
      </trkpt>
      <trkpt lat="44.73971" lon="3.8893">
        <ele>1078</ele>
        <time>2011-06-01T07:34:34Z</time>
      </trkpt>
      <trkpt lat="44.73969" lon="3.88931">
        <ele>1079</ele>
        <time>2011-06-01T07:34:55Z</time>
      </trkpt>
      <trkpt lat="44.73969" lon="3.88932">
        <ele>1081</ele>
        <time>2011-06-01T07:35:16Z</time>
      </trkpt>
      <trkpt lat="44.73969" lon="3.8893">
        <ele>1083</ele>
        <time>2011-06-01T07:35:29Z</time>
      </trkpt>
      <trkpt lat="44.73967" lon="3.8892">
        <ele>1083</ele>
        <time>2011-06-01T07:35:39Z</time>
      </trkpt>
      <trkpt lat="44.73964" lon="3.88911">
        <ele>1083</ele>
        <time>2011-06-01T07:35:51Z</time>
      </trkpt>
      <trkpt lat="44.73962" lon="3.88894">
        <ele>1083</ele>
        <time>2011-06-01T07:36:01Z</time>
      </trkpt>
      <trkpt lat="44.73963" lon="3.88887">
        <ele>1083</ele>
        <time>2011-06-01T07:36:38Z</time>
      </trkpt>
      <trkpt lat="44.73962" lon="3.88889">
        <ele>1081</ele>
        <time>2011-06-01T07:37:27Z</time>
      </trkpt>
      <trkpt lat="44.73961" lon="3.88891">
        <ele>1081</ele>
        <time>2011-06-01T07:37:39Z</time>
      </trkpt>
      <trkpt lat="44.7396" lon="3.88891">
        <ele>1084</ele>
        <time>2011-06-01T07:37:51Z</time>
      </trkpt>
      <trkpt lat="44.73957" lon="3.8889">
        <ele>1085</ele>
        <time>2011-06-01T07:38:06Z</time>
      </trkpt>
      <trkpt lat="44.73957" lon="3.88887">
        <ele>1081</ele>
        <time>2011-06-01T07:38:29Z</time>
      </trkpt>
      <trkpt lat="44.73958" lon="3.88885">
        <ele>1076</ele>
        <time>2011-06-01T07:38:49Z</time>
      </trkpt>
      <trkpt lat="44.73957" lon="3.88887">
        <ele>1076</ele>
        <time>2011-06-01T07:38:59Z</time>
      </trkpt>
      <trkpt lat="44.73958" lon="3.88885">
        <ele>1075</ele>
        <time>2011-06-01T07:39:15Z</time>
      </trkpt>
      <trkpt lat="44.7396" lon="3.8888">
        <ele>1079</ele>
        <time>2011-06-01T07:39:40Z</time>
      </trkpt>
      <trkpt lat="44.73962" lon="3.8888">
        <ele>1081</ele>
        <time>2011-06-01T07:39:51Z</time>
      </trkpt>
      <trkpt lat="44.73962" lon="3.88881">
        <ele>1083</ele>
        <time>2011-06-01T07:40:12Z</time>
      </trkpt>
      <trkpt lat="44.73959" lon="3.8889">
        <ele>1089</ele>
        <time>2011-06-01T07:40:28Z</time>
      </trkpt>
      <trkpt lat="44.73958" lon="3.8889">
        <ele>1090</ele>
        <time>2011-06-01T07:40:47Z</time>
      </trkpt>
      <trkpt lat="44.73959" lon="3.88889">
        <ele>1090</ele>
        <time>2011-06-01T07:41:07Z</time>
      </trkpt>
      <trkpt lat="44.7396" lon="3.88887">
        <ele>1088</ele>
        <time>2011-06-01T07:41:51Z</time>
      </trkpt>
      <trkpt lat="44.73962" lon="3.88886">
        <ele>1085</ele>
        <time>2011-06-01T07:42:02Z</time>
      </trkpt>
      <trkpt lat="44.73963" lon="3.88885">
        <ele>1079</ele>
        <time>2011-06-01T07:42:29Z</time>
      </trkpt>
      <trkpt lat="44.73961" lon="3.88888">
        <ele>1079</ele>
        <time>2011-06-01T07:42:48Z</time>
      </trkpt>
      <trkpt lat="44.73964" lon="3.88897">
        <ele>1079</ele>
        <time>2011-06-01T07:42:59Z</time>
      </trkpt>
      <trkpt lat="44.73967" lon="3.88905">
        <ele>1080</ele>
        <time>2011-06-01T07:43:09Z</time>
      </trkpt>
      <trkpt lat="44.73967" lon="3.88915">
        <ele>1080</ele>
        <time>2011-06-01T07:43:19Z</time>
      </trkpt>
      <trkpt lat="44.7397" lon="3.88926">
        <ele>1080</ele>
        <time>2011-06-01T07:43:29Z</time>
      </trkpt>
      <trkpt lat="44.73969" lon="3.88937">
        <ele>1080</ele>
        <time>2011-06-01T07:43:40Z</time>
      </trkpt>
      <trkpt lat="44.73962" lon="3.88947">
        <ele>1080</ele>
        <time>2011-06-01T07:43:50Z</time>
      </trkpt>
      <trkpt lat="44.73957" lon="3.88958">
        <ele>1080</ele>
        <time>2011-06-01T07:44:00Z</time>
      </trkpt>
      <trkpt lat="44.73954" lon="3.88966">
        <ele>1081</ele>
        <time>2011-06-01T07:44:25Z</time>
      </trkpt>
      <trkpt lat="44.7395" lon="3.88975">
        <ele>1081</ele>
        <time>2011-06-01T07:44:36Z</time>
      </trkpt>
      <trkpt lat="44.73948" lon="3.8898">
        <ele>1081</ele>
        <time>2011-06-01T07:44:47Z</time>
      </trkpt>
      <trkpt lat="44.73946" lon="3.88987">
        <ele>1081</ele>
        <time>2011-06-01T07:44:57Z</time>
      </trkpt>
      <trkpt lat="44.7394" lon="3.88999">
        <ele>1081</ele>
        <time>2011-06-01T07:45:07Z</time>
      </trkpt>
      <trkpt lat="44.73935" lon="3.89009">
        <ele>1081</ele>
        <time>2011-06-01T07:45:17Z</time>
      </trkpt>
      <trkpt lat="44.7393" lon="3.89021">
        <ele>1081</ele>
        <time>2011-06-01T07:45:27Z</time>
      </trkpt>
      <trkpt lat="44.73925" lon="3.89034">
        <ele>1081</ele>
        <time>2011-06-01T07:45:37Z</time>
      </trkpt>
      <trkpt lat="44.73919" lon="3.89048">
        <ele>1081</ele>
        <time>2011-06-01T07:45:47Z</time>
      </trkpt>
      <trkpt lat="44.73915" lon="3.89065">
        <ele>1081</ele>
        <time>2011-06-01T07:45:57Z</time>
      </trkpt>
      <trkpt lat="44.73911" lon="3.8908">
        <ele>1081</ele>
        <time>2011-06-01T07:46:07Z</time>
      </trkpt>
      <trkpt lat="44.73906" lon="3.89098">
        <ele>1079</ele>
        <time>2011-06-01T07:46:17Z</time>
      </trkpt>
      <trkpt lat="44.73901" lon="3.89116">
        <ele>1078</ele>
        <time>2011-06-01T07:46:27Z</time>
      </trkpt>
      <trkpt lat="44.73896" lon="3.89134">
        <ele>1078</ele>
        <time>2011-06-01T07:46:37Z</time>
      </trkpt>
      <trkpt lat="44.73891" lon="3.89152">
        <ele>1077</ele>
        <time>2011-06-01T07:46:47Z</time>
      </trkpt>
      <trkpt lat="44.73882" lon="3.89168">
        <ele>1077</ele>
        <time>2011-06-01T07:46:58Z</time>
      </trkpt>
      <trkpt lat="44.73869" lon="3.89173">
        <ele>1076</ele>
        <time>2011-06-01T07:47:08Z</time>
      </trkpt>
      <trkpt lat="44.73856" lon="3.89173">
        <ele>1076</ele>
        <time>2011-06-01T07:47:18Z</time>
      </trkpt>
      <trkpt lat="44.73841" lon="3.89173">
        <ele>1076</ele>
        <time>2011-06-01T07:47:28Z</time>
      </trkpt>
      <trkpt lat="44.73828" lon="3.89173">
        <ele>1076</ele>
        <time>2011-06-01T07:47:38Z</time>
      </trkpt>
      <trkpt lat="44.73814" lon="3.89174">
        <ele>1076</ele>
        <time>2011-06-01T07:47:48Z</time>
      </trkpt>
      <trkpt lat="44.73801" lon="3.89175">
        <ele>1076</ele>
        <time>2011-06-01T07:47:58Z</time>
      </trkpt>
      <trkpt lat="44.73789" lon="3.89178">
        <ele>1074</ele>
        <time>2011-06-01T07:48:08Z</time>
      </trkpt>
      <trkpt lat="44.73775" lon="3.8918">
        <ele>1073</ele>
        <time>2011-06-01T07:48:18Z</time>
      </trkpt>
      <trkpt lat="44.7376" lon="3.89188">
        <ele>1073</ele>
        <time>2011-06-01T07:48:28Z</time>
      </trkpt>
      <trkpt lat="44.73748" lon="3.89192">
        <ele>1073</ele>
        <time>2011-06-01T07:48:38Z</time>
      </trkpt>
      <trkpt lat="44.73735" lon="3.89194">
        <ele>1073</ele>
        <time>2011-06-01T07:48:48Z</time>
      </trkpt>
      <trkpt lat="44.73723" lon="3.89202">
        <ele>1073</ele>
        <time>2011-06-01T07:48:58Z</time>
      </trkpt>
      <trkpt lat="44.7371" lon="3.89208">
        <ele>1074</ele>
        <time>2011-06-01T07:49:08Z</time>
      </trkpt>
      <trkpt lat="44.73698" lon="3.89212">
        <ele>1074</ele>
        <time>2011-06-01T07:49:18Z</time>
      </trkpt>
      <trkpt lat="44.73687" lon="3.89215">
        <ele>1074</ele>
        <time>2011-06-01T07:49:28Z</time>
      </trkpt>
      <trkpt lat="44.73675" lon="3.8922">
        <ele>1075</ele>
        <time>2011-06-01T07:49:38Z</time>
      </trkpt>
      <trkpt lat="44.73662" lon="3.89225">
        <ele>1076</ele>
        <time>2011-06-01T07:49:48Z</time>
      </trkpt>
      <trkpt lat="44.7365" lon="3.8923">
        <ele>1076</ele>
        <time>2011-06-01T07:49:58Z</time>
      </trkpt>
      <trkpt lat="44.73637" lon="3.89235">
        <ele>1076</ele>
        <time>2011-06-01T07:50:08Z</time>
      </trkpt>
      <trkpt lat="44.73624" lon="3.89239">
        <ele>1076</ele>
        <time>2011-06-01T07:50:18Z</time>
      </trkpt>
      <trkpt lat="44.73612" lon="3.89244">
        <ele>1076</ele>
        <time>2011-06-01T07:50:28Z</time>
      </trkpt>
      <trkpt lat="44.73599" lon="3.8925">
        <ele>1076</ele>
        <time>2011-06-01T07:50:38Z</time>
      </trkpt>
      <trkpt lat="44.73587" lon="3.8926">
        <ele>1076</ele>
        <time>2011-06-01T07:50:49Z</time>
      </trkpt>
      <trkpt lat="44.73577" lon="3.89275">
        <ele>1076</ele>
        <time>2011-06-01T07:50:59Z</time>
      </trkpt>
      <trkpt lat="44.73566" lon="3.89292">
        <ele>1076</ele>
        <time>2011-06-01T07:51:10Z</time>
      </trkpt>
      <trkpt lat="44.73558" lon="3.89308">
        <ele>1076</ele>
        <time>2011-06-01T07:51:20Z</time>
      </trkpt>
      <trkpt lat="44.73549" lon="3.89323">
        <ele>1076</ele>
        <time>2011-06-01T07:51:30Z</time>
      </trkpt>
      <trkpt lat="44.7354" lon="3.89337">
        <ele>1076</ele>
        <time>2011-06-01T07:51:40Z</time>
      </trkpt>
      <trkpt lat="44.73531" lon="3.8935">
        <ele>1076</ele>
        <time>2011-06-01T07:51:50Z</time>
      </trkpt>
      <trkpt lat="44.7352" lon="3.89362">
        <ele>1076</ele>
        <time>2011-06-01T07:52:00Z</time>
      </trkpt>
      <trkpt lat="44.73507" lon="3.89372">
        <ele>1076</ele>
        <time>2011-06-01T07:52:10Z</time>
      </trkpt>
      <trkpt lat="44.73495" lon="3.89385">
        <ele>1076</ele>
        <time>2011-06-01T07:52:21Z</time>
      </trkpt>
      <trkpt lat="44.73487" lon="3.894">
        <ele>1076</ele>
        <time>2011-06-01T07:52:31Z</time>
      </trkpt>
      <trkpt lat="44.73482" lon="3.89418">
        <ele>1076</ele>
        <time>2011-06-01T07:52:41Z</time>
      </trkpt>
      <trkpt lat="44.73478" lon="3.89436">
        <ele>1076</ele>
        <time>2011-06-01T07:52:51Z</time>
      </trkpt>
      <trkpt lat="44.73475" lon="3.89454">
        <ele>1076</ele>
        <time>2011-06-01T07:53:01Z</time>
      </trkpt>
      <trkpt lat="44.73469" lon="3.89471">
        <ele>1076</ele>
        <time>2011-06-01T07:53:11Z</time>
      </trkpt>
      <trkpt lat="44.7346" lon="3.89485">
        <ele>1074</ele>
        <time>2011-06-01T07:53:21Z</time>
      </trkpt>
      <trkpt lat="44.7345" lon="3.89493">
        <ele>1073</ele>
        <time>2011-06-01T07:53:31Z</time>
      </trkpt>
      <trkpt lat="44.73438" lon="3.89503">
        <ele>1073</ele>
        <time>2011-06-01T07:53:41Z</time>
      </trkpt>
      <trkpt lat="44.73427" lon="3.89516">
        <ele>1073</ele>
        <time>2011-06-01T07:53:52Z</time>
      </trkpt>
      <trkpt lat="44.7342" lon="3.89533">
        <ele>1073</ele>
        <time>2011-06-01T07:54:02Z</time>
      </trkpt>
      <trkpt lat="44.73416" lon="3.89551">
        <ele>1073</ele>
        <time>2011-06-01T07:54:12Z</time>
      </trkpt>
      <trkpt lat="44.73416" lon="3.89569">
        <ele>1073</ele>
        <time>2011-06-01T07:54:22Z</time>
      </trkpt>
      <trkpt lat="44.73418" lon="3.89588">
        <ele>1073</ele>
        <time>2011-06-01T07:54:32Z</time>
      </trkpt>
      <trkpt lat="44.73415" lon="3.89606">
        <ele>1073</ele>
        <time>2011-06-01T07:54:42Z</time>
      </trkpt>
      <trkpt lat="44.73409" lon="3.89622">
        <ele>1073</ele>
        <time>2011-06-01T07:54:52Z</time>
      </trkpt>
      <trkpt lat="44.73398" lon="3.89633">
        <ele>1073</ele>
        <time>2011-06-01T07:55:03Z</time>
      </trkpt>
      <trkpt lat="44.73386" lon="3.89639">
        <ele>1073</ele>
        <time>2011-06-01T07:55:13Z</time>
      </trkpt>
      <trkpt lat="44.73374" lon="3.89644">
        <ele>1073</ele>
        <time>2011-06-01T07:55:23Z</time>
      </trkpt>
      <trkpt lat="44.73362" lon="3.8965">
        <ele>1073</ele>
        <time>2011-06-01T07:55:33Z</time>
      </trkpt>
      <trkpt lat="44.73349" lon="3.89656">
        <ele>1073</ele>
        <time>2011-06-01T07:55:43Z</time>
      </trkpt>
      <trkpt lat="44.73337" lon="3.89663">
        <ele>1073</ele>
        <time>2011-06-01T07:55:53Z</time>
      </trkpt>
      <trkpt lat="44.73327" lon="3.89671">
        <ele>1075</ele>
        <time>2011-06-01T07:56:03Z</time>
      </trkpt>
      <trkpt lat="44.73315" lon="3.8968">
        <ele>1075</ele>
        <time>2011-06-01T07:56:14Z</time>
      </trkpt>
      <trkpt lat="44.73305" lon="3.8969">
        <ele>1075</ele>
        <time>2011-06-01T07:56:24Z</time>
      </trkpt>
      <trkpt lat="44.73296" lon="3.897">
        <ele>1075</ele>
        <time>2011-06-01T07:56:34Z</time>
      </trkpt>
      <trkpt lat="44.73286" lon="3.89712">
        <ele>1075</ele>
        <time>2011-06-01T07:56:44Z</time>
      </trkpt>
      <trkpt lat="44.73276" lon="3.89724">
        <ele>1075</ele>
        <time>2011-06-01T07:56:55Z</time>
      </trkpt>
      <trkpt lat="44.73267" lon="3.89737">
        <ele>1075</ele>
        <time>2011-06-01T07:57:06Z</time>
      </trkpt>
      <trkpt lat="44.7326" lon="3.89751">
        <ele>1075</ele>
        <time>2011-06-01T07:57:16Z</time>
      </trkpt>
      <trkpt lat="44.73261" lon="3.89758">
        <ele>1078</ele>
        <time>2011-06-01T07:57:39Z</time>
      </trkpt>
      <trkpt lat="44.73261" lon="3.8976">
        <ele>1080</ele>
        <time>2011-06-01T07:57:49Z</time>
      </trkpt>
      <trkpt lat="44.73259" lon="3.89762">
        <ele>1081</ele>
        <time>2011-06-01T07:58:00Z</time>
      </trkpt>
      <trkpt lat="44.73257" lon="3.89763">
        <ele>1084</ele>
        <time>2011-06-01T07:58:25Z</time>
      </trkpt>
      <trkpt lat="44.73256" lon="3.8976">
        <ele>1085</ele>
        <time>2011-06-01T07:58:42Z</time>
      </trkpt>
      <trkpt lat="44.73259" lon="3.89758">
        <ele>1085</ele>
        <time>2011-06-01T07:58:53Z</time>
      </trkpt>
      <trkpt lat="44.73259" lon="3.89758">
        <ele>1085</ele>
        <time>2011-06-01T07:59:23Z</time>
      </trkpt>
      <trkpt lat="44.73258" lon="3.89761">
        <ele>1087</ele>
        <time>2011-06-01T07:59:36Z</time>
      </trkpt>
      <trkpt lat="44.73259" lon="3.89764">
        <ele>1091</ele>
        <time>2011-06-01T07:59:50Z</time>
      </trkpt>
      <trkpt lat="44.73257" lon="3.89762">
        <ele>1093</ele>
        <time>2011-06-01T08:00:06Z</time>
      </trkpt>
      <trkpt lat="44.73256" lon="3.89756">
        <ele>1093</ele>
        <time>2011-06-01T08:00:17Z</time>
      </trkpt>
      <trkpt lat="44.73255" lon="3.89756">
        <ele>1089</ele>
        <time>2011-06-01T08:00:38Z</time>
      </trkpt>
      <trkpt lat="44.73254" lon="3.89755">
        <ele>1085</ele>
        <time>2011-06-01T08:00:48Z</time>
      </trkpt>
      <trkpt lat="44.73256" lon="3.89755">
        <ele>1083</ele>
        <time>2011-06-01T08:01:01Z</time>
      </trkpt>
      <trkpt lat="44.73257" lon="3.89757">
        <ele>1082</ele>
        <time>2011-06-01T08:01:15Z</time>
      </trkpt>
      <trkpt lat="44.73259" lon="3.89756">
        <ele>1081</ele>
        <time>2011-06-01T08:01:30Z</time>
      </trkpt>
      <trkpt lat="44.73259" lon="3.89751">
        <ele>1079</ele>
        <time>2011-06-01T08:01:50Z</time>
      </trkpt>
      <trkpt lat="44.73254" lon="3.8975">
        <ele>1079</ele>
        <time>2011-06-01T08:02:00Z</time>
      </trkpt>
      <trkpt lat="44.73254" lon="3.89752">
        <ele>1079</ele>
        <time>2011-06-01T08:02:10Z</time>
      </trkpt>
      <trkpt lat="44.73256" lon="3.89753">
        <ele>1080</ele>
        <time>2011-06-01T08:02:22Z</time>
      </trkpt>
      <trkpt lat="44.73255" lon="3.8975">
        <ele>1080</ele>
        <time>2011-06-01T08:02:43Z</time>
      </trkpt>
      <trkpt lat="44.73254" lon="3.8975">
        <ele>1080</ele>
        <time>2011-06-01T08:03:17Z</time>
      </trkpt>
      <trkpt lat="44.73256" lon="3.89756">
        <ele>1080</ele>
        <time>2011-06-01T08:03:33Z</time>
      </trkpt>
      <trkpt lat="44.73257" lon="3.89754">
        <ele>1080</ele>
        <time>2011-06-01T08:03:46Z</time>
      </trkpt>
      <trkpt lat="44.73256" lon="3.8975">
        <ele>1077</ele>
        <time>2011-06-01T08:03:59Z</time>
      </trkpt>
      <trkpt lat="44.73253" lon="3.89752">
        <ele>1076</ele>
        <time>2011-06-01T08:04:09Z</time>
      </trkpt>
      <trkpt lat="44.73252" lon="3.89753">
        <ele>1076</ele>
        <time>2011-06-01T08:04:20Z</time>
      </trkpt>
      <trkpt lat="44.73253" lon="3.89752">
        <ele>1076</ele>
        <time>2011-06-01T08:04:30Z</time>
      </trkpt>
      <trkpt lat="44.73252" lon="3.89748">
        <ele>1076</ele>
        <time>2011-06-01T08:04:42Z</time>
      </trkpt>
      <trkpt lat="44.73254" lon="3.8975">
        <ele>1076</ele>
        <time>2011-06-01T08:04:54Z</time>
      </trkpt>
      <trkpt lat="44.73255" lon="3.89755">
        <ele>1076</ele>
        <time>2011-06-01T08:05:04Z</time>
      </trkpt>
      <trkpt lat="44.73258" lon="3.89757">
        <ele>1076</ele>
        <time>2011-06-01T08:05:19Z</time>
      </trkpt>
      <trkpt lat="44.73261" lon="3.89759">
        <ele>1076</ele>
        <time>2011-06-01T08:05:30Z</time>
      </trkpt>
      <trkpt lat="44.73263" lon="3.89759">
        <ele>1078</ele>
        <time>2011-06-01T08:05:42Z</time>
      </trkpt>
      <trkpt lat="44.73261" lon="3.89767">
        <ele>1079</ele>
        <time>2011-06-01T08:05:52Z</time>
      </trkpt>
      <trkpt lat="44.73256" lon="3.89777">
        <ele>1079</ele>
        <time>2011-06-01T08:06:02Z</time>
      </trkpt>
      <trkpt lat="44.73248" lon="3.89786">
        <ele>1079</ele>
        <time>2011-06-01T08:06:12Z</time>
      </trkpt>
      <trkpt lat="44.73236" lon="3.89783">
        <ele>1079</ele>
        <time>2011-06-01T08:06:22Z</time>
      </trkpt>
      <trkpt lat="44.73222" lon="3.89783">
        <ele>1079</ele>
        <time>2011-06-01T08:06:32Z</time>
      </trkpt>
      <trkpt lat="44.73209" lon="3.89781">
        <ele>1079</ele>
        <time>2011-06-01T08:06:42Z</time>
      </trkpt>
      <trkpt lat="44.73197" lon="3.89781">
        <ele>1079</ele>
        <time>2011-06-01T08:06:52Z</time>
      </trkpt>
      <trkpt lat="44.73185" lon="3.89781">
        <ele>1079</ele>
        <time>2011-06-01T08:07:02Z</time>
      </trkpt>
      <trkpt lat="44.73173" lon="3.8978">
        <ele>1079</ele>
        <time>2011-06-01T08:07:12Z</time>
      </trkpt>
      <trkpt lat="44.73161" lon="3.89778">
        <ele>1079</ele>
        <time>2011-06-01T08:07:22Z</time>
      </trkpt>
      <trkpt lat="44.73149" lon="3.89779">
        <ele>1079</ele>
        <time>2011-06-01T08:07:32Z</time>
      </trkpt>
      <trkpt lat="44.73137" lon="3.89777">
        <ele>1079</ele>
        <time>2011-06-01T08:07:42Z</time>
      </trkpt>
      <trkpt lat="44.73125" lon="3.89776">
        <ele>1079</ele>
        <time>2011-06-01T08:07:52Z</time>
      </trkpt>
      <trkpt lat="44.73117" lon="3.89778">
        <ele>1080</ele>
        <time>2011-06-01T08:08:03Z</time>
      </trkpt>
      <trkpt lat="44.73115" lon="3.89779">
        <ele>1084</ele>
        <time>2011-06-01T08:08:14Z</time>
      </trkpt>
      <trkpt lat="44.73105" lon="3.8978">
        <ele>1084</ele>
        <time>2011-06-01T08:08:25Z</time>
      </trkpt>
      <trkpt lat="44.73095" lon="3.89781">
        <ele>1084</ele>
        <time>2011-06-01T08:08:36Z</time>
      </trkpt>
      <trkpt lat="44.73085" lon="3.89782">
        <ele>1084</ele>
        <time>2011-06-01T08:08:46Z</time>
      </trkpt>
      <trkpt lat="44.73074" lon="3.89783">
        <ele>1084</ele>
        <time>2011-06-01T08:08:57Z</time>
      </trkpt>
      <trkpt lat="44.73064" lon="3.89785">
        <ele>1084</ele>
        <time>2011-06-01T08:09:07Z</time>
      </trkpt>
      <trkpt lat="44.73053" lon="3.89789">
        <ele>1084</ele>
        <time>2011-06-01T08:09:17Z</time>
      </trkpt>
      <trkpt lat="44.73042" lon="3.8979">
        <ele>1087</ele>
        <time>2011-06-01T08:09:27Z</time>
      </trkpt>
      <trkpt lat="44.73032" lon="3.89787">
        <ele>1088</ele>
        <time>2011-06-01T08:09:37Z</time>
      </trkpt>
      <trkpt lat="44.73024" lon="3.89778">
        <ele>1088</ele>
        <time>2011-06-01T08:09:48Z</time>
      </trkpt>
      <trkpt lat="44.73029" lon="3.89768">
        <ele>1088</ele>
        <time>2011-06-01T08:09:58Z</time>
      </trkpt>
      <trkpt lat="44.73032" lon="3.89755">
        <ele>1089</ele>
        <time>2011-06-01T08:10:09Z</time>
      </trkpt>
      <trkpt lat="44.73034" lon="3.8974">
        <ele>1093</ele>
        <time>2011-06-01T08:10:19Z</time>
      </trkpt>
      <trkpt lat="44.73029" lon="3.89727">
        <ele>1097</ele>
        <time>2011-06-01T08:10:30Z</time>
      </trkpt>
      <trkpt lat="44.73025" lon="3.89714">
        <ele>1097</ele>
        <time>2011-06-01T08:10:40Z</time>
      </trkpt>
      <trkpt lat="44.73024" lon="3.89704">
        <ele>1097</ele>
        <time>2011-06-01T08:10:56Z</time>
      </trkpt>
      <trkpt lat="44.73024" lon="3.89696">
        <ele>1097</ele>
        <time>2011-06-01T08:11:07Z</time>
      </trkpt>
      <trkpt lat="44.73024" lon="3.89697">
        <ele>1097</ele>
        <time>2011-06-01T08:11:21Z</time>
      </trkpt>
      <trkpt lat="44.73026" lon="3.89712">
        <ele>1097</ele>
        <time>2011-06-01T08:11:31Z</time>
      </trkpt>
      <trkpt lat="44.73027" lon="3.89716">
        <ele>1097</ele>
        <time>2011-06-01T08:11:44Z</time>
      </trkpt>
      <trkpt lat="44.73029" lon="3.89731">
        <ele>1097</ele>
        <time>2011-06-01T08:11:54Z</time>
      </trkpt>
      <trkpt lat="44.73032" lon="3.89746">
        <ele>1097</ele>
        <time>2011-06-01T08:12:04Z</time>
      </trkpt>
      <trkpt lat="44.73036" lon="3.89752">
        <ele>1096</ele>
        <time>2011-06-01T08:12:22Z</time>
      </trkpt>
      <trkpt lat="44.73034" lon="3.89761">
        <ele>1094</ele>
        <time>2011-06-01T08:12:33Z</time>
      </trkpt>
      <trkpt lat="44.73029" lon="3.89768">
        <ele>1094</ele>
        <time>2011-06-01T08:12:43Z</time>
      </trkpt>
      <trkpt lat="44.73021" lon="3.89772">
        <ele>1096</ele>
        <time>2011-06-01T08:12:53Z</time>
      </trkpt>
      <trkpt lat="44.73009" lon="3.89773">
        <ele>1096</ele>
        <time>2011-06-01T08:13:04Z</time>
      </trkpt>
      <trkpt lat="44.72998" lon="3.89775">
        <ele>1096</ele>
        <time>2011-06-01T08:13:14Z</time>
      </trkpt>
      <trkpt lat="44.72988" lon="3.89777">
        <ele>1096</ele>
        <time>2011-06-01T08:13:24Z</time>
      </trkpt>
      <trkpt lat="44.72976" lon="3.8978">
        <ele>1095</ele>
        <time>2011-06-01T08:13:35Z</time>
      </trkpt>
      <trkpt lat="44.72964" lon="3.89789">
        <ele>1095</ele>
        <time>2011-06-01T08:13:45Z</time>
      </trkpt>
      <trkpt lat="44.72953" lon="3.89793">
        <ele>1095</ele>
        <time>2011-06-01T08:13:55Z</time>
      </trkpt>
      <trkpt lat="44.72941" lon="3.89801">
        <ele>1093</ele>
        <time>2011-06-01T08:14:06Z</time>
      </trkpt>
      <trkpt lat="44.72932" lon="3.89809">
        <ele>1089</ele>
        <time>2011-06-01T08:14:16Z</time>
      </trkpt>
      <trkpt lat="44.72922" lon="3.89817">
        <ele>1089</ele>
        <time>2011-06-01T08:14:27Z</time>
      </trkpt>
      <trkpt lat="44.72911" lon="3.89824">
        <ele>1089</ele>
        <time>2011-06-01T08:14:38Z</time>
      </trkpt>
      <trkpt lat="44.729" lon="3.89831">
        <ele>1089</ele>
        <time>2011-06-01T08:14:48Z</time>
      </trkpt>
      <trkpt lat="44.72889" lon="3.89838">
        <ele>1089</ele>
        <time>2011-06-01T08:14:58Z</time>
      </trkpt>
      <trkpt lat="44.72878" lon="3.89842">
        <ele>1089</ele>
        <time>2011-06-01T08:15:08Z</time>
      </trkpt>
      <trkpt lat="44.72867" lon="3.89849">
        <ele>1089</ele>
        <time>2011-06-01T08:15:18Z</time>
      </trkpt>
      <trkpt lat="44.72856" lon="3.89859">
        <ele>1089</ele>
        <time>2011-06-01T08:15:28Z</time>
      </trkpt>
      <trkpt lat="44.72844" lon="3.89869">
        <ele>1089</ele>
        <time>2011-06-01T08:15:38Z</time>
      </trkpt>
      <trkpt lat="44.72832" lon="3.89879">
        <ele>1089</ele>
        <time>2011-06-01T08:15:49Z</time>
      </trkpt>
      <trkpt lat="44.72822" lon="3.8989">
        <ele>1089</ele>
        <time>2011-06-01T08:15:59Z</time>
      </trkpt>
      <trkpt lat="44.7281" lon="3.899">
        <ele>1089</ele>
        <time>2011-06-01T08:16:10Z</time>
      </trkpt>
      <trkpt lat="44.72799" lon="3.89908">
        <ele>1089</ele>
        <time>2011-06-01T08:16:20Z</time>
      </trkpt>
      <trkpt lat="44.72787" lon="3.89915">
        <ele>1089</ele>
        <time>2011-06-01T08:16:30Z</time>
      </trkpt>
      <trkpt lat="44.72775" lon="3.89918">
        <ele>1089</ele>
        <time>2011-06-01T08:16:40Z</time>
      </trkpt>
      <trkpt lat="44.72762" lon="3.89918">
        <ele>1087</ele>
        <time>2011-06-01T08:16:50Z</time>
      </trkpt>
      <trkpt lat="44.72748" lon="3.89917">
        <ele>1086</ele>
        <time>2011-06-01T08:17:01Z</time>
      </trkpt>
      <trkpt lat="44.72736" lon="3.89919">
        <ele>1084</ele>
        <time>2011-06-01T08:17:11Z</time>
      </trkpt>
      <trkpt lat="44.72723" lon="3.89924">
        <ele>1083</ele>
        <time>2011-06-01T08:17:21Z</time>
      </trkpt>
      <trkpt lat="44.7271" lon="3.89931">
        <ele>1082</ele>
        <time>2011-06-01T08:17:31Z</time>
      </trkpt>
      <trkpt lat="44.72698" lon="3.89939">
        <ele>1082</ele>
        <time>2011-06-01T08:17:41Z</time>
      </trkpt>
      <trkpt lat="44.72686" lon="3.89948">
        <ele>1082</ele>
        <time>2011-06-01T08:17:51Z</time>
      </trkpt>
      <trkpt lat="44.72674" lon="3.89956">
        <ele>1082</ele>
        <time>2011-06-01T08:18:01Z</time>
      </trkpt>
      <trkpt lat="44.72662" lon="3.89965">
        <ele>1082</ele>
        <time>2011-06-01T08:18:11Z</time>
      </trkpt>
      <trkpt lat="44.72651" lon="3.89975">
        <ele>1082</ele>
        <time>2011-06-01T08:18:21Z</time>
      </trkpt>
      <trkpt lat="44.72638" lon="3.89983">
        <ele>1080</ele>
        <time>2011-06-01T08:18:31Z</time>
      </trkpt>
      <trkpt lat="44.72626" lon="3.89992">
        <ele>1079</ele>
        <time>2011-06-01T08:18:41Z</time>
      </trkpt>
      <trkpt lat="44.72615" lon="3.9">
        <ele>1079</ele>
        <time>2011-06-01T08:18:51Z</time>
      </trkpt>
      <trkpt lat="44.72603" lon="3.90007">
        <ele>1079</ele>
        <time>2011-06-01T08:19:01Z</time>
      </trkpt>
      <trkpt lat="44.7259" lon="3.90016">
        <ele>1079</ele>
        <time>2011-06-01T08:19:11Z</time>
      </trkpt>
      <trkpt lat="44.72578" lon="3.90022">
        <ele>1079</ele>
        <time>2011-06-01T08:19:21Z</time>
      </trkpt>
      <trkpt lat="44.72564" lon="3.90027">
        <ele>1079</ele>
        <time>2011-06-01T08:19:31Z</time>
      </trkpt>
      <trkpt lat="44.72551" lon="3.90031">
        <ele>1079</ele>
        <time>2011-06-01T08:19:41Z</time>
      </trkpt>
      <trkpt lat="44.72538" lon="3.90032">
        <ele>1078</ele>
        <time>2011-06-01T08:19:51Z</time>
      </trkpt>
      <trkpt lat="44.72525" lon="3.90032">
        <ele>1076</ele>
        <time>2011-06-01T08:20:01Z</time>
      </trkpt>
      <trkpt lat="44.72512" lon="3.90031">
        <ele>1075</ele>
        <time>2011-06-01T08:20:11Z</time>
      </trkpt>
      <trkpt lat="44.72498" lon="3.9003">
        <ele>1074</ele>
        <time>2011-06-01T08:20:21Z</time>
      </trkpt>
      <trkpt lat="44.72485" lon="3.90028">
        <ele>1072</ele>
        <time>2011-06-01T08:20:31Z</time>
      </trkpt>
      <trkpt lat="44.72472" lon="3.90026">
        <ele>1071</ele>
        <time>2011-06-01T08:20:41Z</time>
      </trkpt>
      <trkpt lat="44.72459" lon="3.90026">
        <ele>1070</ele>
        <time>2011-06-01T08:20:51Z</time>
      </trkpt>
      <trkpt lat="44.72446" lon="3.90025">
        <ele>1069</ele>
        <time>2011-06-01T08:21:01Z</time>
      </trkpt>
      <trkpt lat="44.72433" lon="3.90024">
        <ele>1068</ele>
        <time>2011-06-01T08:21:11Z</time>
      </trkpt>
      <trkpt lat="44.72418" lon="3.90023">
        <ele>1068</ele>
        <time>2011-06-01T08:21:21Z</time>
      </trkpt>
      <trkpt lat="44.72404" lon="3.90022">
        <ele>1067</ele>
        <time>2011-06-01T08:21:31Z</time>
      </trkpt>
      <trkpt lat="44.72391" lon="3.9002">
        <ele>1066</ele>
        <time>2011-06-01T08:21:41Z</time>
      </trkpt>
      <trkpt lat="44.72377" lon="3.90018">
        <ele>1065</ele>
        <time>2011-06-01T08:21:51Z</time>
      </trkpt>
      <trkpt lat="44.72365" lon="3.90014">
        <ele>1064</ele>
        <time>2011-06-01T08:22:01Z</time>
      </trkpt>
      <trkpt lat="44.72351" lon="3.9001">
        <ele>1063</ele>
        <time>2011-06-01T08:22:11Z</time>
      </trkpt>
      <trkpt lat="44.72337" lon="3.90009">
        <ele>1063</ele>
        <time>2011-06-01T08:22:21Z</time>
      </trkpt>
      <trkpt lat="44.72323" lon="3.90008">
        <ele>1063</ele>
        <time>2011-06-01T08:22:31Z</time>
      </trkpt>
      <trkpt lat="44.72308" lon="3.90008">
        <ele>1063</ele>
        <time>2011-06-01T08:22:42Z</time>
      </trkpt>
      <trkpt lat="44.72293" lon="3.90008">
        <ele>1063</ele>
        <time>2011-06-01T08:22:52Z</time>
      </trkpt>
      <trkpt lat="44.7228" lon="3.90007">
        <ele>1063</ele>
        <time>2011-06-01T08:23:02Z</time>
      </trkpt>
      <trkpt lat="44.72267" lon="3.90003">
        <ele>1063</ele>
        <time>2011-06-01T08:23:12Z</time>
      </trkpt>
      <trkpt lat="44.72253" lon="3.89999">
        <ele>1063</ele>
        <time>2011-06-01T08:23:22Z</time>
      </trkpt>
      <trkpt lat="44.7224" lon="3.89995">
        <ele>1063</ele>
        <time>2011-06-01T08:23:32Z</time>
      </trkpt>
      <trkpt lat="44.72227" lon="3.8999">
        <ele>1063</ele>
        <time>2011-06-01T08:23:42Z</time>
      </trkpt>
      <trkpt lat="44.72214" lon="3.89986">
        <ele>1063</ele>
        <time>2011-06-01T08:23:52Z</time>
      </trkpt>
      <trkpt lat="44.72201" lon="3.89981">
        <ele>1063</ele>
        <time>2011-06-01T08:24:02Z</time>
      </trkpt>
      <trkpt lat="44.72188" lon="3.89976">
        <ele>1063</ele>
        <time>2011-06-01T08:24:12Z</time>
      </trkpt>
      <trkpt lat="44.72176" lon="3.8997">
        <ele>1062</ele>
        <time>2011-06-01T08:24:22Z</time>
      </trkpt>
      <trkpt lat="44.72163" lon="3.89964">
        <ele>1062</ele>
        <time>2011-06-01T08:24:32Z</time>
      </trkpt>
      <trkpt lat="44.7215" lon="3.89958">
        <ele>1062</ele>
        <time>2011-06-01T08:24:42Z</time>
      </trkpt>
      <trkpt lat="44.72137" lon="3.89954">
        <ele>1062</ele>
        <time>2011-06-01T08:24:52Z</time>
      </trkpt>
      <trkpt lat="44.72124" lon="3.8995">
        <ele>1062</ele>
        <time>2011-06-01T08:25:03Z</time>
      </trkpt>
      <trkpt lat="44.7211" lon="3.89951">
        <ele>1061</ele>
        <time>2011-06-01T08:25:14Z</time>
      </trkpt>
      <trkpt lat="44.72096" lon="3.89952">
        <ele>1061</ele>
        <time>2011-06-01T08:25:24Z</time>
      </trkpt>
      <trkpt lat="44.72082" lon="3.8995">
        <ele>1061</ele>
        <time>2011-06-01T08:25:34Z</time>
      </trkpt>
      <trkpt lat="44.72069" lon="3.89948">
        <ele>1061</ele>
        <time>2011-06-01T08:25:44Z</time>
      </trkpt>
      <trkpt lat="44.72055" lon="3.89947">
        <ele>1061</ele>
        <time>2011-06-01T08:25:54Z</time>
      </trkpt>
      <trkpt lat="44.72041" lon="3.89945">
        <ele>1061</ele>
        <time>2011-06-01T08:26:05Z</time>
      </trkpt>
      <trkpt lat="44.72028" lon="3.89941">
        <ele>1059</ele>
        <time>2011-06-01T08:26:15Z</time>
      </trkpt>
      <trkpt lat="44.72016" lon="3.89938">
        <ele>1055</ele>
        <time>2011-06-01T08:26:25Z</time>
      </trkpt>
      <trkpt lat="44.72001" lon="3.89939">
        <ele>1055</ele>
        <time>2011-06-01T08:26:35Z</time>
      </trkpt>
      <trkpt lat="44.71987" lon="3.89934">
        <ele>1055</ele>
        <time>2011-06-01T08:26:46Z</time>
      </trkpt>
      <trkpt lat="44.71973" lon="3.8993">
        <ele>1055</ele>
        <time>2011-06-01T08:26:57Z</time>
      </trkpt>
      <trkpt lat="44.71961" lon="3.89924">
        <ele>1055</ele>
        <time>2011-06-01T08:27:07Z</time>
      </trkpt>
      <trkpt lat="44.71949" lon="3.89919">
        <ele>1055</ele>
        <time>2011-06-01T08:27:17Z</time>
      </trkpt>
      <trkpt lat="44.71936" lon="3.89915">
        <ele>1055</ele>
        <time>2011-06-01T08:27:27Z</time>
      </trkpt>
      <trkpt lat="44.71923" lon="3.89913">
        <ele>1055</ele>
        <time>2011-06-01T08:27:37Z</time>
      </trkpt>
      <trkpt lat="44.7191" lon="3.8991">
        <ele>1055</ele>
        <time>2011-06-01T08:27:47Z</time>
      </trkpt>
      <trkpt lat="44.71896" lon="3.89907">
        <ele>1055</ele>
        <time>2011-06-01T08:27:58Z</time>
      </trkpt>
      <trkpt lat="44.71882" lon="3.89906">
        <ele>1055</ele>
        <time>2011-06-01T08:28:08Z</time>
      </trkpt>
      <trkpt lat="44.7187" lon="3.89901">
        <ele>1055</ele>
        <time>2011-06-01T08:28:18Z</time>
      </trkpt>
      <trkpt lat="44.71858" lon="3.89896">
        <ele>1055</ele>
        <time>2011-06-01T08:28:28Z</time>
      </trkpt>
      <trkpt lat="44.71846" lon="3.8989">
        <ele>1055</ele>
        <time>2011-06-01T08:28:38Z</time>
      </trkpt>
      <trkpt lat="44.71832" lon="3.89883">
        <ele>1055</ele>
        <time>2011-06-01T08:28:49Z</time>
      </trkpt>
      <trkpt lat="44.71819" lon="3.89876">
        <ele>1055</ele>
        <time>2011-06-01T08:29:00Z</time>
      </trkpt>
      <trkpt lat="44.71807" lon="3.89867">
        <ele>1054</ele>
        <time>2011-06-01T08:29:10Z</time>
      </trkpt>
      <trkpt lat="44.71795" lon="3.89859">
        <ele>1053</ele>
        <time>2011-06-01T08:29:21Z</time>
      </trkpt>
      <trkpt lat="44.71783" lon="3.89849">
        <ele>1053</ele>
        <time>2011-06-01T08:29:32Z</time>
      </trkpt>
      <trkpt lat="44.71772" lon="3.89839">
        <ele>1053</ele>
        <time>2011-06-01T08:29:42Z</time>
      </trkpt>
      <trkpt lat="44.71759" lon="3.89829">
        <ele>1052</ele>
        <time>2011-06-01T08:29:53Z</time>
      </trkpt>
      <trkpt lat="44.71746" lon="3.8982">
        <ele>1051</ele>
        <time>2011-06-01T08:30:04Z</time>
      </trkpt>
      <trkpt lat="44.71737" lon="3.89813">
        <ele>1051</ele>
        <time>2011-06-01T08:30:14Z</time>
      </trkpt>
      <trkpt lat="44.71725" lon="3.8981">
        <ele>1051</ele>
        <time>2011-06-01T08:30:24Z</time>
      </trkpt>
      <trkpt lat="44.71713" lon="3.89804">
        <ele>1051</ele>
        <time>2011-06-01T08:30:35Z</time>
      </trkpt>
      <trkpt lat="44.717" lon="3.898">
        <ele>1051</ele>
        <time>2011-06-01T08:30:45Z</time>
      </trkpt>
      <trkpt lat="44.7169" lon="3.89797">
        <ele>1051</ele>
        <time>2011-06-01T08:30:55Z</time>
      </trkpt>
      <trkpt lat="44.71676" lon="3.89795">
        <ele>1051</ele>
        <time>2011-06-01T08:31:05Z</time>
      </trkpt>
      <trkpt lat="44.71663" lon="3.89789">
        <ele>1051</ele>
        <time>2011-06-01T08:31:16Z</time>
      </trkpt>
      <trkpt lat="44.71651" lon="3.89783">
        <ele>1051</ele>
        <time>2011-06-01T08:31:26Z</time>
      </trkpt>
      <trkpt lat="44.7164" lon="3.89776">
        <ele>1049</ele>
        <time>2011-06-01T08:31:36Z</time>
      </trkpt>
      <trkpt lat="44.71629" lon="3.89771">
        <ele>1048</ele>
        <time>2011-06-01T08:31:46Z</time>
      </trkpt>
      <trkpt lat="44.71616" lon="3.89765">
        <ele>1047</ele>
        <time>2011-06-01T08:31:56Z</time>
      </trkpt>
      <trkpt lat="44.71603" lon="3.89757">
        <ele>1046</ele>
        <time>2011-06-01T08:32:07Z</time>
      </trkpt>
      <trkpt lat="44.71591" lon="3.89749">
        <ele>1046</ele>
        <time>2011-06-01T08:32:17Z</time>
      </trkpt>
      <trkpt lat="44.71582" lon="3.89735">
        <ele>1046</ele>
        <time>2011-06-01T08:32:27Z</time>
      </trkpt>
      <trkpt lat="44.71574" lon="3.89721">
        <ele>1043</ele>
        <time>2011-06-01T08:32:37Z</time>
      </trkpt>
      <trkpt lat="44.71568" lon="3.89702">
        <ele>1040</ele>
        <time>2011-06-01T08:32:48Z</time>
      </trkpt>
      <trkpt lat="44.71563" lon="3.89688">
        <ele>1038</ele>
        <time>2011-06-01T08:32:58Z</time>
      </trkpt>
      <trkpt lat="44.71558" lon="3.89672">
        <ele>1037</ele>
        <time>2011-06-01T08:33:08Z</time>
      </trkpt>
      <trkpt lat="44.71553" lon="3.89659">
        <ele>1037</ele>
        <time>2011-06-01T08:33:18Z</time>
      </trkpt>
      <trkpt lat="44.71547" lon="3.89644">
        <ele>1037</ele>
        <time>2011-06-01T08:33:28Z</time>
      </trkpt>
      <trkpt lat="44.7154" lon="3.89635">
        <ele>1036</ele>
        <time>2011-06-01T08:33:39Z</time>
      </trkpt>
      <trkpt lat="44.71529" lon="3.89625">
        <ele>1036</ele>
        <time>2011-06-01T08:33:49Z</time>
      </trkpt>
      <trkpt lat="44.71518" lon="3.8962">
        <ele>1035</ele>
        <time>2011-06-01T08:34:00Z</time>
      </trkpt>
      <trkpt lat="44.71506" lon="3.89617">
        <ele>1033</ele>
        <time>2011-06-01T08:34:10Z</time>
      </trkpt>
      <trkpt lat="44.71494" lon="3.89614">
        <ele>1031</ele>
        <time>2011-06-01T08:34:20Z</time>
      </trkpt>
      <trkpt lat="44.71483" lon="3.8961">
        <ele>1029</ele>
        <time>2011-06-01T08:34:30Z</time>
      </trkpt>
      <trkpt lat="44.71471" lon="3.89605">
        <ele>1028</ele>
        <time>2011-06-01T08:34:40Z</time>
      </trkpt>
      <trkpt lat="44.71459" lon="3.89601">
        <ele>1028</ele>
        <time>2011-06-01T08:34:50Z</time>
      </trkpt>
      <trkpt lat="44.71447" lon="3.89597">
        <ele>1027</ele>
        <time>2011-06-01T08:35:00Z</time>
      </trkpt>
      <trkpt lat="44.71434" lon="3.89594">
        <ele>1027</ele>
        <time>2011-06-01T08:35:10Z</time>
      </trkpt>
      <trkpt lat="44.71422" lon="3.89592">
        <ele>1027</ele>
        <time>2011-06-01T08:35:20Z</time>
      </trkpt>
      <trkpt lat="44.7141" lon="3.89588">
        <ele>1027</ele>
        <time>2011-06-01T08:35:30Z</time>
      </trkpt>
      <trkpt lat="44.71398" lon="3.89586">
        <ele>1027</ele>
        <time>2011-06-01T08:35:40Z</time>
      </trkpt>
      <trkpt lat="44.71386" lon="3.89584">
        <ele>1027</ele>
        <time>2011-06-01T08:35:50Z</time>
      </trkpt>
      <trkpt lat="44.71373" lon="3.89583">
        <ele>1025</ele>
        <time>2011-06-01T08:36:01Z</time>
      </trkpt>
      <trkpt lat="44.71361" lon="3.89581">
        <ele>1024</ele>
        <time>2011-06-01T08:36:11Z</time>
      </trkpt>
      <trkpt lat="44.71349" lon="3.89578">
        <ele>1024</ele>
        <time>2011-06-01T08:36:21Z</time>
      </trkpt>
      <trkpt lat="44.71337" lon="3.89576">
        <ele>1024</ele>
        <time>2011-06-01T08:36:31Z</time>
      </trkpt>
      <trkpt lat="44.71324" lon="3.89577">
        <ele>1024</ele>
        <time>2011-06-01T08:36:41Z</time>
      </trkpt>
      <trkpt lat="44.71312" lon="3.89579">
        <ele>1024</ele>
        <time>2011-06-01T08:36:51Z</time>
      </trkpt>
      <trkpt lat="44.71299" lon="3.89576">
        <ele>1024</ele>
        <time>2011-06-01T08:37:01Z</time>
      </trkpt>
      <trkpt lat="44.71285" lon="3.89571">
        <ele>1024</ele>
        <time>2011-06-01T08:37:12Z</time>
      </trkpt>
      <trkpt lat="44.71271" lon="3.89569">
        <ele>1024</ele>
        <time>2011-06-01T08:37:23Z</time>
      </trkpt>
      <trkpt lat="44.7126" lon="3.89563">
        <ele>1024</ele>
        <time>2011-06-01T08:37:33Z</time>
      </trkpt>
      <trkpt lat="44.71248" lon="3.89556">
        <ele>1024</ele>
        <time>2011-06-01T08:37:43Z</time>
      </trkpt>
      <trkpt lat="44.71237" lon="3.89549">
        <ele>1024</ele>
        <time>2011-06-01T08:37:53Z</time>
      </trkpt>
      <trkpt lat="44.71228" lon="3.89543">
        <ele>1024</ele>
        <time>2011-06-01T08:38:03Z</time>
      </trkpt>
      <trkpt lat="44.71218" lon="3.89535">
        <ele>1024</ele>
        <time>2011-06-01T08:38:13Z</time>
      </trkpt>
      <trkpt lat="44.71206" lon="3.89527">
        <ele>1024</ele>
        <time>2011-06-01T08:38:23Z</time>
      </trkpt>
      <trkpt lat="44.71201" lon="3.89525">
        <ele>1026</ele>
        <time>2011-06-01T08:38:48Z</time>
      </trkpt>
      <trkpt lat="44.71196" lon="3.89533">
        <ele>1027</ele>
        <time>2011-06-01T08:38:59Z</time>
      </trkpt>
      <trkpt lat="44.71191" lon="3.89544">
        <ele>1028</ele>
        <time>2011-06-01T08:39:10Z</time>
      </trkpt>
      <trkpt lat="44.7119" lon="3.89547">
        <ele>1028</ele>
        <time>2011-06-01T08:39:44Z</time>
      </trkpt>
      <trkpt lat="44.7119" lon="3.89549">
        <ele>1028</ele>
        <time>2011-06-01T08:39:57Z</time>
      </trkpt>
      <trkpt lat="44.71186" lon="3.89565">
        <ele>1028</ele>
        <time>2011-06-01T08:40:08Z</time>
      </trkpt>
      <trkpt lat="44.71182" lon="3.89579">
        <ele>1028</ele>
        <time>2011-06-01T08:40:18Z</time>
      </trkpt>
      <trkpt lat="44.71181" lon="3.89592">
        <ele>1028</ele>
        <time>2011-06-01T08:40:28Z</time>
      </trkpt>
      <trkpt lat="44.71189" lon="3.89606">
        <ele>1027</ele>
        <time>2011-06-01T08:40:39Z</time>
      </trkpt>
      <trkpt lat="44.71194" lon="3.89618">
        <ele>1025</ele>
        <time>2011-06-01T08:40:49Z</time>
      </trkpt>
      <trkpt lat="44.71199" lon="3.89633">
        <ele>1023</ele>
        <time>2011-06-01T08:41:00Z</time>
      </trkpt>
      <trkpt lat="44.71202" lon="3.89647">
        <ele>1022</ele>
        <time>2011-06-01T08:41:11Z</time>
      </trkpt>
      <trkpt lat="44.71209" lon="3.89656">
        <ele>1020</ele>
        <time>2011-06-01T08:41:21Z</time>
      </trkpt>
      <trkpt lat="44.71217" lon="3.89658">
        <ele>1019</ele>
        <time>2011-06-01T08:41:31Z</time>
      </trkpt>
      <trkpt lat="44.71226" lon="3.89658">
        <ele>1018</ele>
        <time>2011-06-01T08:41:42Z</time>
      </trkpt>
      <trkpt lat="44.71237" lon="3.8966">
        <ele>1016</ele>
        <time>2011-06-01T08:41:52Z</time>
      </trkpt>
      <trkpt lat="44.71246" lon="3.89661">
        <ele>1016</ele>
        <time>2011-06-01T08:42:02Z</time>
      </trkpt>
      <trkpt lat="44.71259" lon="3.89665">
        <ele>1016</ele>
        <time>2011-06-01T08:42:12Z</time>
      </trkpt>
      <trkpt lat="44.71268" lon="3.89667">
        <ele>1015</ele>
        <time>2011-06-01T08:42:22Z</time>
      </trkpt>
      <trkpt lat="44.7128" lon="3.8967">
        <ele>1015</ele>
        <time>2011-06-01T08:42:33Z</time>
      </trkpt>
      <trkpt lat="44.71288" lon="3.89673">
        <ele>1015</ele>
        <time>2011-06-01T08:42:43Z</time>
      </trkpt>
      <trkpt lat="44.71299" lon="3.89678">
        <ele>1014</ele>
        <time>2011-06-01T08:42:53Z</time>
      </trkpt>
      <trkpt lat="44.7131" lon="3.89684">
        <ele>1009</ele>
        <time>2011-06-01T08:43:05Z</time>
      </trkpt>
      <trkpt lat="44.71324" lon="3.89688">
        <ele>1009</ele>
        <time>2011-06-01T08:43:16Z</time>
      </trkpt>
      <trkpt lat="44.71333" lon="3.89695">
        <ele>1009</ele>
        <time>2011-06-01T08:43:27Z</time>
      </trkpt>
      <trkpt lat="44.71342" lon="3.89701">
        <ele>1006</ele>
        <time>2011-06-01T08:43:37Z</time>
      </trkpt>
      <trkpt lat="44.71351" lon="3.897">
        <ele>1004</ele>
        <time>2011-06-01T08:43:47Z</time>
      </trkpt>
      <trkpt lat="44.7136" lon="3.89702">
        <ele>1003</ele>
        <time>2011-06-01T08:43:57Z</time>
      </trkpt>
      <trkpt lat="44.71371" lon="3.8971">
        <ele>1003</ele>
        <time>2011-06-01T08:44:08Z</time>
      </trkpt>
      <trkpt lat="44.71378" lon="3.89718">
        <ele>1003</ele>
        <time>2011-06-01T08:44:18Z</time>
      </trkpt>
      <trkpt lat="44.71387" lon="3.8973">
        <ele>1003</ele>
        <time>2011-06-01T08:44:28Z</time>
      </trkpt>
      <trkpt lat="44.71395" lon="3.8974">
        <ele>1003</ele>
        <time>2011-06-01T08:44:38Z</time>
      </trkpt>
      <trkpt lat="44.71403" lon="3.89752">
        <ele>1002</ele>
        <time>2011-06-01T08:44:48Z</time>
      </trkpt>
      <trkpt lat="44.7141" lon="3.89764">
        <ele>999</ele>
        <time>2011-06-01T08:44:58Z</time>
      </trkpt>
      <trkpt lat="44.71418" lon="3.89776">
        <ele>998</ele>
        <time>2011-06-01T08:45:08Z</time>
      </trkpt>
      <trkpt lat="44.71424" lon="3.89792">
        <ele>997</ele>
        <time>2011-06-01T08:45:19Z</time>
      </trkpt>
      <trkpt lat="44.71431" lon="3.89808">
        <ele>996</ele>
        <time>2011-06-01T08:45:30Z</time>
      </trkpt>
      <trkpt lat="44.71438" lon="3.89823">
        <ele>996</ele>
        <time>2011-06-01T08:45:41Z</time>
      </trkpt>
      <trkpt lat="44.71446" lon="3.89834">
        <ele>994</ele>
        <time>2011-06-01T08:45:51Z</time>
      </trkpt>
      <trkpt lat="44.71456" lon="3.89847">
        <ele>993</ele>
        <time>2011-06-01T08:46:02Z</time>
      </trkpt>
      <trkpt lat="44.71466" lon="3.89857">
        <ele>992</ele>
        <time>2011-06-01T08:46:12Z</time>
      </trkpt>
      <trkpt lat="44.71476" lon="3.89868">
        <ele>990</ele>
        <time>2011-06-01T08:46:22Z</time>
      </trkpt>
      <trkpt lat="44.71486" lon="3.89878">
        <ele>989</ele>
        <time>2011-06-01T08:46:32Z</time>
      </trkpt>
      <trkpt lat="44.71493" lon="3.8989">
        <ele>989</ele>
        <time>2011-06-01T08:46:42Z</time>
      </trkpt>
      <trkpt lat="44.71494" lon="3.89906">
        <ele>987</ele>
        <time>2011-06-01T08:46:52Z</time>
      </trkpt>
      <trkpt lat="44.71481" lon="3.89905">
        <ele>984</ele>
        <time>2011-06-01T08:47:03Z</time>
      </trkpt>
      <trkpt lat="44.7147" lon="3.89893">
        <ele>983</ele>
        <time>2011-06-01T08:47:14Z</time>
      </trkpt>
      <trkpt lat="44.71458" lon="3.89882">
        <ele>982</ele>
        <time>2011-06-01T08:47:25Z</time>
      </trkpt>
      <trkpt lat="44.71446" lon="3.89881">
        <ele>981</ele>
        <time>2011-06-01T08:47:36Z</time>
      </trkpt>
      <trkpt lat="44.71437" lon="3.89895">
        <ele>981</ele>
        <time>2011-06-01T08:47:46Z</time>
      </trkpt>
      <trkpt lat="44.71431" lon="3.89911">
        <ele>980</ele>
        <time>2011-06-01T08:47:57Z</time>
      </trkpt>
      <trkpt lat="44.71425" lon="3.89926">
        <ele>980</ele>
        <time>2011-06-01T08:48:07Z</time>
      </trkpt>
      <trkpt lat="44.71422" lon="3.89943">
        <ele>980</ele>
        <time>2011-06-01T08:48:17Z</time>
      </trkpt>
      <trkpt lat="44.7142" lon="3.8996">
        <ele>980</ele>
        <time>2011-06-01T08:48:28Z</time>
      </trkpt>
      <trkpt lat="44.71416" lon="3.89976">
        <ele>980</ele>
        <time>2011-06-01T08:48:38Z</time>
      </trkpt>
      <trkpt lat="44.71409" lon="3.89993">
        <ele>980</ele>
        <time>2011-06-01T08:48:48Z</time>
      </trkpt>
      <trkpt lat="44.71401" lon="3.90006">
        <ele>980</ele>
        <time>2011-06-01T08:48:59Z</time>
      </trkpt>
      <trkpt lat="44.71393" lon="3.90018">
        <ele>980</ele>
        <time>2011-06-01T08:49:09Z</time>
      </trkpt>
      <trkpt lat="44.71384" lon="3.90024">
        <ele>980</ele>
        <time>2011-06-01T08:49:19Z</time>
      </trkpt>
      <trkpt lat="44.71373" lon="3.90031">
        <ele>980</ele>
        <time>2011-06-01T08:49:29Z</time>
      </trkpt>
      <trkpt lat="44.71363" lon="3.90038">
        <ele>980</ele>
        <time>2011-06-01T08:49:39Z</time>
      </trkpt>
      <trkpt lat="44.71352" lon="3.90045">
        <ele>980</ele>
        <time>2011-06-01T08:49:50Z</time>
      </trkpt>
      <trkpt lat="44.71342" lon="3.90045">
        <ele>980</ele>
        <time>2011-06-01T08:50:00Z</time>
      </trkpt>
      <trkpt lat="44.71333" lon="3.90049">
        <ele>986</ele>
        <time>2011-06-01T08:50:10Z</time>
      </trkpt>
      <trkpt lat="44.71321" lon="3.90058">
        <ele>986</ele>
        <time>2011-06-01T08:50:20Z</time>
      </trkpt>
      <trkpt lat="44.71318" lon="3.90065">
        <ele>986</ele>
        <time>2011-06-01T08:50:32Z</time>
      </trkpt>
      <trkpt lat="44.71313" lon="3.90072">
        <ele>986</ele>
        <time>2011-06-01T08:50:43Z</time>
      </trkpt>
      <trkpt lat="44.7131" lon="3.9008">
        <ele>986</ele>
        <time>2011-06-01T08:50:53Z</time>
      </trkpt>
      <trkpt lat="44.71315" lon="3.90085">
        <ele>990</ele>
        <time>2011-06-01T08:51:04Z</time>
      </trkpt>
      <trkpt lat="44.7132" lon="3.90091">
        <ele>992</ele>
        <time>2011-06-01T08:51:17Z</time>
      </trkpt>
      <trkpt lat="44.7132" lon="3.90097">
        <ele>996</ele>
        <time>2011-06-01T08:51:27Z</time>
      </trkpt>
      <trkpt lat="44.71317" lon="3.90105">
        <ele>997</ele>
        <time>2011-06-01T08:51:37Z</time>
      </trkpt>
      <trkpt lat="44.71307" lon="3.90111">
        <ele>999</ele>
        <time>2011-06-01T08:51:48Z</time>
      </trkpt>
      <trkpt lat="44.71304" lon="3.90121">
        <ele>1001</ele>
        <time>2011-06-01T08:51:59Z</time>
      </trkpt>
      <trkpt lat="44.713" lon="3.90129">
        <ele>1001</ele>
        <time>2011-06-01T08:52:09Z</time>
      </trkpt>
      <trkpt lat="44.71293" lon="3.90139">
        <ele>1001</ele>
        <time>2011-06-01T08:52:21Z</time>
      </trkpt>
      <trkpt lat="44.7129" lon="3.9015">
        <ele>1001</ele>
        <time>2011-06-01T08:52:31Z</time>
      </trkpt>
      <trkpt lat="44.71289" lon="3.90164">
        <ele>1001</ele>
        <time>2011-06-01T08:52:42Z</time>
      </trkpt>
      <trkpt lat="44.71286" lon="3.90174">
        <ele>1002</ele>
        <time>2011-06-01T08:52:53Z</time>
      </trkpt>
      <trkpt lat="44.71282" lon="3.90185">
        <ele>1002</ele>
        <time>2011-06-01T08:53:04Z</time>
      </trkpt>
      <trkpt lat="44.7128" lon="3.90196">
        <ele>1006</ele>
        <time>2011-06-01T08:53:15Z</time>
      </trkpt>
      <trkpt lat="44.71276" lon="3.9021">
        <ele>1009</ele>
        <time>2011-06-01T08:53:27Z</time>
      </trkpt>
      <trkpt lat="44.71276" lon="3.90219">
        <ele>1009</ele>
        <time>2011-06-01T08:53:37Z</time>
      </trkpt>
      <trkpt lat="44.71273" lon="3.9023">
        <ele>1010</ele>
        <time>2011-06-01T08:53:48Z</time>
      </trkpt>
      <trkpt lat="44.7127" lon="3.90242">
        <ele>1014</ele>
        <time>2011-06-01T08:53:59Z</time>
      </trkpt>
      <trkpt lat="44.71265" lon="3.90254">
        <ele>1015</ele>
        <time>2011-06-01T08:54:10Z</time>
      </trkpt>
      <trkpt lat="44.7126" lon="3.90263">
        <ele>1015</ele>
        <time>2011-06-01T08:54:21Z</time>
      </trkpt>
      <trkpt lat="44.71252" lon="3.90278">
        <ele>1015</ele>
        <time>2011-06-01T08:54:32Z</time>
      </trkpt>
      <trkpt lat="44.71247" lon="3.90284">
        <ele>1016</ele>
        <time>2011-06-01T08:54:42Z</time>
      </trkpt>
      <trkpt lat="44.71242" lon="3.90292">
        <ele>1017</ele>
        <time>2011-06-01T08:54:53Z</time>
      </trkpt>
      <trkpt lat="44.71236" lon="3.90303">
        <ele>1020</ele>
        <time>2011-06-01T08:55:04Z</time>
      </trkpt>
      <trkpt lat="44.7123" lon="3.90315">
        <ele>1022</ele>
        <time>2011-06-01T08:55:15Z</time>
      </trkpt>
      <trkpt lat="44.71225" lon="3.90326">
        <ele>1025</ele>
        <time>2011-06-01T08:55:25Z</time>
      </trkpt>
      <trkpt lat="44.71222" lon="3.90338">
        <ele>1027</ele>
        <time>2011-06-01T08:55:35Z</time>
      </trkpt>
      <trkpt lat="44.71218" lon="3.90349">
        <ele>1029</ele>
        <time>2011-06-01T08:55:46Z</time>
      </trkpt>
      <trkpt lat="44.71215" lon="3.90359">
        <ele>1030</ele>
        <time>2011-06-01T08:55:57Z</time>
      </trkpt>
      <trkpt lat="44.71211" lon="3.90372">
        <ele>1030</ele>
        <time>2011-06-01T08:56:07Z</time>
      </trkpt>
      <trkpt lat="44.7121" lon="3.90382">
        <ele>1035</ele>
        <time>2011-06-01T08:56:17Z</time>
      </trkpt>
      <trkpt lat="44.71212" lon="3.90393">
        <ele>1038</ele>
        <time>2011-06-01T08:56:27Z</time>
      </trkpt>
      <trkpt lat="44.71215" lon="3.90408">
        <ele>1038</ele>
        <time>2011-06-01T08:56:38Z</time>
      </trkpt>
      <trkpt lat="44.71218" lon="3.90422">
        <ele>1038</ele>
        <time>2011-06-01T08:56:49Z</time>
      </trkpt>
      <trkpt lat="44.7122" lon="3.90435">
        <ele>1038</ele>
        <time>2011-06-01T08:56:59Z</time>
      </trkpt>
      <trkpt lat="44.7122" lon="3.90449">
        <ele>1039</ele>
        <time>2011-06-01T08:57:09Z</time>
      </trkpt>
      <trkpt lat="44.71222" lon="3.90461">
        <ele>1043</ele>
        <time>2011-06-01T08:57:19Z</time>
      </trkpt>
      <trkpt lat="44.71224" lon="3.90454">
        <ele>1043</ele>
        <time>2011-06-01T08:57:29Z</time>
      </trkpt>
      <trkpt lat="44.7123" lon="3.90442">
        <ele>1043</ele>
        <time>2011-06-01T08:57:40Z</time>
      </trkpt>
      <trkpt lat="44.71231" lon="3.90454">
        <ele>1043</ele>
        <time>2011-06-01T08:57:50Z</time>
      </trkpt>
      <trkpt lat="44.71239" lon="3.90462">
        <ele>1041</ele>
        <time>2011-06-01T08:58:01Z</time>
      </trkpt>
      <trkpt lat="44.71241" lon="3.90462">
        <ele>1041</ele>
        <time>2011-06-01T08:58:12Z</time>
      </trkpt>
      <trkpt lat="44.71243" lon="3.90462">
        <ele>1041</ele>
        <time>2011-06-01T08:58:23Z</time>
      </trkpt>
      <trkpt lat="44.71243" lon="3.90464">
        <ele>1041</ele>
        <time>2011-06-01T08:58:36Z</time>
      </trkpt>
      <trkpt lat="44.71241" lon="3.90468">
        <ele>1041</ele>
        <time>2011-06-01T08:58:48Z</time>
      </trkpt>
      <trkpt lat="44.71233" lon="3.90464">
        <ele>1050</ele>
        <time>2011-06-01T08:58:59Z</time>
      </trkpt>
      <trkpt lat="44.71233" lon="3.90462">
        <ele>1064</ele>
        <time>2011-06-01T08:59:20Z</time>
      </trkpt>
      <trkpt lat="44.71233" lon="3.90463">
        <ele>1065</ele>
        <time>2011-06-01T08:59:30Z</time>
      </trkpt>
      <trkpt lat="44.71233" lon="3.90459">
        <ele>1066</ele>
        <time>2011-06-01T08:59:40Z</time>
      </trkpt>
      <trkpt lat="44.71238" lon="3.90455">
        <ele>1067</ele>
        <time>2011-06-01T08:59:50Z</time>
      </trkpt>
      <trkpt lat="44.71239" lon="3.90454">
        <ele>1065</ele>
        <time>2011-06-01T09:00:01Z</time>
      </trkpt>
      <trkpt lat="44.71241" lon="3.90457">
        <ele>1059</ele>
        <time>2011-06-01T09:00:14Z</time>
      </trkpt>
      <trkpt lat="44.71243" lon="3.90458">
        <ele>1056</ele>
        <time>2011-06-01T09:00:26Z</time>
      </trkpt>
      <trkpt lat="44.7124" lon="3.90457">
        <ele>1056</ele>
        <time>2011-06-01T09:00:37Z</time>
      </trkpt>
      <trkpt lat="44.71239" lon="3.90455">
        <ele>1056</ele>
        <time>2011-06-01T09:00:48Z</time>
      </trkpt>
      <trkpt lat="44.7124" lon="3.90453">
        <ele>1056</ele>
        <time>2011-06-01T09:01:15Z</time>
      </trkpt>
      <trkpt lat="44.71239" lon="3.90452">
        <ele>1056</ele>
        <time>2011-06-01T09:01:45Z</time>
      </trkpt>
      <trkpt lat="44.7124" lon="3.90452">
        <ele>1056</ele>
        <time>2011-06-01T09:02:00Z</time>
      </trkpt>
      <trkpt lat="44.71242" lon="3.90454">
        <ele>1056</ele>
        <time>2011-06-01T09:02:12Z</time>
      </trkpt>
      <trkpt lat="44.71243" lon="3.90457">
        <ele>1054</ele>
        <time>2011-06-01T09:02:28Z</time>
      </trkpt>
      <trkpt lat="44.71244" lon="3.9046">
        <ele>1049</ele>
        <time>2011-06-01T09:02:49Z</time>
      </trkpt>
      <trkpt lat="44.71243" lon="3.90461">
        <ele>1047</ele>
        <time>2011-06-01T09:03:46Z</time>
      </trkpt>
      <trkpt lat="44.71242" lon="3.9046">
        <ele>1047</ele>
        <time>2011-06-01T09:04:26Z</time>
      </trkpt>
      <trkpt lat="44.71241" lon="3.90459">
        <ele>1047</ele>
        <time>2011-06-01T09:05:14Z</time>
      </trkpt>
      <trkpt lat="44.71243" lon="3.90459">
        <ele>1047</ele>
        <time>2011-06-01T09:05:37Z</time>
      </trkpt>
      <trkpt lat="44.71241" lon="3.90458">
        <ele>1047</ele>
        <time>2011-06-01T09:05:49Z</time>
      </trkpt>
      <trkpt lat="44.71239" lon="3.90457">
        <ele>1047</ele>
        <time>2011-06-01T09:06:12Z</time>
      </trkpt>
      <trkpt lat="44.71238" lon="3.90459">
        <ele>1047</ele>
        <time>2011-06-01T09:06:22Z</time>
      </trkpt>
      <trkpt lat="44.71239" lon="3.90458">
        <ele>1047</ele>
        <time>2011-06-01T09:07:05Z</time>
      </trkpt>
      <trkpt lat="44.71239" lon="3.90457">
        <ele>1047</ele>
        <time>2011-06-01T09:07:38Z</time>
      </trkpt>
      <trkpt lat="44.71239" lon="3.90458">
        <ele>1049</ele>
        <time>2011-06-01T09:08:46Z</time>
      </trkpt>
      <trkpt lat="44.71236" lon="3.90456">
        <ele>1049</ele>
        <time>2011-06-01T09:09:10Z</time>
      </trkpt>
      <trkpt lat="44.71228" lon="3.9046">
        <ele>1049</ele>
        <time>2011-06-01T09:09:20Z</time>
      </trkpt>
      <trkpt lat="44.71221" lon="3.90466">
        <ele>1049</ele>
        <time>2011-06-01T09:09:30Z</time>
      </trkpt>
      <trkpt lat="44.71212" lon="3.90473">
        <ele>1049</ele>
        <time>2011-06-01T09:09:40Z</time>
      </trkpt>
      <trkpt lat="44.712" lon="3.90484">
        <ele>1049</ele>
        <time>2011-06-01T09:09:50Z</time>
      </trkpt>
      <trkpt lat="44.71189" lon="3.90495">
        <ele>1048</ele>
        <time>2011-06-01T09:10:00Z</time>
      </trkpt>
      <trkpt lat="44.71177" lon="3.90504">
        <ele>1048</ele>
        <time>2011-06-01T09:10:11Z</time>
      </trkpt>
      <trkpt lat="44.71167" lon="3.90511">
        <ele>1047</ele>
        <time>2011-06-01T09:10:21Z</time>
      </trkpt>
      <trkpt lat="44.71154" lon="3.90517">
        <ele>1047</ele>
        <time>2011-06-01T09:10:32Z</time>
      </trkpt>
      <trkpt lat="44.71142" lon="3.90526">
        <ele>1047</ele>
        <time>2011-06-01T09:10:43Z</time>
      </trkpt>
      <trkpt lat="44.7113" lon="3.9053">
        <ele>1047</ele>
        <time>2011-06-01T09:10:53Z</time>
      </trkpt>
      <trkpt lat="44.71118" lon="3.90531">
        <ele>1047</ele>
        <time>2011-06-01T09:11:03Z</time>
      </trkpt>
      <trkpt lat="44.71105" lon="3.90528">
        <ele>1047</ele>
        <time>2011-06-01T09:11:13Z</time>
      </trkpt>
      <trkpt lat="44.71094" lon="3.90526">
        <ele>1047</ele>
        <time>2011-06-01T09:11:23Z</time>
      </trkpt>
      <trkpt lat="44.7108" lon="3.90525">
        <ele>1047</ele>
        <time>2011-06-01T09:11:33Z</time>
      </trkpt>
      <trkpt lat="44.71067" lon="3.90525">
        <ele>1047</ele>
        <time>2011-06-01T09:11:44Z</time>
      </trkpt>
      <trkpt lat="44.71055" lon="3.90526">
        <ele>1047</ele>
        <time>2011-06-01T09:11:54Z</time>
      </trkpt>
      <trkpt lat="44.71044" lon="3.90529">
        <ele>1047</ele>
        <time>2011-06-01T09:12:04Z</time>
      </trkpt>
      <trkpt lat="44.71031" lon="3.90534">
        <ele>1047</ele>
        <time>2011-06-01T09:12:14Z</time>
      </trkpt>
      <trkpt lat="44.71019" lon="3.90538">
        <ele>1047</ele>
        <time>2011-06-01T09:12:24Z</time>
      </trkpt>
      <trkpt lat="44.71008" lon="3.90545">
        <ele>1047</ele>
        <time>2011-06-01T09:12:35Z</time>
      </trkpt>
      <trkpt lat="44.71001" lon="3.90556">
        <ele>1047</ele>
        <time>2011-06-01T09:12:46Z</time>
      </trkpt>
      <trkpt lat="44.70992" lon="3.90562">
        <ele>1048</ele>
        <time>2011-06-01T09:12:56Z</time>
      </trkpt>
      <trkpt lat="44.70981" lon="3.90567">
        <ele>1048</ele>
        <time>2011-06-01T09:13:07Z</time>
      </trkpt>
      <trkpt lat="44.70971" lon="3.90569">
        <ele>1050</ele>
        <time>2011-06-01T09:13:17Z</time>
      </trkpt>
      <trkpt lat="44.70963" lon="3.90574">
        <ele>1051</ele>
        <time>2011-06-01T09:13:27Z</time>
      </trkpt>
      <trkpt lat="44.70954" lon="3.90575">
        <ele>1054</ele>
        <time>2011-06-01T09:13:37Z</time>
      </trkpt>
      <trkpt lat="44.70944" lon="3.90579">
        <ele>1055</ele>
        <time>2011-06-01T09:13:47Z</time>
      </trkpt>
      <trkpt lat="44.70936" lon="3.90582">
        <ele>1057</ele>
        <time>2011-06-01T09:13:57Z</time>
      </trkpt>
      <trkpt lat="44.70926" lon="3.90588">
        <ele>1059</ele>
        <time>2011-06-01T09:14:08Z</time>
      </trkpt>
      <trkpt lat="44.70914" lon="3.90593">
        <ele>1060</ele>
        <time>2011-06-01T09:14:19Z</time>
      </trkpt>
      <trkpt lat="44.70904" lon="3.90603">
        <ele>1060</ele>
        <time>2011-06-01T09:14:30Z</time>
      </trkpt>
      <trkpt lat="44.70895" lon="3.90617">
        <ele>1060</ele>
        <time>2011-06-01T09:14:41Z</time>
      </trkpt>
      <trkpt lat="44.70887" lon="3.9063">
        <ele>1061</ele>
        <time>2011-06-01T09:14:51Z</time>
      </trkpt>
      <trkpt lat="44.70881" lon="3.90647">
        <ele>1061</ele>
        <time>2011-06-01T09:15:01Z</time>
      </trkpt>
      <trkpt lat="44.70875" lon="3.90661">
        <ele>1062</ele>
        <time>2011-06-01T09:15:11Z</time>
      </trkpt>
      <trkpt lat="44.70869" lon="3.90676">
        <ele>1062</ele>
        <time>2011-06-01T09:15:21Z</time>
      </trkpt>
      <trkpt lat="44.70862" lon="3.90692">
        <ele>1062</ele>
        <time>2011-06-01T09:15:32Z</time>
      </trkpt>
      <trkpt lat="44.70855" lon="3.90705">
        <ele>1062</ele>
        <time>2011-06-01T09:15:42Z</time>
      </trkpt>
      <trkpt lat="44.70849" lon="3.90721">
        <ele>1062</ele>
        <time>2011-06-01T09:15:52Z</time>
      </trkpt>
      <trkpt lat="44.7084" lon="3.90736">
        <ele>1062</ele>
        <time>2011-06-01T09:16:03Z</time>
      </trkpt>
      <trkpt lat="44.70832" lon="3.90748">
        <ele>1062</ele>
        <time>2011-06-01T09:16:14Z</time>
      </trkpt>
      <trkpt lat="44.70824" lon="3.90761">
        <ele>1062</ele>
        <time>2011-06-01T09:16:24Z</time>
      </trkpt>
      <trkpt lat="44.70811" lon="3.90777">
        <ele>1062</ele>
        <time>2011-06-01T09:16:35Z</time>
      </trkpt>
      <trkpt lat="44.708" lon="3.9079">
        <ele>1062</ele>
        <time>2011-06-01T09:16:46Z</time>
      </trkpt>
      <trkpt lat="44.70792" lon="3.90801">
        <ele>1062</ele>
        <time>2011-06-01T09:16:56Z</time>
      </trkpt>
      <trkpt lat="44.70779" lon="3.90814">
        <ele>1062</ele>
        <time>2011-06-01T09:17:06Z</time>
      </trkpt>
      <trkpt lat="44.70769" lon="3.90826">
        <ele>1062</ele>
        <time>2011-06-01T09:17:17Z</time>
      </trkpt>
      <trkpt lat="44.7076" lon="3.90837">
        <ele>1062</ele>
        <time>2011-06-01T09:17:28Z</time>
      </trkpt>
      <trkpt lat="44.70751" lon="3.90849">
        <ele>1062</ele>
        <time>2011-06-01T09:17:38Z</time>
      </trkpt>
      <trkpt lat="44.70739" lon="3.90863">
        <ele>1064</ele>
        <time>2011-06-01T09:17:49Z</time>
      </trkpt>
      <trkpt lat="44.70726" lon="3.90877">
        <ele>1065</ele>
        <time>2011-06-01T09:18:00Z</time>
      </trkpt>
      <trkpt lat="44.70715" lon="3.90891">
        <ele>1067</ele>
        <time>2011-06-01T09:18:11Z</time>
      </trkpt>
      <trkpt lat="44.70705" lon="3.90902">
        <ele>1067</ele>
        <time>2011-06-01T09:18:21Z</time>
      </trkpt>
      <trkpt lat="44.70696" lon="3.90914">
        <ele>1067</ele>
        <time>2011-06-01T09:18:31Z</time>
      </trkpt>
      <trkpt lat="44.70686" lon="3.90926">
        <ele>1068</ele>
        <time>2011-06-01T09:18:42Z</time>
      </trkpt>
      <trkpt lat="44.70675" lon="3.90939">
        <ele>1069</ele>
        <time>2011-06-01T09:18:52Z</time>
      </trkpt>
      <trkpt lat="44.70667" lon="3.90954">
        <ele>1070</ele>
        <time>2011-06-01T09:19:02Z</time>
      </trkpt>
      <trkpt lat="44.70661" lon="3.9097">
        <ele>1070</ele>
        <time>2011-06-01T09:19:12Z</time>
      </trkpt>
      <trkpt lat="44.70656" lon="3.90987">
        <ele>1071</ele>
        <time>2011-06-01T09:19:22Z</time>
      </trkpt>
      <trkpt lat="44.70652" lon="3.91004">
        <ele>1071</ele>
        <time>2011-06-01T09:19:32Z</time>
      </trkpt>
      <trkpt lat="44.70649" lon="3.91021">
        <ele>1071</ele>
        <time>2011-06-01T09:19:42Z</time>
      </trkpt>
      <trkpt lat="44.70648" lon="3.91037">
        <ele>1071</ele>
        <time>2011-06-01T09:19:52Z</time>
      </trkpt>
      <trkpt lat="44.7065" lon="3.91054">
        <ele>1072</ele>
        <time>2011-06-01T09:20:02Z</time>
      </trkpt>
      <trkpt lat="44.70645" lon="3.91048">
        <ele>1074</ele>
        <time>2011-06-01T09:20:30Z</time>
      </trkpt>
      <trkpt lat="44.70644" lon="3.91045">
        <ele>1074</ele>
        <time>2011-06-01T09:20:41Z</time>
      </trkpt>
      <trkpt lat="44.70635" lon="3.91037">
        <ele>1076</ele>
        <time>2011-06-01T09:20:51Z</time>
      </trkpt>
      <trkpt lat="44.70632" lon="3.91036">
        <ele>1076</ele>
        <time>2011-06-01T09:21:19Z</time>
      </trkpt>
      <trkpt lat="44.70634" lon="3.91038">
        <ele>1076</ele>
        <time>2011-06-01T09:21:32Z</time>
      </trkpt>
      <trkpt lat="44.7064" lon="3.91025">
        <ele>1076</ele>
        <time>2011-06-01T09:21:42Z</time>
      </trkpt>
      <trkpt lat="44.70649" lon="3.91011">
        <ele>1076</ele>
        <time>2011-06-01T09:21:53Z</time>
      </trkpt>
      <trkpt lat="44.70653" lon="3.90993">
        <ele>1076</ele>
        <time>2011-06-01T09:22:04Z</time>
      </trkpt>
      <trkpt lat="44.70657" lon="3.90976">
        <ele>1075</ele>
        <time>2011-06-01T09:22:14Z</time>
      </trkpt>
      <trkpt lat="44.7066" lon="3.90959">
        <ele>1075</ele>
        <time>2011-06-01T09:22:24Z</time>
      </trkpt>
      <trkpt lat="44.70668" lon="3.90943">
        <ele>1075</ele>
        <time>2011-06-01T09:22:35Z</time>
      </trkpt>
      <trkpt lat="44.70677" lon="3.90931">
        <ele>1075</ele>
        <time>2011-06-01T09:22:45Z</time>
      </trkpt>
      <trkpt lat="44.70686" lon="3.90918">
        <ele>1074</ele>
        <time>2011-06-01T09:22:56Z</time>
      </trkpt>
      <trkpt lat="44.70686" lon="3.90903">
        <ele>1072</ele>
        <time>2011-06-01T09:23:08Z</time>
      </trkpt>
      <trkpt lat="44.70683" lon="3.90885">
        <ele>1072</ele>
        <time>2011-06-01T09:23:18Z</time>
      </trkpt>
      <trkpt lat="44.7068" lon="3.9087">
        <ele>1072</ele>
        <time>2011-06-01T09:23:28Z</time>
      </trkpt>
      <trkpt lat="44.70675" lon="3.90854">
        <ele>1071</ele>
        <time>2011-06-01T09:23:38Z</time>
      </trkpt>
      <trkpt lat="44.70672" lon="3.90835">
        <ele>1071</ele>
        <time>2011-06-01T09:23:49Z</time>
      </trkpt>
      <trkpt lat="44.70668" lon="3.90816">
        <ele>1071</ele>
        <time>2011-06-01T09:23:59Z</time>
      </trkpt>
      <trkpt lat="44.70669" lon="3.90798">
        <ele>1071</ele>
        <time>2011-06-01T09:24:09Z</time>
      </trkpt>
      <trkpt lat="44.70669" lon="3.90779">
        <ele>1070</ele>
        <time>2011-06-01T09:24:19Z</time>
      </trkpt>
      <trkpt lat="44.70666" lon="3.90762">
        <ele>1070</ele>
        <time>2011-06-01T09:24:29Z</time>
      </trkpt>
      <trkpt lat="44.70664" lon="3.90744">
        <ele>1070</ele>
        <time>2011-06-01T09:24:39Z</time>
      </trkpt>
      <trkpt lat="44.70663" lon="3.90727">
        <ele>1070</ele>
        <time>2011-06-01T09:24:49Z</time>
      </trkpt>
      <trkpt lat="44.70664" lon="3.90711">
        <ele>1070</ele>
        <time>2011-06-01T09:24:59Z</time>
      </trkpt>
      <trkpt lat="44.70665" lon="3.90693">
        <ele>1070</ele>
        <time>2011-06-01T09:25:09Z</time>
      </trkpt>
      <trkpt lat="44.70668" lon="3.90678">
        <ele>1070</ele>
        <time>2011-06-01T09:25:19Z</time>
      </trkpt>
      <trkpt lat="44.70672" lon="3.90662">
        <ele>1070</ele>
        <time>2011-06-01T09:25:29Z</time>
      </trkpt>
      <trkpt lat="44.70672" lon="3.90646">
        <ele>1066</ele>
        <time>2011-06-01T09:25:39Z</time>
      </trkpt>
      <trkpt lat="44.7067" lon="3.90629">
        <ele>1063</ele>
        <time>2011-06-01T09:25:49Z</time>
      </trkpt>
      <trkpt lat="44.70666" lon="3.90613">
        <ele>1063</ele>
        <time>2011-06-01T09:25:59Z</time>
      </trkpt>
      <trkpt lat="44.70657" lon="3.906">
        <ele>1063</ele>
        <time>2011-06-01T09:26:09Z</time>
      </trkpt>
      <trkpt lat="44.7065" lon="3.90589">
        <ele>1062</ele>
        <time>2011-06-01T09:26:19Z</time>
      </trkpt>
      <trkpt lat="44.70641" lon="3.9058">
        <ele>1062</ele>
        <time>2011-06-01T09:26:29Z</time>
      </trkpt>
      <trkpt lat="44.70634" lon="3.9057">
        <ele>1062</ele>
        <time>2011-06-01T09:26:40Z</time>
      </trkpt>
      <trkpt lat="44.70625" lon="3.9056">
        <ele>1062</ele>
        <time>2011-06-01T09:26:51Z</time>
      </trkpt>
      <trkpt lat="44.70618" lon="3.90551">
        <ele>1059</ele>
        <time>2011-06-01T09:27:01Z</time>
      </trkpt>
      <trkpt lat="44.70609" lon="3.9054">
        <ele>1058</ele>
        <time>2011-06-01T09:27:11Z</time>
      </trkpt>
      <trkpt lat="44.706" lon="3.90526">
        <ele>1055</ele>
        <time>2011-06-01T09:27:21Z</time>
      </trkpt>
      <trkpt lat="44.70593" lon="3.90513">
        <ele>1048</ele>
        <time>2011-06-01T09:27:32Z</time>
      </trkpt>
      <trkpt lat="44.70589" lon="3.90501">
        <ele>1046</ele>
        <time>2011-06-01T09:27:42Z</time>
      </trkpt>
      <trkpt lat="44.70584" lon="3.9049">
        <ele>1046</ele>
        <time>2011-06-01T09:27:52Z</time>
      </trkpt>
      <trkpt lat="44.70579" lon="3.90478">
        <ele>1045</ele>
        <time>2011-06-01T09:28:02Z</time>
      </trkpt>
      <trkpt lat="44.70575" lon="3.90467">
        <ele>1044</ele>
        <time>2011-06-01T09:28:13Z</time>
      </trkpt>
      <trkpt lat="44.70564" lon="3.90454">
        <ele>1046</ele>
        <time>2011-06-01T09:28:24Z</time>
      </trkpt>
      <trkpt lat="44.70559" lon="3.90442">
        <ele>1046</ele>
        <time>2011-06-01T09:28:34Z</time>
      </trkpt>
      <trkpt lat="44.70555" lon="3.90429">
        <ele>1046</ele>
        <time>2011-06-01T09:28:44Z</time>
      </trkpt>
      <trkpt lat="44.70546" lon="3.90416">
        <ele>1045</ele>
        <time>2011-06-01T09:28:54Z</time>
      </trkpt>
      <trkpt lat="44.70539" lon="3.90402">
        <ele>1045</ele>
        <time>2011-06-01T09:29:04Z</time>
      </trkpt>
      <trkpt lat="44.70531" lon="3.90388">
        <ele>1045</ele>
        <time>2011-06-01T09:29:14Z</time>
      </trkpt>
      <trkpt lat="44.70522" lon="3.90374">
        <ele>1043</ele>
        <time>2011-06-01T09:29:24Z</time>
      </trkpt>
      <trkpt lat="44.70514" lon="3.90364">
        <ele>1040</ele>
        <time>2011-06-01T09:29:34Z</time>
      </trkpt>
      <trkpt lat="44.70505" lon="3.90351">
        <ele>1036</ele>
        <time>2011-06-01T09:29:44Z</time>
      </trkpt>
      <trkpt lat="44.70496" lon="3.90338">
        <ele>1035</ele>
        <time>2011-06-01T09:29:54Z</time>
      </trkpt>
      <trkpt lat="44.70487" lon="3.9033">
        <ele>1035</ele>
        <time>2011-06-01T09:30:05Z</time>
      </trkpt>
      <trkpt lat="44.70476" lon="3.90323">
        <ele>1035</ele>
        <time>2011-06-01T09:30:16Z</time>
      </trkpt>
      <trkpt lat="44.70466" lon="3.90316">
        <ele>1035</ele>
        <time>2011-06-01T09:30:26Z</time>
      </trkpt>
      <trkpt lat="44.7046" lon="3.90301">
        <ele>1035</ele>
        <time>2011-06-01T09:30:37Z</time>
      </trkpt>
      <trkpt lat="44.70453" lon="3.90288">
        <ele>1035</ele>
        <time>2011-06-01T09:30:48Z</time>
      </trkpt>
      <trkpt lat="44.70451" lon="3.90284">
        <ele>1035</ele>
        <time>2011-06-01T09:31:14Z</time>
      </trkpt>
      <trkpt lat="44.70444" lon="3.90272">
        <ele>1035</ele>
        <time>2011-06-01T09:31:24Z</time>
      </trkpt>
      <trkpt lat="44.70434" lon="3.90261">
        <ele>1033</ele>
        <time>2011-06-01T09:31:35Z</time>
      </trkpt>
      <trkpt lat="44.70424" lon="3.90249">
        <ele>1030</ele>
        <time>2011-06-01T09:31:46Z</time>
      </trkpt>
      <trkpt lat="44.70415" lon="3.90238">
        <ele>1029</ele>
        <time>2011-06-01T09:31:57Z</time>
      </trkpt>
      <trkpt lat="44.70406" lon="3.90227">
        <ele>1027</ele>
        <time>2011-06-01T09:32:07Z</time>
      </trkpt>
      <trkpt lat="44.70403" lon="3.90214">
        <ele>1025</ele>
        <time>2011-06-01T09:32:18Z</time>
      </trkpt>
      <trkpt lat="44.70398" lon="3.90206">
        <ele>1024</ele>
        <time>2011-06-01T09:32:28Z</time>
      </trkpt>
      <trkpt lat="44.70389" lon="3.90191">
        <ele>1019</ele>
        <time>2011-06-01T09:32:39Z</time>
      </trkpt>
      <trkpt lat="44.70384" lon="3.90178">
        <ele>1018</ele>
        <time>2011-06-01T09:32:49Z</time>
      </trkpt>
      <trkpt lat="44.70375" lon="3.90161">
        <ele>1018</ele>
        <time>2011-06-01T09:32:59Z</time>
      </trkpt>
      <trkpt lat="44.70368" lon="3.90147">
        <ele>1019</ele>
        <time>2011-06-01T09:33:09Z</time>
      </trkpt>
      <trkpt lat="44.70362" lon="3.90133">
        <ele>1022</ele>
        <time>2011-06-01T09:33:19Z</time>
      </trkpt>
      <trkpt lat="44.70357" lon="3.90116">
        <ele>1021</ele>
        <time>2011-06-01T09:33:30Z</time>
      </trkpt>
      <trkpt lat="44.70353" lon="3.90097">
        <ele>1021</ele>
        <time>2011-06-01T09:33:41Z</time>
      </trkpt>
      <trkpt lat="44.70347" lon="3.90086">
        <ele>1018</ele>
        <time>2011-06-01T09:33:51Z</time>
      </trkpt>
      <trkpt lat="44.70341" lon="3.90072">
        <ele>1015</ele>
        <time>2011-06-01T09:34:01Z</time>
      </trkpt>
      <trkpt lat="44.70334" lon="3.90056">
        <ele>1013</ele>
        <time>2011-06-01T09:34:12Z</time>
      </trkpt>
      <trkpt lat="44.70324" lon="3.90043">
        <ele>1010</ele>
        <time>2011-06-01T09:34:22Z</time>
      </trkpt>
      <trkpt lat="44.7032" lon="3.90029">
        <ele>1008</ele>
        <time>2011-06-01T09:34:32Z</time>
      </trkpt>
      <trkpt lat="44.70312" lon="3.90017">
        <ele>1007</ele>
        <time>2011-06-01T09:34:43Z</time>
      </trkpt>
      <trkpt lat="44.70301" lon="3.89997">
        <ele>1006</ele>
        <time>2011-06-01T09:34:53Z</time>
      </trkpt>
      <trkpt lat="44.70294" lon="3.89984">
        <ele>1006</ele>
        <time>2011-06-01T09:35:03Z</time>
      </trkpt>
      <trkpt lat="44.70288" lon="3.89967">
        <ele>1006</ele>
        <time>2011-06-01T09:35:13Z</time>
      </trkpt>
      <trkpt lat="44.70288" lon="3.89947">
        <ele>1006</ele>
        <time>2011-06-01T09:35:23Z</time>
      </trkpt>
      <trkpt lat="44.70284" lon="3.89931">
        <ele>1007</ele>
        <time>2011-06-01T09:35:33Z</time>
      </trkpt>
      <trkpt lat="44.70279" lon="3.89917">
        <ele>1007</ele>
        <time>2011-06-01T09:35:44Z</time>
      </trkpt>
      <trkpt lat="44.70272" lon="3.89903">
        <ele>1007</ele>
        <time>2011-06-01T09:35:54Z</time>
      </trkpt>
      <trkpt lat="44.70264" lon="3.89891">
        <ele>1005</ele>
        <time>2011-06-01T09:36:04Z</time>
      </trkpt>
      <trkpt lat="44.70253" lon="3.89883">
        <ele>1005</ele>
        <time>2011-06-01T09:36:15Z</time>
      </trkpt>
      <trkpt lat="44.70241" lon="3.89881">
        <ele>1005</ele>
        <time>2011-06-01T09:36:25Z</time>
      </trkpt>
      <trkpt lat="44.70229" lon="3.89878">
        <ele>1004</ele>
        <time>2011-06-01T09:36:35Z</time>
      </trkpt>
      <trkpt lat="44.70217" lon="3.89874">
        <ele>1002</ele>
        <time>2011-06-01T09:36:46Z</time>
      </trkpt>
      <trkpt lat="44.70207" lon="3.8987">
        <ele>1000</ele>
        <time>2011-06-01T09:36:59Z</time>
      </trkpt>
      <trkpt lat="44.70192" lon="3.89861">
        <ele>1000</ele>
        <time>2011-06-01T09:37:10Z</time>
      </trkpt>
      <trkpt lat="44.70182" lon="3.89851">
        <ele>998</ele>
        <time>2011-06-01T09:37:21Z</time>
      </trkpt>
      <trkpt lat="44.70173" lon="3.89845">
        <ele>991</ele>
        <time>2011-06-01T09:37:31Z</time>
      </trkpt>
      <trkpt lat="44.70163" lon="3.89843">
        <ele>987</ele>
        <time>2011-06-01T09:37:41Z</time>
      </trkpt>
      <trkpt lat="44.70152" lon="3.89836">
        <ele>984</ele>
        <time>2011-06-01T09:37:52Z</time>
      </trkpt>
      <trkpt lat="44.70153" lon="3.89816">
        <ele>981</ele>
        <time>2011-06-01T09:38:02Z</time>
      </trkpt>
      <trkpt lat="44.70161" lon="3.89804">
        <ele>981</ele>
        <time>2011-06-01T09:38:12Z</time>
      </trkpt>
      <trkpt lat="44.70164" lon="3.89789">
        <ele>975</ele>
        <time>2011-06-01T09:38:22Z</time>
      </trkpt>
      <trkpt lat="44.70165" lon="3.89775">
        <ele>970</ele>
        <time>2011-06-01T09:38:32Z</time>
      </trkpt>
      <trkpt lat="44.70167" lon="3.89757">
        <ele>970</ele>
        <time>2011-06-01T09:38:43Z</time>
      </trkpt>
      <trkpt lat="44.7017" lon="3.89744">
        <ele>970</ele>
        <time>2011-06-01T09:38:53Z</time>
      </trkpt>
      <trkpt lat="44.70178" lon="3.89734">
        <ele>966</ele>
        <time>2011-06-01T09:39:04Z</time>
      </trkpt>
      <trkpt lat="44.70181" lon="3.89714">
        <ele>966</ele>
        <time>2011-06-01T09:39:14Z</time>
      </trkpt>
      <trkpt lat="44.70183" lon="3.89696">
        <ele>966</ele>
        <time>2011-06-01T09:39:25Z</time>
      </trkpt>
      <trkpt lat="44.70189" lon="3.89682">
        <ele>965</ele>
        <time>2011-06-01T09:39:36Z</time>
      </trkpt>
      <trkpt lat="44.70197" lon="3.89668">
        <ele>963</ele>
        <time>2011-06-01T09:39:47Z</time>
      </trkpt>
      <trkpt lat="44.70202" lon="3.89653">
        <ele>962</ele>
        <time>2011-06-01T09:39:57Z</time>
      </trkpt>
      <trkpt lat="44.7021" lon="3.89641">
        <ele>960</ele>
        <time>2011-06-01T09:40:07Z</time>
      </trkpt>
      <trkpt lat="44.70216" lon="3.89627">
        <ele>959</ele>
        <time>2011-06-01T09:40:17Z</time>
      </trkpt>
      <trkpt lat="44.70227" lon="3.89618">
        <ele>954</ele>
        <time>2011-06-01T09:40:27Z</time>
      </trkpt>
      <trkpt lat="44.70235" lon="3.89608">
        <ele>954</ele>
        <time>2011-06-01T09:40:37Z</time>
      </trkpt>
      <trkpt lat="44.70244" lon="3.89593">
        <ele>951</ele>
        <time>2011-06-01T09:40:48Z</time>
      </trkpt>
      <trkpt lat="44.70246" lon="3.89576">
        <ele>951</ele>
        <time>2011-06-01T09:41:03Z</time>
      </trkpt>
      <trkpt lat="44.70252" lon="3.89568">
        <ele>951</ele>
        <time>2011-06-01T09:41:16Z</time>
      </trkpt>
      <trkpt lat="44.70258" lon="3.89562">
        <ele>951</ele>
        <time>2011-06-01T09:41:28Z</time>
      </trkpt>
      <trkpt lat="44.70269" lon="3.89553">
        <ele>951</ele>
        <time>2011-06-01T09:41:38Z</time>
      </trkpt>
      <trkpt lat="44.70279" lon="3.89541">
        <ele>951</ele>
        <time>2011-06-01T09:41:49Z</time>
      </trkpt>
      <trkpt lat="44.7027" lon="3.89536">
        <ele>949</ele>
        <time>2011-06-01T09:41:59Z</time>
      </trkpt>
      <trkpt lat="44.70256" lon="3.89534">
        <ele>949</ele>
        <time>2011-06-01T09:42:09Z</time>
      </trkpt>
      <trkpt lat="44.70244" lon="3.89531">
        <ele>949</ele>
        <time>2011-06-01T09:42:19Z</time>
      </trkpt>
      <trkpt lat="44.70233" lon="3.89527">
        <ele>948</ele>
        <time>2011-06-01T09:42:29Z</time>
      </trkpt>
      <trkpt lat="44.7022" lon="3.89527">
        <ele>947</ele>
        <time>2011-06-01T09:42:39Z</time>
      </trkpt>
      <trkpt lat="44.70208" lon="3.89532">
        <ele>947</ele>
        <time>2011-06-01T09:42:49Z</time>
      </trkpt>
      <trkpt lat="44.702" lon="3.89534">
        <ele>947</ele>
        <time>2011-06-01T09:43:02Z</time>
      </trkpt>
      <trkpt lat="44.70189" lon="3.89539">
        <ele>947</ele>
        <time>2011-06-01T09:43:12Z</time>
      </trkpt>
      <trkpt lat="44.70181" lon="3.89545">
        <ele>947</ele>
        <time>2011-06-01T09:43:22Z</time>
      </trkpt>
      <trkpt lat="44.7017" lon="3.89553">
        <ele>947</ele>
        <time>2011-06-01T09:43:33Z</time>
      </trkpt>
      <trkpt lat="44.70161" lon="3.89561">
        <ele>947</ele>
        <time>2011-06-01T09:43:43Z</time>
      </trkpt>
      <trkpt lat="44.70149" lon="3.8957">
        <ele>947</ele>
        <time>2011-06-01T09:43:53Z</time>
      </trkpt>
      <trkpt lat="44.70137" lon="3.89577">
        <ele>947</ele>
        <time>2011-06-01T09:44:03Z</time>
      </trkpt>
      <trkpt lat="44.70125" lon="3.89584">
        <ele>947</ele>
        <time>2011-06-01T09:44:13Z</time>
      </trkpt>
      <trkpt lat="44.70114" lon="3.89584">
        <ele>947</ele>
        <time>2011-06-01T09:44:23Z</time>
      </trkpt>
      <trkpt lat="44.70103" lon="3.8958">
        <ele>947</ele>
        <time>2011-06-01T09:44:33Z</time>
      </trkpt>
      <trkpt lat="44.70091" lon="3.89576">
        <ele>947</ele>
        <time>2011-06-01T09:44:43Z</time>
      </trkpt>
      <trkpt lat="44.7008" lon="3.89571">
        <ele>947</ele>
        <time>2011-06-01T09:44:53Z</time>
      </trkpt>
      <trkpt lat="44.7007" lon="3.89564">
        <ele>947</ele>
        <time>2011-06-01T09:45:03Z</time>
      </trkpt>
      <trkpt lat="44.70059" lon="3.89561">
        <ele>947</ele>
        <time>2011-06-01T09:45:13Z</time>
      </trkpt>
      <trkpt lat="44.70049" lon="3.8956">
        <ele>947</ele>
        <time>2011-06-01T09:45:23Z</time>
      </trkpt>
      <trkpt lat="44.70047" lon="3.89558">
        <ele>947</ele>
        <time>2011-06-01T09:45:35Z</time>
      </trkpt>
      <trkpt lat="44.70039" lon="3.89557">
        <ele>946</ele>
        <time>2011-06-01T09:45:45Z</time>
      </trkpt>
      <trkpt lat="44.70026" lon="3.89556">
        <ele>946</ele>
        <time>2011-06-01T09:45:56Z</time>
      </trkpt>
      <trkpt lat="44.70014" lon="3.89555">
        <ele>946</ele>
        <time>2011-06-01T09:46:06Z</time>
      </trkpt>
      <trkpt lat="44.70002" lon="3.89555">
        <ele>946</ele>
        <time>2011-06-01T09:46:16Z</time>
      </trkpt>
      <trkpt lat="44.6999" lon="3.89553">
        <ele>945</ele>
        <time>2011-06-01T09:46:26Z</time>
      </trkpt>
      <trkpt lat="44.69978" lon="3.89552">
        <ele>945</ele>
        <time>2011-06-01T09:46:36Z</time>
      </trkpt>
      <trkpt lat="44.69965" lon="3.89553">
        <ele>945</ele>
        <time>2011-06-01T09:46:46Z</time>
      </trkpt>
      <trkpt lat="44.69952" lon="3.89554">
        <ele>945</ele>
        <time>2011-06-01T09:46:56Z</time>
      </trkpt>
      <trkpt lat="44.6994" lon="3.89554">
        <ele>945</ele>
        <time>2011-06-01T09:47:06Z</time>
      </trkpt>
      <trkpt lat="44.69927" lon="3.89557">
        <ele>945</ele>
        <time>2011-06-01T09:47:16Z</time>
      </trkpt>
      <trkpt lat="44.69914" lon="3.8956">
        <ele>945</ele>
        <time>2011-06-01T09:47:26Z</time>
      </trkpt>
      <trkpt lat="44.69902" lon="3.89564">
        <ele>945</ele>
        <time>2011-06-01T09:47:36Z</time>
      </trkpt>
      <trkpt lat="44.69889" lon="3.89569">
        <ele>945</ele>
        <time>2011-06-01T09:47:47Z</time>
      </trkpt>
      <trkpt lat="44.69876" lon="3.89576">
        <ele>945</ele>
        <time>2011-06-01T09:47:57Z</time>
      </trkpt>
      <trkpt lat="44.69864" lon="3.89581">
        <ele>945</ele>
        <time>2011-06-01T09:48:07Z</time>
      </trkpt>
      <trkpt lat="44.69851" lon="3.89587">
        <ele>945</ele>
        <time>2011-06-01T09:48:17Z</time>
      </trkpt>
      <trkpt lat="44.6984" lon="3.89597">
        <ele>945</ele>
        <time>2011-06-01T09:48:27Z</time>
      </trkpt>
      <trkpt lat="44.6983" lon="3.89607">
        <ele>945</ele>
        <time>2011-06-01T09:48:37Z</time>
      </trkpt>
      <trkpt lat="44.69819" lon="3.89616">
        <ele>945</ele>
        <time>2011-06-01T09:48:47Z</time>
      </trkpt>
      <trkpt lat="44.69808" lon="3.89625">
        <ele>945</ele>
        <time>2011-06-01T09:48:57Z</time>
      </trkpt>
      <trkpt lat="44.69798" lon="3.89638">
        <ele>945</ele>
        <time>2011-06-01T09:49:08Z</time>
      </trkpt>
      <trkpt lat="44.69789" lon="3.89652">
        <ele>945</ele>
        <time>2011-06-01T09:49:18Z</time>
      </trkpt>
      <trkpt lat="44.69782" lon="3.89666">
        <ele>945</ele>
        <time>2011-06-01T09:49:28Z</time>
      </trkpt>
      <trkpt lat="44.69773" lon="3.89681">
        <ele>945</ele>
        <time>2011-06-01T09:49:38Z</time>
      </trkpt>
      <trkpt lat="44.69764" lon="3.89693">
        <ele>945</ele>
        <time>2011-06-01T09:49:49Z</time>
      </trkpt>
      <trkpt lat="44.6976" lon="3.89694">
        <ele>945</ele>
        <time>2011-06-01T09:50:43Z</time>
      </trkpt>
      <trkpt lat="44.69759" lon="3.89696">
        <ele>946</ele>
        <time>2011-06-01T09:51:33Z</time>
      </trkpt>
      <trkpt lat="44.69758" lon="3.89694">
        <ele>948</ele>
        <time>2011-06-01T09:52:23Z</time>
      </trkpt>
      <trkpt lat="44.69753" lon="3.89694">
        <ele>948</ele>
        <time>2011-06-01T09:52:35Z</time>
      </trkpt>
      <trkpt lat="44.69743" lon="3.89693">
        <ele>948</ele>
        <time>2011-06-01T09:52:46Z</time>
      </trkpt>
      <trkpt lat="44.69732" lon="3.8969">
        <ele>948</ele>
        <time>2011-06-01T09:52:56Z</time>
      </trkpt>
      <trkpt lat="44.69721" lon="3.89689">
        <ele>948</ele>
        <time>2011-06-01T09:53:06Z</time>
      </trkpt>
      <trkpt lat="44.69709" lon="3.89687">
        <ele>948</ele>
        <time>2011-06-01T09:53:16Z</time>
      </trkpt>
      <trkpt lat="44.69698" lon="3.8968">
        <ele>948</ele>
        <time>2011-06-01T09:53:26Z</time>
      </trkpt>
      <trkpt lat="44.69687" lon="3.89671">
        <ele>947</ele>
        <time>2011-06-01T09:53:36Z</time>
      </trkpt>
      <trkpt lat="44.69677" lon="3.89667">
        <ele>947</ele>
        <time>2011-06-01T09:53:46Z</time>
      </trkpt>
      <trkpt lat="44.69667" lon="3.89664">
        <ele>947</ele>
        <time>2011-06-01T09:53:56Z</time>
      </trkpt>
      <trkpt lat="44.69654" lon="3.89666">
        <ele>946</ele>
        <time>2011-06-01T09:54:06Z</time>
      </trkpt>
      <trkpt lat="44.69642" lon="3.89669">
        <ele>944</ele>
        <time>2011-06-01T09:54:16Z</time>
      </trkpt>
      <trkpt lat="44.69634" lon="3.89668">
        <ele>944</ele>
        <time>2011-06-01T09:54:29Z</time>
      </trkpt>
      <trkpt lat="44.69626" lon="3.89671">
        <ele>944</ele>
        <time>2011-06-01T09:54:39Z</time>
      </trkpt>
      <trkpt lat="44.69615" lon="3.89673">
        <ele>945</ele>
        <time>2011-06-01T09:54:49Z</time>
      </trkpt>
      <trkpt lat="44.69603" lon="3.89681">
        <ele>945</ele>
        <time>2011-06-01T09:55:00Z</time>
      </trkpt>
      <trkpt lat="44.69594" lon="3.89687">
        <ele>945</ele>
        <time>2011-06-01T09:55:10Z</time>
      </trkpt>
      <trkpt lat="44.69584" lon="3.89694">
        <ele>945</ele>
        <time>2011-06-01T09:55:20Z</time>
      </trkpt>
      <trkpt lat="44.69575" lon="3.89703">
        <ele>945</ele>
        <time>2011-06-01T09:55:30Z</time>
      </trkpt>
      <trkpt lat="44.69567" lon="3.89713">
        <ele>945</ele>
        <time>2011-06-01T09:55:41Z</time>
      </trkpt>
      <trkpt lat="44.69559" lon="3.89724">
        <ele>946</ele>
        <time>2011-06-01T09:55:52Z</time>
      </trkpt>
      <trkpt lat="44.69551" lon="3.89734">
        <ele>948</ele>
        <time>2011-06-01T09:56:02Z</time>
      </trkpt>
      <trkpt lat="44.69545" lon="3.89743">
        <ele>948</ele>
        <time>2011-06-01T09:56:12Z</time>
      </trkpt>
      <trkpt lat="44.69538" lon="3.89752">
        <ele>949</ele>
        <time>2011-06-01T09:56:22Z</time>
      </trkpt>
      <trkpt lat="44.6953" lon="3.89764">
        <ele>949</ele>
        <time>2011-06-01T09:56:33Z</time>
      </trkpt>
      <trkpt lat="44.69524" lon="3.89775">
        <ele>951</ele>
        <time>2011-06-01T09:56:43Z</time>
      </trkpt>
      <trkpt lat="44.69516" lon="3.89786">
        <ele>951</ele>
        <time>2011-06-01T09:56:53Z</time>
      </trkpt>
      <trkpt lat="44.69507" lon="3.89798">
        <ele>951</ele>
        <time>2011-06-01T09:57:03Z</time>
      </trkpt>
      <trkpt lat="44.69499" lon="3.89806">
        <ele>956</ele>
        <time>2011-06-01T09:57:13Z</time>
      </trkpt>
      <trkpt lat="44.6949" lon="3.89818">
        <ele>958</ele>
        <time>2011-06-01T09:57:24Z</time>
      </trkpt>
      <trkpt lat="44.69479" lon="3.89826">
        <ele>963</ele>
        <time>2011-06-01T09:57:35Z</time>
      </trkpt>
      <trkpt lat="44.6947" lon="3.89835">
        <ele>964</ele>
        <time>2011-06-01T09:57:45Z</time>
      </trkpt>
      <trkpt lat="44.69461" lon="3.89841">
        <ele>965</ele>
        <time>2011-06-01T09:57:55Z</time>
      </trkpt>
      <trkpt lat="44.6945" lon="3.8985">
        <ele>965</ele>
        <time>2011-06-01T09:58:05Z</time>
      </trkpt>
      <trkpt lat="44.69438" lon="3.89855">
        <ele>965</ele>
        <time>2011-06-01T09:58:15Z</time>
      </trkpt>
      <trkpt lat="44.69427" lon="3.89862">
        <ele>966</ele>
        <time>2011-06-01T09:58:25Z</time>
      </trkpt>
      <trkpt lat="44.69416" lon="3.89872">
        <ele>966</ele>
        <time>2011-06-01T09:58:36Z</time>
      </trkpt>
      <trkpt lat="44.69407" lon="3.89881">
        <ele>968</ele>
        <time>2011-06-01T09:58:46Z</time>
      </trkpt>
      <trkpt lat="44.69397" lon="3.8989">
        <ele>968</ele>
        <time>2011-06-01T09:58:56Z</time>
      </trkpt>
      <trkpt lat="44.69386" lon="3.89898">
        <ele>970</ele>
        <time>2011-06-01T09:59:06Z</time>
      </trkpt>
      <trkpt lat="44.69375" lon="3.89905">
        <ele>972</ele>
        <time>2011-06-01T09:59:16Z</time>
      </trkpt>
      <trkpt lat="44.69365" lon="3.89914">
        <ele>973</ele>
        <time>2011-06-01T09:59:26Z</time>
      </trkpt>
      <trkpt lat="44.69353" lon="3.89922">
        <ele>975</ele>
        <time>2011-06-01T09:59:36Z</time>
      </trkpt>
      <trkpt lat="44.69343" lon="3.89931">
        <ele>978</ele>
        <time>2011-06-01T09:59:46Z</time>
      </trkpt>
      <trkpt lat="44.69333" lon="3.89937">
        <ele>980</ele>
        <time>2011-06-01T09:59:56Z</time>
      </trkpt>
      <trkpt lat="44.69322" lon="3.89945">
        <ele>980</ele>
        <time>2011-06-01T10:00:07Z</time>
      </trkpt>
      <trkpt lat="44.69312" lon="3.89952">
        <ele>981</ele>
        <time>2011-06-01T10:00:18Z</time>
      </trkpt>
      <trkpt lat="44.69301" lon="3.89958">
        <ele>983</ele>
        <time>2011-06-01T10:00:29Z</time>
      </trkpt>
      <trkpt lat="44.69287" lon="3.89961">
        <ele>984</ele>
        <time>2011-06-01T10:00:39Z</time>
      </trkpt>
      <trkpt lat="44.69277" lon="3.89967">
        <ele>986</ele>
        <time>2011-06-01T10:00:49Z</time>
      </trkpt>
      <trkpt lat="44.69266" lon="3.8997">
        <ele>986</ele>
        <time>2011-06-01T10:01:00Z</time>
      </trkpt>
      <trkpt lat="44.69256" lon="3.89979">
        <ele>986</ele>
        <time>2011-06-01T10:01:10Z</time>
      </trkpt>
      <trkpt lat="44.69247" lon="3.89987">
        <ele>986</ele>
        <time>2011-06-01T10:01:20Z</time>
      </trkpt>
      <trkpt lat="44.69236" lon="3.89988">
        <ele>987</ele>
        <time>2011-06-01T10:01:30Z</time>
      </trkpt>
      <trkpt lat="44.69225" lon="3.89992">
        <ele>988</ele>
        <time>2011-06-01T10:01:40Z</time>
      </trkpt>
      <trkpt lat="44.69214" lon="3.9">
        <ele>991</ele>
        <time>2011-06-01T10:01:51Z</time>
      </trkpt>
      <trkpt lat="44.69204" lon="3.90007">
        <ele>993</ele>
        <time>2011-06-01T10:02:02Z</time>
      </trkpt>
      <trkpt lat="44.6919" lon="3.90013">
        <ele>996</ele>
        <time>2011-06-01T10:02:12Z</time>
      </trkpt>
      <trkpt lat="44.69179" lon="3.90016">
        <ele>997</ele>
        <time>2011-06-01T10:02:22Z</time>
      </trkpt>
      <trkpt lat="44.69167" lon="3.90016">
        <ele>997</ele>
        <time>2011-06-01T10:02:32Z</time>
      </trkpt>
      <trkpt lat="44.69156" lon="3.90012">
        <ele>997</ele>
        <time>2011-06-01T10:02:42Z</time>
      </trkpt>
      <trkpt lat="44.69145" lon="3.90012">
        <ele>997</ele>
        <time>2011-06-01T10:02:52Z</time>
      </trkpt>
      <trkpt lat="44.6913" lon="3.90007">
        <ele>1001</ele>
        <time>2011-06-01T10:03:03Z</time>
      </trkpt>
      <trkpt lat="44.69119" lon="3.90005">
        <ele>1002</ele>
        <time>2011-06-01T10:03:14Z</time>
      </trkpt>
      <trkpt lat="44.69108" lon="3.90003">
        <ele>1003</ele>
        <time>2011-06-01T10:03:24Z</time>
      </trkpt>
      <trkpt lat="44.69096" lon="3.90004">
        <ele>1004</ele>
        <time>2011-06-01T10:03:35Z</time>
      </trkpt>
      <trkpt lat="44.69083" lon="3.90005">
        <ele>1006</ele>
        <time>2011-06-01T10:03:46Z</time>
      </trkpt>
      <trkpt lat="44.69068" lon="3.90003">
        <ele>1006</ele>
        <time>2011-06-01T10:03:56Z</time>
      </trkpt>
      <trkpt lat="44.69053" lon="3.90006">
        <ele>1009</ele>
        <time>2011-06-01T10:04:07Z</time>
      </trkpt>
      <trkpt lat="44.69041" lon="3.90003">
        <ele>1011</ele>
        <time>2011-06-01T10:04:17Z</time>
      </trkpt>
      <trkpt lat="44.69029" lon="3.90005">
        <ele>1011</ele>
        <time>2011-06-01T10:04:27Z</time>
      </trkpt>
      <trkpt lat="44.69016" lon="3.90009">
        <ele>1011</ele>
        <time>2011-06-01T10:04:37Z</time>
      </trkpt>
      <trkpt lat="44.69002" lon="3.90016">
        <ele>1017</ele>
        <time>2011-06-01T10:04:48Z</time>
      </trkpt>
      <trkpt lat="44.68989" lon="3.90019">
        <ele>1023</ele>
        <time>2011-06-01T10:04:58Z</time>
      </trkpt>
      <trkpt lat="44.68977" lon="3.90017">
        <ele>1025</ele>
        <time>2011-06-01T10:05:08Z</time>
      </trkpt>
      <trkpt lat="44.68964" lon="3.90018">
        <ele>1027</ele>
        <time>2011-06-01T10:05:19Z</time>
      </trkpt>
      <trkpt lat="44.68951" lon="3.9002">
        <ele>1027</ele>
        <time>2011-06-01T10:05:30Z</time>
      </trkpt>
      <trkpt lat="44.68938" lon="3.90022">
        <ele>1027</ele>
        <time>2011-06-01T10:05:40Z</time>
      </trkpt>
      <trkpt lat="44.68925" lon="3.90024">
        <ele>1028</ele>
        <time>2011-06-01T10:05:50Z</time>
      </trkpt>
      <trkpt lat="44.68914" lon="3.90026">
        <ele>1028</ele>
        <time>2011-06-01T10:06:00Z</time>
      </trkpt>
      <trkpt lat="44.68901" lon="3.90029">
        <ele>1028</ele>
        <time>2011-06-01T10:06:10Z</time>
      </trkpt>
      <trkpt lat="44.6889" lon="3.90031">
        <ele>1028</ele>
        <time>2011-06-01T10:06:20Z</time>
      </trkpt>
      <trkpt lat="44.68878" lon="3.90034">
        <ele>1028</ele>
        <time>2011-06-01T10:06:31Z</time>
      </trkpt>
      <trkpt lat="44.68868" lon="3.90032">
        <ele>1028</ele>
        <time>2011-06-01T10:06:41Z</time>
      </trkpt>
      <trkpt lat="44.68857" lon="3.9003">
        <ele>1028</ele>
        <time>2011-06-01T10:06:51Z</time>
      </trkpt>
      <trkpt lat="44.68846" lon="3.9003">
        <ele>1028</ele>
        <time>2011-06-01T10:07:01Z</time>
      </trkpt>
      <trkpt lat="44.68835" lon="3.90029">
        <ele>1028</ele>
        <time>2011-06-01T10:07:11Z</time>
      </trkpt>
      <trkpt lat="44.68824" lon="3.90029">
        <ele>1028</ele>
        <time>2011-06-01T10:07:21Z</time>
      </trkpt>
      <trkpt lat="44.68813" lon="3.90031">
        <ele>1028</ele>
        <time>2011-06-01T10:07:31Z</time>
      </trkpt>
      <trkpt lat="44.688" lon="3.90033">
        <ele>1028</ele>
        <time>2011-06-01T10:07:41Z</time>
      </trkpt>
      <trkpt lat="44.68788" lon="3.90037">
        <ele>1028</ele>
        <time>2011-06-01T10:07:51Z</time>
      </trkpt>
      <trkpt lat="44.68775" lon="3.9004">
        <ele>1028</ele>
        <time>2011-06-01T10:08:01Z</time>
      </trkpt>
      <trkpt lat="44.68763" lon="3.90045">
        <ele>1028</ele>
        <time>2011-06-01T10:08:11Z</time>
      </trkpt>
      <trkpt lat="44.6875" lon="3.90051">
        <ele>1028</ele>
        <time>2011-06-01T10:08:21Z</time>
      </trkpt>
      <trkpt lat="44.68738" lon="3.90055">
        <ele>1028</ele>
        <time>2011-06-01T10:08:31Z</time>
      </trkpt>
      <trkpt lat="44.68725" lon="3.9006">
        <ele>1028</ele>
        <time>2011-06-01T10:08:42Z</time>
      </trkpt>
      <trkpt lat="44.68714" lon="3.90067">
        <ele>1028</ele>
        <time>2011-06-01T10:08:52Z</time>
      </trkpt>
      <trkpt lat="44.68702" lon="3.90071">
        <ele>1028</ele>
        <time>2011-06-01T10:09:02Z</time>
      </trkpt>
      <trkpt lat="44.68689" lon="3.90075">
        <ele>1028</ele>
        <time>2011-06-01T10:09:12Z</time>
      </trkpt>
      <trkpt lat="44.68676" lon="3.9008">
        <ele>1028</ele>
        <time>2011-06-01T10:09:23Z</time>
      </trkpt>
      <trkpt lat="44.68663" lon="3.90087">
        <ele>1028</ele>
        <time>2011-06-01T10:09:33Z</time>
      </trkpt>
      <trkpt lat="44.6865" lon="3.90092">
        <ele>1028</ele>
        <time>2011-06-01T10:09:43Z</time>
      </trkpt>
      <trkpt lat="44.68638" lon="3.90097">
        <ele>1028</ele>
        <time>2011-06-01T10:09:53Z</time>
      </trkpt>
      <trkpt lat="44.68625" lon="3.90104">
        <ele>1030</ele>
        <time>2011-06-01T10:10:04Z</time>
      </trkpt>
      <trkpt lat="44.68613" lon="3.9011">
        <ele>1030</ele>
        <time>2011-06-01T10:10:15Z</time>
      </trkpt>
      <trkpt lat="44.68601" lon="3.90117">
        <ele>1030</ele>
        <time>2011-06-01T10:10:25Z</time>
      </trkpt>
      <trkpt lat="44.68588" lon="3.90125">
        <ele>1030</ele>
        <time>2011-06-01T10:10:35Z</time>
      </trkpt>
      <trkpt lat="44.68576" lon="3.90133">
        <ele>1030</ele>
        <time>2011-06-01T10:10:45Z</time>
      </trkpt>
      <trkpt lat="44.68564" lon="3.9014">
        <ele>1030</ele>
        <time>2011-06-01T10:10:55Z</time>
      </trkpt>
      <trkpt lat="44.68552" lon="3.90146">
        <ele>1030</ele>
        <time>2011-06-01T10:11:05Z</time>
      </trkpt>
      <trkpt lat="44.68539" lon="3.90151">
        <ele>1030</ele>
        <time>2011-06-01T10:11:15Z</time>
      </trkpt>
      <trkpt lat="44.68526" lon="3.90157">
        <ele>1030</ele>
        <time>2011-06-01T10:11:25Z</time>
      </trkpt>
      <trkpt lat="44.68513" lon="3.90159">
        <ele>1029</ele>
        <time>2011-06-01T10:11:35Z</time>
      </trkpt>
      <trkpt lat="44.685" lon="3.90163">
        <ele>1028</ele>
        <time>2011-06-01T10:11:45Z</time>
      </trkpt>
      <trkpt lat="44.68487" lon="3.90167">
        <ele>1027</ele>
        <time>2011-06-01T10:11:55Z</time>
      </trkpt>
      <trkpt lat="44.68475" lon="3.90168">
        <ele>1025</ele>
        <time>2011-06-01T10:12:05Z</time>
      </trkpt>
      <trkpt lat="44.68462" lon="3.90167">
        <ele>1024</ele>
        <time>2011-06-01T10:12:15Z</time>
      </trkpt>
      <trkpt lat="44.68449" lon="3.90164">
        <ele>1022</ele>
        <time>2011-06-01T10:12:25Z</time>
      </trkpt>
      <trkpt lat="44.68436" lon="3.9016">
        <ele>1021</ele>
        <time>2011-06-01T10:12:35Z</time>
      </trkpt>
      <trkpt lat="44.68424" lon="3.90157">
        <ele>1020</ele>
        <time>2011-06-01T10:12:45Z</time>
      </trkpt>
      <trkpt lat="44.68411" lon="3.90152">
        <ele>1020</ele>
        <time>2011-06-01T10:12:55Z</time>
      </trkpt>
      <trkpt lat="44.68399" lon="3.90146">
        <ele>1019</ele>
        <time>2011-06-01T10:13:05Z</time>
      </trkpt>
      <trkpt lat="44.68388" lon="3.9014">
        <ele>1019</ele>
        <time>2011-06-01T10:13:15Z</time>
      </trkpt>
      <trkpt lat="44.68376" lon="3.90134">
        <ele>1018</ele>
        <time>2011-06-01T10:13:25Z</time>
      </trkpt>
      <trkpt lat="44.68364" lon="3.90129">
        <ele>1017</ele>
        <time>2011-06-01T10:13:35Z</time>
      </trkpt>
      <trkpt lat="44.68351" lon="3.90125">
        <ele>1016</ele>
        <time>2011-06-01T10:13:46Z</time>
      </trkpt>
      <trkpt lat="44.68338" lon="3.90121">
        <ele>1015</ele>
        <time>2011-06-01T10:13:56Z</time>
      </trkpt>
      <trkpt lat="44.68327" lon="3.90117">
        <ele>1013</ele>
        <time>2011-06-01T10:14:06Z</time>
      </trkpt>
      <trkpt lat="44.68314" lon="3.90115">
        <ele>1013</ele>
        <time>2011-06-01T10:14:16Z</time>
      </trkpt>
      <trkpt lat="44.68301" lon="3.90112">
        <ele>1012</ele>
        <time>2011-06-01T10:14:26Z</time>
      </trkpt>
      <trkpt lat="44.6829" lon="3.90108">
        <ele>1012</ele>
        <time>2011-06-01T10:14:36Z</time>
      </trkpt>
      <trkpt lat="44.6828" lon="3.90104">
        <ele>1011</ele>
        <time>2011-06-01T10:14:49Z</time>
      </trkpt>
      <trkpt lat="44.6827" lon="3.90107">
        <ele>1011</ele>
        <time>2011-06-01T10:14:59Z</time>
      </trkpt>
      <trkpt lat="44.68258" lon="3.90106">
        <ele>1010</ele>
        <time>2011-06-01T10:15:09Z</time>
      </trkpt>
      <trkpt lat="44.68246" lon="3.90105">
        <ele>1008</ele>
        <time>2011-06-01T10:15:19Z</time>
      </trkpt>
      <trkpt lat="44.68235" lon="3.90105">
        <ele>1006</ele>
        <time>2011-06-01T10:15:29Z</time>
      </trkpt>
      <trkpt lat="44.68223" lon="3.90104">
        <ele>1005</ele>
        <time>2011-06-01T10:15:39Z</time>
      </trkpt>
      <trkpt lat="44.68211" lon="3.90103">
        <ele>1004</ele>
        <time>2011-06-01T10:15:49Z</time>
      </trkpt>
      <trkpt lat="44.68198" lon="3.90102">
        <ele>1002</ele>
        <time>2011-06-01T10:16:00Z</time>
      </trkpt>
      <trkpt lat="44.68187" lon="3.90104">
        <ele>1000</ele>
        <time>2011-06-01T10:16:10Z</time>
      </trkpt>
      <trkpt lat="44.68175" lon="3.90107">
        <ele>999</ele>
        <time>2011-06-01T10:16:20Z</time>
      </trkpt>
      <trkpt lat="44.68162" lon="3.90109">
        <ele>997</ele>
        <time>2011-06-01T10:16:31Z</time>
      </trkpt>
      <trkpt lat="44.6815" lon="3.90113">
        <ele>996</ele>
        <time>2011-06-01T10:16:41Z</time>
      </trkpt>
      <trkpt lat="44.68137" lon="3.90119">
        <ele>995</ele>
        <time>2011-06-01T10:16:52Z</time>
      </trkpt>
      <trkpt lat="44.68126" lon="3.90127">
        <ele>995</ele>
        <time>2011-06-01T10:17:03Z</time>
      </trkpt>
      <trkpt lat="44.68126" lon="3.90126">
        <ele>995</ele>
        <time>2011-06-01T10:17:23Z</time>
      </trkpt>
      <trkpt lat="44.68123" lon="3.90124">
        <ele>996</ele>
        <time>2011-06-01T10:17:39Z</time>
      </trkpt>
      <trkpt lat="44.68123" lon="3.90126">
        <ele>996</ele>
        <time>2011-06-01T10:18:01Z</time>
      </trkpt>
      <trkpt lat="44.68122" lon="3.90127">
        <ele>997</ele>
        <time>2011-06-01T10:18:21Z</time>
      </trkpt>
      <trkpt lat="44.68119" lon="3.90128">
        <ele>997</ele>
        <time>2011-06-01T10:18:31Z</time>
      </trkpt>
      <trkpt lat="44.68109" lon="3.90129">
        <ele>997</ele>
        <time>2011-06-01T10:18:41Z</time>
      </trkpt>
      <trkpt lat="44.681" lon="3.90131">
        <ele>997</ele>
        <time>2011-06-01T10:18:51Z</time>
      </trkpt>
      <trkpt lat="44.68089" lon="3.90129">
        <ele>997</ele>
        <time>2011-06-01T10:19:01Z</time>
      </trkpt>
      <trkpt lat="44.68079" lon="3.9012">
        <ele>997</ele>
        <time>2011-06-01T10:19:12Z</time>
      </trkpt>
      <trkpt lat="44.68071" lon="3.90112">
        <ele>997</ele>
        <time>2011-06-01T10:19:22Z</time>
      </trkpt>
      <trkpt lat="44.68061" lon="3.90107">
        <ele>997</ele>
        <time>2011-06-01T10:19:32Z</time>
      </trkpt>
      <trkpt lat="44.68049" lon="3.90106">
        <ele>997</ele>
        <time>2011-06-01T10:19:42Z</time>
      </trkpt>
      <trkpt lat="44.68039" lon="3.90108">
        <ele>994</ele>
        <time>2011-06-01T10:19:52Z</time>
      </trkpt>
      <trkpt lat="44.68029" lon="3.90109">
        <ele>993</ele>
        <time>2011-06-01T10:20:02Z</time>
      </trkpt>
      <trkpt lat="44.68018" lon="3.90116">
        <ele>993</ele>
        <time>2011-06-01T10:20:12Z</time>
      </trkpt>
      <trkpt lat="44.68007" lon="3.90121">
        <ele>993</ele>
        <time>2011-06-01T10:20:23Z</time>
      </trkpt>
      <trkpt lat="44.67995" lon="3.90128">
        <ele>991</ele>
        <time>2011-06-01T10:20:34Z</time>
      </trkpt>
      <trkpt lat="44.67986" lon="3.90131">
        <ele>985</ele>
        <time>2011-06-01T10:20:44Z</time>
      </trkpt>
      <trkpt lat="44.67975" lon="3.90134">
        <ele>984</ele>
        <time>2011-06-01T10:20:54Z</time>
      </trkpt>
      <trkpt lat="44.67968" lon="3.90136">
        <ele>984</ele>
        <time>2011-06-01T10:21:04Z</time>
      </trkpt>
      <trkpt lat="44.6797" lon="3.9013">
        <ele>984</ele>
        <time>2011-06-01T10:21:20Z</time>
      </trkpt>
      <trkpt lat="44.67968" lon="3.90119">
        <ele>984</ele>
        <time>2011-06-01T10:21:30Z</time>
      </trkpt>
      <trkpt lat="44.67967" lon="3.90118">
        <ele>984</ele>
        <time>2011-06-01T10:21:40Z</time>
      </trkpt>
      <trkpt lat="44.67969" lon="3.90118">
        <ele>984</ele>
        <time>2011-06-01T10:21:56Z</time>
      </trkpt>
      <trkpt lat="44.67969" lon="3.90114">
        <ele>984</ele>
        <time>2011-06-01T10:22:06Z</time>
      </trkpt>
      <trkpt lat="44.67968" lon="3.90109">
        <ele>984</ele>
        <time>2011-06-01T10:22:22Z</time>
      </trkpt>
      <trkpt lat="44.67967" lon="3.90108">
        <ele>984</ele>
        <time>2011-06-01T10:22:32Z</time>
      </trkpt>
      <trkpt lat="44.67967" lon="3.90109">
        <ele>984</ele>
        <time>2011-06-01T10:22:43Z</time>
      </trkpt>
      <trkpt lat="44.67968" lon="3.90109">
        <ele>983</ele>
        <time>2011-06-01T10:22:54Z</time>
      </trkpt>
      <trkpt lat="44.67969" lon="3.9011">
        <ele>982</ele>
        <time>2011-06-01T10:23:07Z</time>
      </trkpt>
      <trkpt lat="44.6797" lon="3.90109">
        <ele>982</ele>
        <time>2011-06-01T10:23:24Z</time>
      </trkpt>
      <trkpt lat="44.67969" lon="3.90111">
        <ele>984</ele>
        <time>2011-06-01T10:23:36Z</time>
      </trkpt>
      <trkpt lat="44.67969" lon="3.90111">
        <ele>984</ele>
        <time>2011-06-01T10:24:03Z</time>
      </trkpt>
      <trkpt lat="44.67969" lon="3.9011">
        <ele>984</ele>
        <time>2011-06-01T10:24:15Z</time>
      </trkpt>
      <trkpt lat="44.67969" lon="3.90107">
        <ele>982</ele>
        <time>2011-06-01T10:24:41Z</time>
      </trkpt>
      <trkpt lat="44.67968" lon="3.90111">
        <ele>982</ele>
        <time>2011-06-01T10:24:56Z</time>
      </trkpt>
      <trkpt lat="44.67968" lon="3.90108">
        <ele>980</ele>
        <time>2011-06-01T10:25:16Z</time>
      </trkpt>
      <trkpt lat="44.67971" lon="3.90107">
        <ele>980</ele>
        <time>2011-06-01T10:25:28Z</time>
      </trkpt>
      <trkpt lat="44.6797" lon="3.90108">
        <ele>980</ele>
        <time>2011-06-01T10:25:43Z</time>
      </trkpt>
      <trkpt lat="44.67969" lon="3.90109">
        <ele>984</ele>
        <time>2011-06-01T10:26:13Z</time>
      </trkpt>
      <trkpt lat="44.67967" lon="3.90109">
        <ele>984</ele>
        <time>2011-06-01T10:26:42Z</time>
      </trkpt>
      <trkpt lat="44.67968" lon="3.90107">
        <ele>984</ele>
        <time>2011-06-01T10:26:58Z</time>
      </trkpt>
      <trkpt lat="44.67969" lon="3.90108">
        <ele>982</ele>
        <time>2011-06-01T10:27:13Z</time>
      </trkpt>
      <trkpt lat="44.67972" lon="3.90101">
        <ele>979</ele>
        <time>2011-06-01T10:27:23Z</time>
      </trkpt>
      <trkpt lat="44.67973" lon="3.90104">
        <ele>975</ele>
        <time>2011-06-01T10:27:37Z</time>
      </trkpt>
      <trkpt lat="44.67971" lon="3.90108">
        <ele>980</ele>
        <time>2011-06-01T10:27:47Z</time>
      </trkpt>
      <trkpt lat="44.67972" lon="3.90108">
        <ele>984</ele>
        <time>2011-06-01T10:28:00Z</time>
      </trkpt>
      <trkpt lat="44.6797" lon="3.90112">
        <ele>986</ele>
        <time>2011-06-01T10:28:30Z</time>
      </trkpt>
      <trkpt lat="44.67967" lon="3.90111">
        <ele>987</ele>
        <time>2011-06-01T10:28:43Z</time>
      </trkpt>
      <trkpt lat="44.67967" lon="3.90111">
        <ele>988</ele>
        <time>2011-06-01T10:28:54Z</time>
      </trkpt>
      <trkpt lat="44.67967" lon="3.90113">
        <ele>988</ele>
        <time>2011-06-01T10:29:10Z</time>
      </trkpt>
      <trkpt lat="44.67967" lon="3.90112">
        <ele>988</ele>
        <time>2011-06-01T10:29:20Z</time>
      </trkpt>
      <trkpt lat="44.6797" lon="3.90109">
        <ele>983</ele>
        <time>2011-06-01T10:29:30Z</time>
      </trkpt>
      <trkpt lat="44.67966" lon="3.90112">
        <ele>983</ele>
        <time>2011-06-01T10:29:47Z</time>
      </trkpt>
      <trkpt lat="44.67964" lon="3.90109">
        <ele>980</ele>
        <time>2011-06-01T10:30:03Z</time>
      </trkpt>
      <trkpt lat="44.67967" lon="3.90111">
        <ele>980</ele>
        <time>2011-06-01T10:30:18Z</time>
      </trkpt>
      <trkpt lat="44.67969" lon="3.90109">
        <ele>982</ele>
        <time>2011-06-01T10:30:55Z</time>
      </trkpt>
      <trkpt lat="44.67971" lon="3.90108">
        <ele>982</ele>
        <time>2011-06-01T10:31:23Z</time>
      </trkpt>
      <trkpt lat="44.67968" lon="3.90109">
        <ele>982</ele>
        <time>2011-06-01T10:31:36Z</time>
      </trkpt>
      <trkpt lat="44.67968" lon="3.90107">
        <ele>982</ele>
        <time>2011-06-01T10:31:48Z</time>
      </trkpt>
      <trkpt lat="44.67966" lon="3.9011">
        <ele>980</ele>
        <time>2011-06-01T10:32:07Z</time>
      </trkpt>
      <trkpt lat="44.67966" lon="3.9011">
        <ele>980</ele>
        <time>2011-06-01T10:32:23Z</time>
      </trkpt>
      <trkpt lat="44.67968" lon="3.90109">
        <ele>980</ele>
        <time>2011-06-01T10:32:33Z</time>
      </trkpt>
      <trkpt lat="44.6797" lon="3.90107">
        <ele>983</ele>
        <time>2011-06-01T10:32:52Z</time>
      </trkpt>
      <trkpt lat="44.6797" lon="3.90107">
        <ele>985</ele>
        <time>2011-06-01T10:33:17Z</time>
      </trkpt>
      <trkpt lat="44.67968" lon="3.90107">
        <ele>985</ele>
        <time>2011-06-01T10:33:28Z</time>
      </trkpt>
      <trkpt lat="44.67968" lon="3.90109">
        <ele>985</ele>
        <time>2011-06-01T10:33:38Z</time>
      </trkpt>
      <trkpt lat="44.67966" lon="3.90109">
        <ele>982</ele>
        <time>2011-06-01T10:33:51Z</time>
      </trkpt>
      <trkpt lat="44.67968" lon="3.90108">
        <ele>982</ele>
        <time>2011-06-01T10:34:02Z</time>
      </trkpt>
      <trkpt lat="44.6797" lon="3.9011">
        <ele>981</ele>
        <time>2011-06-01T10:34:15Z</time>
      </trkpt>
      <trkpt lat="44.67971" lon="3.90111">
        <ele>978</ele>
        <time>2011-06-01T10:34:32Z</time>
      </trkpt>
      <trkpt lat="44.6797" lon="3.9011">
        <ele>979</ele>
        <time>2011-06-01T10:34:47Z</time>
      </trkpt>
      <trkpt lat="44.67968" lon="3.9011">
        <ele>981</ele>
        <time>2011-06-01T10:35:01Z</time>
      </trkpt>
      <trkpt lat="44.67969" lon="3.90113">
        <ele>984</ele>
        <time>2011-06-01T10:35:19Z</time>
      </trkpt>
      <trkpt lat="44.67969" lon="3.90113">
        <ele>984</ele>
        <time>2011-06-01T10:35:31Z</time>
      </trkpt>
      <trkpt lat="44.67969" lon="3.90109">
        <ele>984</ele>
        <time>2011-06-01T10:35:41Z</time>
      </trkpt>
      <trkpt lat="44.6797" lon="3.90103">
        <ele>983</ele>
        <time>2011-06-01T10:35:51Z</time>
      </trkpt>
      <trkpt lat="44.67966" lon="3.90119">
        <ele>986</ele>
        <time>2011-06-01T10:36:02Z</time>
      </trkpt>
      <trkpt lat="44.67965" lon="3.90116">
        <ele>988</ele>
        <time>2011-06-01T10:36:16Z</time>
      </trkpt>
      <trkpt lat="44.67966" lon="3.90102">
        <ele>980</ele>
        <time>2011-06-01T10:36:27Z</time>
      </trkpt>
      <trkpt lat="44.67964" lon="3.90104">
        <ele>972</ele>
        <time>2011-06-01T10:36:38Z</time>
      </trkpt>
      <trkpt lat="44.67964" lon="3.9011">
        <ele>977</ele>
        <time>2011-06-01T10:36:52Z</time>
      </trkpt>
      <trkpt lat="44.67963" lon="3.90112">
        <ele>977</ele>
        <time>2011-06-01T10:37:30Z</time>
      </trkpt>
      <trkpt lat="44.67965" lon="3.90112">
        <ele>977</ele>
        <time>2011-06-01T10:37:44Z</time>
      </trkpt>
      <trkpt lat="44.67968" lon="3.90112">
        <ele>977</ele>
        <time>2011-06-01T10:37:57Z</time>
      </trkpt>
      <trkpt lat="44.6797" lon="3.90114">
        <ele>977</ele>
        <time>2011-06-01T10:38:15Z</time>
      </trkpt>
      <trkpt lat="44.6797" lon="3.90116">
        <ele>977</ele>
        <time>2011-06-01T10:38:25Z</time>
      </trkpt>
      <trkpt lat="44.67969" lon="3.90115">
        <ele>977</ele>
        <time>2011-06-01T10:38:38Z</time>
      </trkpt>
      <trkpt lat="44.67969" lon="3.90111">
        <ele>977</ele>
        <time>2011-06-01T10:38:53Z</time>
      </trkpt>
      <trkpt lat="44.67968" lon="3.90108">
        <ele>981</ele>
        <time>2011-06-01T10:39:09Z</time>
      </trkpt>
      <trkpt lat="44.67968" lon="3.90107">
        <ele>981</ele>
        <time>2011-06-01T10:39:32Z</time>
      </trkpt>
      <trkpt lat="44.67968" lon="3.90105">
        <ele>977</ele>
        <time>2011-06-01T10:39:50Z</time>
      </trkpt>
      <trkpt lat="44.67966" lon="3.90108">
        <ele>975</ele>
        <time>2011-06-01T10:40:01Z</time>
      </trkpt>
      <trkpt lat="44.67966" lon="3.9011">
        <ele>973</ele>
        <time>2011-06-01T10:40:14Z</time>
      </trkpt>
      <trkpt lat="44.67967" lon="3.9011">
        <ele>973</ele>
        <time>2011-06-01T10:40:29Z</time>
      </trkpt>
      <trkpt lat="44.67969" lon="3.90107">
        <ele>973</ele>
        <time>2011-06-01T10:40:40Z</time>
      </trkpt>
      <trkpt lat="44.6797" lon="3.90112">
        <ele>979</ele>
        <time>2011-06-01T10:41:00Z</time>
      </trkpt>
      <trkpt lat="44.6797" lon="3.9011">
        <ele>979</ele>
        <time>2011-06-01T10:41:17Z</time>
      </trkpt>
      <trkpt lat="44.67969" lon="3.90108">
        <ele>979</ele>
        <time>2011-06-01T10:41:50Z</time>
      </trkpt>
      <trkpt lat="44.67969" lon="3.90108">
        <ele>973</ele>
        <time>2011-06-01T10:42:04Z</time>
      </trkpt>
      <trkpt lat="44.67967" lon="3.90107">
        <ele>969</ele>
        <time>2011-06-01T10:42:15Z</time>
      </trkpt>
      <trkpt lat="44.67968" lon="3.90096">
        <ele>962</ele>
        <time>2011-06-01T10:42:29Z</time>
      </trkpt>
      <trkpt lat="44.6797" lon="3.90101">
        <ele>964</ele>
        <time>2011-06-01T10:42:40Z</time>
      </trkpt>
      <trkpt lat="44.6797" lon="3.90108">
        <ele>975</ele>
        <time>2011-06-01T10:42:54Z</time>
      </trkpt>
      <trkpt lat="44.6797" lon="3.90111">
        <ele>984</ele>
        <time>2011-06-01T10:43:10Z</time>
      </trkpt>
      <trkpt lat="44.6797" lon="3.90109">
        <ele>986</ele>
        <time>2011-06-01T10:43:27Z</time>
      </trkpt>
      <trkpt lat="44.6797" lon="3.9011">
        <ele>986</ele>
        <time>2011-06-01T10:43:38Z</time>
      </trkpt>
      <trkpt lat="44.67975" lon="3.90101">
        <ele>978</ele>
        <time>2011-06-01T10:43:52Z</time>
      </trkpt>
      <trkpt lat="44.67973" lon="3.90108">
        <ele>984</ele>
        <time>2011-06-01T10:44:03Z</time>
      </trkpt>
      <trkpt lat="44.6797" lon="3.90109">
        <ele>984</ele>
        <time>2011-06-01T10:44:13Z</time>
      </trkpt>
      <trkpt lat="44.67968" lon="3.90109">
        <ele>982</ele>
        <time>2011-06-01T10:44:36Z</time>
      </trkpt>
      <trkpt lat="44.67968" lon="3.9011">
        <ele>982</ele>
        <time>2011-06-01T10:45:13Z</time>
      </trkpt>
      <trkpt lat="44.67968" lon="3.90111">
        <ele>983</ele>
        <time>2011-06-01T10:45:29Z</time>
      </trkpt>
      <trkpt lat="44.67968" lon="3.90109">
        <ele>981</ele>
        <time>2011-06-01T10:45:59Z</time>
      </trkpt>
      <trkpt lat="44.67969" lon="3.90111">
        <ele>980</ele>
        <time>2011-06-01T10:46:11Z</time>
      </trkpt>
      <trkpt lat="44.67968" lon="3.90113">
        <ele>983</ele>
        <time>2011-06-01T10:46:21Z</time>
      </trkpt>
      <trkpt lat="44.67967" lon="3.90111">
        <ele>983</ele>
        <time>2011-06-01T10:46:34Z</time>
      </trkpt>
      <trkpt lat="44.67968" lon="3.90107">
        <ele>978</ele>
        <time>2011-06-01T10:46:58Z</time>
      </trkpt>
      <trkpt lat="44.67966" lon="3.90104">
        <ele>973</ele>
        <time>2011-06-01T10:47:09Z</time>
      </trkpt>
      <trkpt lat="44.67964" lon="3.90103">
        <ele>973</ele>
        <time>2011-06-01T10:47:20Z</time>
      </trkpt>
      <trkpt lat="44.67968" lon="3.90105">
        <ele>980</ele>
        <time>2011-06-01T10:47:33Z</time>
      </trkpt>
      <trkpt lat="44.67969" lon="3.90107">
        <ele>981</ele>
        <time>2011-06-01T10:47:50Z</time>
      </trkpt>
      <trkpt lat="44.67968" lon="3.9011">
        <ele>981</ele>
        <time>2011-06-01T10:48:12Z</time>
      </trkpt>
      <trkpt lat="44.67967" lon="3.90108">
        <ele>981</ele>
        <time>2011-06-01T10:48:24Z</time>
      </trkpt>
      <trkpt lat="44.67966" lon="3.90103">
        <ele>979</ele>
        <time>2011-06-01T10:48:36Z</time>
      </trkpt>
      <trkpt lat="44.67966" lon="3.90104">
        <ele>975</ele>
        <time>2011-06-01T10:48:48Z</time>
      </trkpt>
      <trkpt lat="44.67968" lon="3.90105">
        <ele>982</ele>
        <time>2011-06-01T10:49:02Z</time>
      </trkpt>
      <trkpt lat="44.67968" lon="3.90106">
        <ele>983</ele>
        <time>2011-06-01T10:49:15Z</time>
      </trkpt>
      <trkpt lat="44.67969" lon="3.90106">
        <ele>983</ele>
        <time>2011-06-01T10:49:38Z</time>
      </trkpt>
      <trkpt lat="44.67968" lon="3.90105">
        <ele>982</ele>
        <time>2011-06-01T10:49:49Z</time>
      </trkpt>
      <trkpt lat="44.67967" lon="3.90109">
        <ele>982</ele>
        <time>2011-06-01T10:50:06Z</time>
      </trkpt>
      <trkpt lat="44.67966" lon="3.90108">
        <ele>982</ele>
        <time>2011-06-01T10:50:20Z</time>
      </trkpt>
      <trkpt lat="44.67968" lon="3.90106">
        <ele>980</ele>
        <time>2011-06-01T10:50:30Z</time>
      </trkpt>
      <trkpt lat="44.67968" lon="3.90107">
        <ele>979</ele>
        <time>2011-06-01T10:50:48Z</time>
      </trkpt>
      <trkpt lat="44.67968" lon="3.90107">
        <ele>974</ele>
        <time>2011-06-01T10:51:05Z</time>
      </trkpt>
      <trkpt lat="44.67969" lon="3.90107">
        <ele>978</ele>
        <time>2011-06-01T10:51:45Z</time>
      </trkpt>
      <trkpt lat="44.67968" lon="3.90111">
        <ele>988</ele>
        <time>2011-06-01T10:52:01Z</time>
      </trkpt>
      <trkpt lat="44.67968" lon="3.9011">
        <ele>986</ele>
        <time>2011-06-01T10:52:15Z</time>
      </trkpt>
      <trkpt lat="44.67966" lon="3.90104">
        <ele>975</ele>
        <time>2011-06-01T10:52:29Z</time>
      </trkpt>
      <trkpt lat="44.67964" lon="3.90106">
        <ele>972</ele>
        <time>2011-06-01T10:52:47Z</time>
      </trkpt>
      <trkpt lat="44.67965" lon="3.90109">
        <ele>975</ele>
        <time>2011-06-01T10:53:00Z</time>
      </trkpt>
      <trkpt lat="44.67968" lon="3.9011">
        <ele>979</ele>
        <time>2011-06-01T10:53:12Z</time>
      </trkpt>
      <trkpt lat="44.67969" lon="3.9011">
        <ele>985</ele>
        <time>2011-06-01T10:53:31Z</time>
      </trkpt>
      <trkpt lat="44.67968" lon="3.90111">
        <ele>989</ele>
        <time>2011-06-01T10:53:46Z</time>
      </trkpt>
      <trkpt lat="44.67967" lon="3.9011">
        <ele>985</ele>
        <time>2011-06-01T10:54:06Z</time>
      </trkpt>
      <trkpt lat="44.67965" lon="3.90109">
        <ele>980</ele>
        <time>2011-06-01T10:54:18Z</time>
      </trkpt>
      <trkpt lat="44.67965" lon="3.90109">
        <ele>983</ele>
        <time>2011-06-01T10:54:32Z</time>
      </trkpt>
      <trkpt lat="44.67966" lon="3.90111">
        <ele>983</ele>
        <time>2011-06-01T10:54:44Z</time>
      </trkpt>
      <trkpt lat="44.67969" lon="3.90123">
        <ele>983</ele>
        <time>2011-06-01T10:54:54Z</time>
      </trkpt>
      <trkpt lat="44.67968" lon="3.90135">
        <ele>983</ele>
        <time>2011-06-01T10:55:04Z</time>
      </trkpt>
      <trkpt lat="44.67959" lon="3.90137">
        <ele>983</ele>
        <time>2011-06-01T10:55:14Z</time>
      </trkpt>
      <trkpt lat="44.67952" lon="3.90146">
        <ele>982</ele>
        <time>2011-06-01T10:55:24Z</time>
      </trkpt>
      <trkpt lat="44.67945" lon="3.90157">
        <ele>980</ele>
        <time>2011-06-01T10:55:34Z</time>
      </trkpt>
      <trkpt lat="44.67932" lon="3.90154">
        <ele>977</ele>
        <time>2011-06-01T10:55:44Z</time>
      </trkpt>
      <trkpt lat="44.67921" lon="3.90145">
        <ele>977</ele>
        <time>2011-06-01T10:55:54Z</time>
      </trkpt>
      <trkpt lat="44.67909" lon="3.90141">
        <ele>975</ele>
        <time>2011-06-01T10:56:04Z</time>
      </trkpt>
      <trkpt lat="44.67897" lon="3.9014">
        <ele>973</ele>
        <time>2011-06-01T10:56:14Z</time>
      </trkpt>
      <trkpt lat="44.67884" lon="3.90139">
        <ele>972</ele>
        <time>2011-06-01T10:56:24Z</time>
      </trkpt>
      <trkpt lat="44.67873" lon="3.90139">
        <ele>970</ele>
        <time>2011-06-01T10:56:35Z</time>
      </trkpt>
      <trkpt lat="44.67861" lon="3.90136">
        <ele>970</ele>
        <time>2011-06-01T10:56:46Z</time>
      </trkpt>
      <trkpt lat="44.6785" lon="3.90127">
        <ele>969</ele>
        <time>2011-06-01T10:56:57Z</time>
      </trkpt>
      <trkpt lat="44.67841" lon="3.90121">
        <ele>969</ele>
        <time>2011-06-01T10:57:07Z</time>
      </trkpt>
      <trkpt lat="44.67833" lon="3.90116">
        <ele>969</ele>
        <time>2011-06-01T10:57:17Z</time>
      </trkpt>
      <trkpt lat="44.67822" lon="3.90112">
        <ele>969</ele>
        <time>2011-06-01T10:57:28Z</time>
      </trkpt>
      <trkpt lat="44.67812" lon="3.90112">
        <ele>969</ele>
        <time>2011-06-01T10:57:39Z</time>
      </trkpt>
      <trkpt lat="44.67801" lon="3.90118">
        <ele>969</ele>
        <time>2011-06-01T10:57:49Z</time>
      </trkpt>
      <trkpt lat="44.67791" lon="3.90123">
        <ele>969</ele>
        <time>2011-06-01T10:58:00Z</time>
      </trkpt>
      <trkpt lat="44.6778" lon="3.90126">
        <ele>969</ele>
        <time>2011-06-01T10:58:10Z</time>
      </trkpt>
      <trkpt lat="44.67768" lon="3.9013">
        <ele>969</ele>
        <time>2011-06-01T10:58:21Z</time>
      </trkpt>
      <trkpt lat="44.67766" lon="3.9013">
        <ele>969</ele>
        <time>2011-06-01T10:58:45Z</time>
      </trkpt>
      <trkpt lat="44.67758" lon="3.90135">
        <ele>969</ele>
        <time>2011-06-01T10:58:55Z</time>
      </trkpt>
      <trkpt lat="44.67747" lon="3.90143">
        <ele>969</ele>
        <time>2011-06-01T10:59:05Z</time>
      </trkpt>
      <trkpt lat="44.67738" lon="3.90144">
        <ele>969</ele>
        <time>2011-06-01T10:59:15Z</time>
      </trkpt>
      <trkpt lat="44.67726" lon="3.90149">
        <ele>969</ele>
        <time>2011-06-01T10:59:25Z</time>
      </trkpt>
      <trkpt lat="44.67716" lon="3.90153">
        <ele>969</ele>
        <time>2011-06-01T10:59:35Z</time>
      </trkpt>
      <trkpt lat="44.67705" lon="3.90153">
        <ele>969</ele>
        <time>2011-06-01T10:59:46Z</time>
      </trkpt>
      <trkpt lat="44.67693" lon="3.90153">
        <ele>969</ele>
        <time>2011-06-01T10:59:57Z</time>
      </trkpt>
      <trkpt lat="44.67682" lon="3.90152">
        <ele>969</ele>
        <time>2011-06-01T11:00:07Z</time>
      </trkpt>
      <trkpt lat="44.6767" lon="3.90153">
        <ele>969</ele>
        <time>2011-06-01T11:00:17Z</time>
      </trkpt>
      <trkpt lat="44.6766" lon="3.90154">
        <ele>969</ele>
        <time>2011-06-01T11:00:27Z</time>
      </trkpt>
      <trkpt lat="44.67654" lon="3.90159">
        <ele>969</ele>
        <time>2011-06-01T11:00:38Z</time>
      </trkpt>
      <trkpt lat="44.6765" lon="3.90162">
        <ele>969</ele>
        <time>2011-06-01T11:00:50Z</time>
      </trkpt>
      <trkpt lat="44.67643" lon="3.9017">
        <ele>969</ele>
        <time>2011-06-01T11:01:00Z</time>
      </trkpt>
      <trkpt lat="44.67636" lon="3.90179">
        <ele>969</ele>
        <time>2011-06-01T11:01:10Z</time>
      </trkpt>
      <trkpt lat="44.6763" lon="3.90187">
        <ele>973</ele>
        <time>2011-06-01T11:01:20Z</time>
      </trkpt>
      <trkpt lat="44.67624" lon="3.90193">
        <ele>975</ele>
        <time>2011-06-01T11:01:30Z</time>
      </trkpt>
      <trkpt lat="44.67619" lon="3.90202">
        <ele>978</ele>
        <time>2011-06-01T11:01:42Z</time>
      </trkpt>
      <trkpt lat="44.67618" lon="3.90199">
        <ele>980</ele>
        <time>2011-06-01T11:01:54Z</time>
      </trkpt>
      <trkpt lat="44.67618" lon="3.90201">
        <ele>980</ele>
        <time>2011-06-01T11:02:04Z</time>
      </trkpt>
      <trkpt lat="44.67619" lon="3.90202">
        <ele>981</ele>
        <time>2011-06-01T11:02:24Z</time>
      </trkpt>
      <trkpt lat="44.67618" lon="3.90202">
        <ele>983</ele>
        <time>2011-06-01T11:02:36Z</time>
      </trkpt>
      <trkpt lat="44.67616" lon="3.90206">
        <ele>983</ele>
        <time>2011-06-01T11:02:47Z</time>
      </trkpt>
      <trkpt lat="44.67609" lon="3.90218">
        <ele>983</ele>
        <time>2011-06-01T11:02:57Z</time>
      </trkpt>
      <trkpt lat="44.67601" lon="3.90231">
        <ele>983</ele>
        <time>2011-06-01T11:03:08Z</time>
      </trkpt>
      <trkpt lat="44.67594" lon="3.90245">
        <ele>983</ele>
        <time>2011-06-01T11:03:18Z</time>
      </trkpt>
      <trkpt lat="44.67587" lon="3.9026">
        <ele>983</ele>
        <time>2011-06-01T11:03:29Z</time>
      </trkpt>
      <trkpt lat="44.67583" lon="3.90273">
        <ele>983</ele>
        <time>2011-06-01T11:03:39Z</time>
      </trkpt>
      <trkpt lat="44.67579" lon="3.9029">
        <ele>983</ele>
        <time>2011-06-01T11:03:49Z</time>
      </trkpt>
      <trkpt lat="44.67574" lon="3.90306">
        <ele>983</ele>
        <time>2011-06-01T11:03:59Z</time>
      </trkpt>
      <trkpt lat="44.67568" lon="3.90321">
        <ele>983</ele>
        <time>2011-06-01T11:04:09Z</time>
      </trkpt>
      <trkpt lat="44.67562" lon="3.90337">
        <ele>983</ele>
        <time>2011-06-01T11:04:20Z</time>
      </trkpt>
      <trkpt lat="44.67555" lon="3.90353">
        <ele>983</ele>
        <time>2011-06-01T11:04:31Z</time>
      </trkpt>
      <trkpt lat="44.67549" lon="3.90369">
        <ele>983</ele>
        <time>2011-06-01T11:04:41Z</time>
      </trkpt>
      <trkpt lat="44.67542" lon="3.90384">
        <ele>983</ele>
        <time>2011-06-01T11:04:51Z</time>
      </trkpt>
      <trkpt lat="44.67532" lon="3.90397">
        <ele>983</ele>
        <time>2011-06-01T11:05:01Z</time>
      </trkpt>
      <trkpt lat="44.67521" lon="3.90406">
        <ele>983</ele>
        <time>2011-06-01T11:05:11Z</time>
      </trkpt>
      <trkpt lat="44.67509" lon="3.90413">
        <ele>983</ele>
        <time>2011-06-01T11:05:22Z</time>
      </trkpt>
      <trkpt lat="44.67496" lon="3.9042">
        <ele>983</ele>
        <time>2011-06-01T11:05:33Z</time>
      </trkpt>
      <trkpt lat="44.67487" lon="3.90428">
        <ele>983</ele>
        <time>2011-06-01T11:05:43Z</time>
      </trkpt>
      <trkpt lat="44.67477" lon="3.90436">
        <ele>983</ele>
        <time>2011-06-01T11:05:53Z</time>
      </trkpt>
      <trkpt lat="44.6747" lon="3.90449">
        <ele>983</ele>
        <time>2011-06-01T11:06:03Z</time>
      </trkpt>
      <trkpt lat="44.67464" lon="3.90466">
        <ele>983</ele>
        <time>2011-06-01T11:06:13Z</time>
      </trkpt>
      <trkpt lat="44.67455" lon="3.90482">
        <ele>984</ele>
        <time>2011-06-01T11:06:24Z</time>
      </trkpt>
      <trkpt lat="44.67446" lon="3.90496">
        <ele>984</ele>
        <time>2011-06-01T11:06:34Z</time>
      </trkpt>
      <trkpt lat="44.67436" lon="3.90507">
        <ele>984</ele>
        <time>2011-06-01T11:06:44Z</time>
      </trkpt>
      <trkpt lat="44.67425" lon="3.90517">
        <ele>984</ele>
        <time>2011-06-01T11:06:54Z</time>
      </trkpt>
      <trkpt lat="44.67413" lon="3.90525">
        <ele>985</ele>
        <time>2011-06-01T11:07:04Z</time>
      </trkpt>
      <trkpt lat="44.67401" lon="3.90531">
        <ele>985</ele>
        <time>2011-06-01T11:07:14Z</time>
      </trkpt>
      <trkpt lat="44.67389" lon="3.90538">
        <ele>985</ele>
        <time>2011-06-01T11:07:24Z</time>
      </trkpt>
      <trkpt lat="44.67377" lon="3.90544">
        <ele>985</ele>
        <time>2011-06-01T11:07:34Z</time>
      </trkpt>
      <trkpt lat="44.67365" lon="3.90552">
        <ele>985</ele>
        <time>2011-06-01T11:07:44Z</time>
      </trkpt>
      <trkpt lat="44.67354" lon="3.90558">
        <ele>985</ele>
        <time>2011-06-01T11:07:54Z</time>
      </trkpt>
      <trkpt lat="44.67342" lon="3.90565">
        <ele>985</ele>
        <time>2011-06-01T11:08:04Z</time>
      </trkpt>
      <trkpt lat="44.67331" lon="3.90574">
        <ele>986</ele>
        <time>2011-06-01T11:08:14Z</time>
      </trkpt>
      <trkpt lat="44.67319" lon="3.90584">
        <ele>986</ele>
        <time>2011-06-01T11:08:25Z</time>
      </trkpt>
      <trkpt lat="44.67309" lon="3.90597">
        <ele>986</ele>
        <time>2011-06-01T11:08:36Z</time>
      </trkpt>
      <trkpt lat="44.67298" lon="3.9061">
        <ele>986</ele>
        <time>2011-06-01T11:08:47Z</time>
      </trkpt>
      <trkpt lat="44.67288" lon="3.90621">
        <ele>986</ele>
        <time>2011-06-01T11:08:57Z</time>
      </trkpt>
      <trkpt lat="44.67277" lon="3.9063">
        <ele>986</ele>
        <time>2011-06-01T11:09:07Z</time>
      </trkpt>
      <trkpt lat="44.67265" lon="3.90636">
        <ele>986</ele>
        <time>2011-06-01T11:09:17Z</time>
      </trkpt>
      <trkpt lat="44.67253" lon="3.90641">
        <ele>986</ele>
        <time>2011-06-01T11:09:27Z</time>
      </trkpt>
      <trkpt lat="44.6724" lon="3.90641">
        <ele>986</ele>
        <time>2011-06-01T11:09:37Z</time>
      </trkpt>
      <trkpt lat="44.67227" lon="3.90638">
        <ele>986</ele>
        <time>2011-06-01T11:09:47Z</time>
      </trkpt>
      <trkpt lat="44.67215" lon="3.90635">
        <ele>986</ele>
        <time>2011-06-01T11:09:57Z</time>
      </trkpt>
      <trkpt lat="44.67202" lon="3.90633">
        <ele>986</ele>
        <time>2011-06-01T11:10:07Z</time>
      </trkpt>
      <trkpt lat="44.67189" lon="3.90632">
        <ele>986</ele>
        <time>2011-06-01T11:10:17Z</time>
      </trkpt>
      <trkpt lat="44.67177" lon="3.90632">
        <ele>987</ele>
        <time>2011-06-01T11:10:27Z</time>
      </trkpt>
      <trkpt lat="44.67165" lon="3.90636">
        <ele>988</ele>
        <time>2011-06-01T11:10:37Z</time>
      </trkpt>
      <trkpt lat="44.67153" lon="3.90642">
        <ele>989</ele>
        <time>2011-06-01T11:10:47Z</time>
      </trkpt>
      <trkpt lat="44.67141" lon="3.90647">
        <ele>989</ele>
        <time>2011-06-01T11:10:57Z</time>
      </trkpt>
      <trkpt lat="44.6713" lon="3.90652">
        <ele>989</ele>
        <time>2011-06-01T11:11:07Z</time>
      </trkpt>
      <trkpt lat="44.67119" lon="3.90657">
        <ele>989</ele>
        <time>2011-06-01T11:11:17Z</time>
      </trkpt>
      <trkpt lat="44.67108" lon="3.90667">
        <ele>989</ele>
        <time>2011-06-01T11:11:28Z</time>
      </trkpt>
      <trkpt lat="44.67097" lon="3.90679">
        <ele>990</ele>
        <time>2011-06-01T11:11:38Z</time>
      </trkpt>
      <trkpt lat="44.67086" lon="3.90689">
        <ele>992</ele>
        <time>2011-06-01T11:11:49Z</time>
      </trkpt>
      <trkpt lat="44.67075" lon="3.90697">
        <ele>992</ele>
        <time>2011-06-01T11:11:59Z</time>
      </trkpt>
      <trkpt lat="44.67063" lon="3.90699">
        <ele>992</ele>
        <time>2011-06-01T11:12:09Z</time>
      </trkpt>
      <trkpt lat="44.67052" lon="3.907">
        <ele>993</ele>
        <time>2011-06-01T11:12:19Z</time>
      </trkpt>
      <trkpt lat="44.67044" lon="3.90701">
        <ele>993</ele>
        <time>2011-06-01T11:12:32Z</time>
      </trkpt>
      <trkpt lat="44.67042" lon="3.90702">
        <ele>1001</ele>
        <time>2011-06-01T11:12:50Z</time>
      </trkpt>
      <trkpt lat="44.67034" lon="3.90703">
        <ele>1001</ele>
        <time>2011-06-01T11:13:01Z</time>
      </trkpt>
      <trkpt lat="44.67025" lon="3.90704">
        <ele>1001</ele>
        <time>2011-06-01T11:13:11Z</time>
      </trkpt>
      <trkpt lat="44.67016" lon="3.90706">
        <ele>1001</ele>
        <time>2011-06-01T11:13:21Z</time>
      </trkpt>
      <trkpt lat="44.67006" lon="3.90708">
        <ele>1000</ele>
        <time>2011-06-01T11:13:31Z</time>
      </trkpt>
      <trkpt lat="44.66996" lon="3.90707">
        <ele>997</ele>
        <time>2011-06-01T11:13:41Z</time>
      </trkpt>
      <trkpt lat="44.66985" lon="3.90707">
        <ele>996</ele>
        <time>2011-06-01T11:13:51Z</time>
      </trkpt>
      <trkpt lat="44.66973" lon="3.90709">
        <ele>996</ele>
        <time>2011-06-01T11:14:01Z</time>
      </trkpt>
      <trkpt lat="44.66962" lon="3.90707">
        <ele>996</ele>
        <time>2011-06-01T11:14:11Z</time>
      </trkpt>
      <trkpt lat="44.66949" lon="3.90705">
        <ele>999</ele>
        <time>2011-06-01T11:14:22Z</time>
      </trkpt>
      <trkpt lat="44.66937" lon="3.90703">
        <ele>1000</ele>
        <time>2011-06-01T11:14:32Z</time>
      </trkpt>
      <trkpt lat="44.66925" lon="3.90702">
        <ele>1000</ele>
        <time>2011-06-01T11:14:43Z</time>
      </trkpt>
      <trkpt lat="44.66913" lon="3.90699">
        <ele>1000</ele>
        <time>2011-06-01T11:14:54Z</time>
      </trkpt>
      <trkpt lat="44.66901" lon="3.90696">
        <ele>1002</ele>
        <time>2011-06-01T11:15:05Z</time>
      </trkpt>
      <trkpt lat="44.66888" lon="3.90692">
        <ele>1003</ele>
        <time>2011-06-01T11:15:16Z</time>
      </trkpt>
      <trkpt lat="44.66877" lon="3.90689">
        <ele>1005</ele>
        <time>2011-06-01T11:15:26Z</time>
      </trkpt>
      <trkpt lat="44.66866" lon="3.90685">
        <ele>1007</ele>
        <time>2011-06-01T11:15:36Z</time>
      </trkpt>
      <trkpt lat="44.66855" lon="3.90682">
        <ele>1009</ele>
        <time>2011-06-01T11:15:46Z</time>
      </trkpt>
      <trkpt lat="44.66844" lon="3.90677">
        <ele>1010</ele>
        <time>2011-06-01T11:15:56Z</time>
      </trkpt>
      <trkpt lat="44.66834" lon="3.90672">
        <ele>1010</ele>
        <time>2011-06-01T11:16:06Z</time>
      </trkpt>
      <trkpt lat="44.66824" lon="3.90669">
        <ele>1013</ele>
        <time>2011-06-01T11:16:16Z</time>
      </trkpt>
      <trkpt lat="44.66812" lon="3.90664">
        <ele>1014</ele>
        <time>2011-06-01T11:16:27Z</time>
      </trkpt>
      <trkpt lat="44.66802" lon="3.90655">
        <ele>1015</ele>
        <time>2011-06-01T11:16:37Z</time>
      </trkpt>
      <trkpt lat="44.66795" lon="3.90639">
        <ele>1016</ele>
        <time>2011-06-01T11:16:48Z</time>
      </trkpt>
      <trkpt lat="44.66794" lon="3.90623">
        <ele>1018</ele>
        <time>2011-06-01T11:16:59Z</time>
      </trkpt>
      <trkpt lat="44.66797" lon="3.90608">
        <ele>1018</ele>
        <time>2011-06-01T11:17:10Z</time>
      </trkpt>
      <trkpt lat="44.66803" lon="3.90595">
        <ele>1020</ele>
        <time>2011-06-01T11:17:21Z</time>
      </trkpt>
      <trkpt lat="44.66809" lon="3.90583">
        <ele>1021</ele>
        <time>2011-06-01T11:17:31Z</time>
      </trkpt>
      <trkpt lat="44.66815" lon="3.90567">
        <ele>1023</ele>
        <time>2011-06-01T11:17:42Z</time>
      </trkpt>
      <trkpt lat="44.66821" lon="3.90551">
        <ele>1026</ele>
        <time>2011-06-01T11:17:52Z</time>
      </trkpt>
      <trkpt lat="44.66824" lon="3.90535">
        <ele>1027</ele>
        <time>2011-06-01T11:18:02Z</time>
      </trkpt>
      <trkpt lat="44.66827" lon="3.90517">
        <ele>1029</ele>
        <time>2011-06-01T11:18:12Z</time>
      </trkpt>
      <trkpt lat="44.66829" lon="3.90501">
        <ele>1030</ele>
        <time>2011-06-01T11:18:22Z</time>
      </trkpt>
      <trkpt lat="44.66831" lon="3.90484">
        <ele>1030</ele>
        <time>2011-06-01T11:18:32Z</time>
      </trkpt>
      <trkpt lat="44.66832" lon="3.90467">
        <ele>1030</ele>
        <time>2011-06-01T11:18:42Z</time>
      </trkpt>
      <trkpt lat="44.66834" lon="3.90451">
        <ele>1030</ele>
        <time>2011-06-01T11:18:52Z</time>
      </trkpt>
      <trkpt lat="44.66838" lon="3.90436">
        <ele>1031</ele>
        <time>2011-06-01T11:19:02Z</time>
      </trkpt>
      <trkpt lat="44.66833" lon="3.90423">
        <ele>1031</ele>
        <time>2011-06-01T11:19:12Z</time>
      </trkpt>
      <trkpt lat="44.66823" lon="3.90422">
        <ele>1031</ele>
        <time>2011-06-01T11:19:22Z</time>
      </trkpt>
      <trkpt lat="44.66812" lon="3.90424">
        <ele>1031</ele>
        <time>2011-06-01T11:19:32Z</time>
      </trkpt>
      <trkpt lat="44.66801" lon="3.90428">
        <ele>1031</ele>
        <time>2011-06-01T11:19:42Z</time>
      </trkpt>
      <trkpt lat="44.66789" lon="3.90428">
        <ele>1032</ele>
        <time>2011-06-01T11:19:52Z</time>
      </trkpt>
      <trkpt lat="44.66777" lon="3.90428">
        <ele>1032</ele>
        <time>2011-06-01T11:20:02Z</time>
      </trkpt>
      <trkpt lat="44.66766" lon="3.90425">
        <ele>1032</ele>
        <time>2011-06-01T11:20:12Z</time>
      </trkpt>
      <trkpt lat="44.66755" lon="3.90423">
        <ele>1033</ele>
        <time>2011-06-01T11:20:22Z</time>
      </trkpt>
      <trkpt lat="44.66744" lon="3.90421">
        <ele>1034</ele>
        <time>2011-06-01T11:20:32Z</time>
      </trkpt>
      <trkpt lat="44.66732" lon="3.90419">
        <ele>1035</ele>
        <time>2011-06-01T11:20:42Z</time>
      </trkpt>
      <trkpt lat="44.66721" lon="3.90417">
        <ele>1037</ele>
        <time>2011-06-01T11:20:52Z</time>
      </trkpt>
      <trkpt lat="44.66711" lon="3.90413">
        <ele>1037</ele>
        <time>2011-06-01T11:21:02Z</time>
      </trkpt>
      <trkpt lat="44.66699" lon="3.90409">
        <ele>1038</ele>
        <time>2011-06-01T11:21:13Z</time>
      </trkpt>
      <trkpt lat="44.66687" lon="3.90405">
        <ele>1039</ele>
        <time>2011-06-01T11:21:23Z</time>
      </trkpt>
      <trkpt lat="44.66676" lon="3.90401">
        <ele>1041</ele>
        <time>2011-06-01T11:21:33Z</time>
      </trkpt>
      <trkpt lat="44.66666" lon="3.90397">
        <ele>1043</ele>
        <time>2011-06-01T11:21:43Z</time>
      </trkpt>
      <trkpt lat="44.66655" lon="3.90389">
        <ele>1045</ele>
        <time>2011-06-01T11:21:54Z</time>
      </trkpt>
      <trkpt lat="44.66645" lon="3.90385">
        <ele>1045</ele>
        <time>2011-06-01T11:22:04Z</time>
      </trkpt>
      <trkpt lat="44.66634" lon="3.9038">
        <ele>1046</ele>
        <time>2011-06-01T11:22:14Z</time>
      </trkpt>
      <trkpt lat="44.66623" lon="3.90377">
        <ele>1047</ele>
        <time>2011-06-01T11:22:24Z</time>
      </trkpt>
      <trkpt lat="44.66611" lon="3.90374">
        <ele>1048</ele>
        <time>2011-06-01T11:22:35Z</time>
      </trkpt>
      <trkpt lat="44.666" lon="3.90368">
        <ele>1049</ele>
        <time>2011-06-01T11:22:46Z</time>
      </trkpt>
      <trkpt lat="44.6659" lon="3.90362">
        <ele>1051</ele>
        <time>2011-06-01T11:22:56Z</time>
      </trkpt>
      <trkpt lat="44.6658" lon="3.90353">
        <ele>1052</ele>
        <time>2011-06-01T11:23:07Z</time>
      </trkpt>
      <trkpt lat="44.66568" lon="3.90344">
        <ele>1053</ele>
        <time>2011-06-01T11:23:18Z</time>
      </trkpt>
      <trkpt lat="44.66557" lon="3.90336">
        <ele>1055</ele>
        <time>2011-06-01T11:23:29Z</time>
      </trkpt>
      <trkpt lat="44.66546" lon="3.90331">
        <ele>1055</ele>
        <time>2011-06-01T11:23:39Z</time>
      </trkpt>
      <trkpt lat="44.66534" lon="3.90326">
        <ele>1055</ele>
        <time>2011-06-01T11:23:50Z</time>
      </trkpt>
      <trkpt lat="44.66522" lon="3.90322">
        <ele>1055</ele>
        <time>2011-06-01T11:24:00Z</time>
      </trkpt>
      <trkpt lat="44.66511" lon="3.90317">
        <ele>1055</ele>
        <time>2011-06-01T11:24:10Z</time>
      </trkpt>
      <trkpt lat="44.66499" lon="3.90308">
        <ele>1056</ele>
        <time>2011-06-01T11:24:21Z</time>
      </trkpt>
      <trkpt lat="44.66489" lon="3.903">
        <ele>1057</ele>
        <time>2011-06-01T11:24:31Z</time>
      </trkpt>
      <trkpt lat="44.66478" lon="3.90296">
        <ele>1057</ele>
        <time>2011-06-01T11:24:41Z</time>
      </trkpt>
      <trkpt lat="44.66466" lon="3.90294">
        <ele>1057</ele>
        <time>2011-06-01T11:24:51Z</time>
      </trkpt>
      <trkpt lat="44.66454" lon="3.90293">
        <ele>1057</ele>
        <time>2011-06-01T11:25:01Z</time>
      </trkpt>
      <trkpt lat="44.66442" lon="3.90292">
        <ele>1057</ele>
        <time>2011-06-01T11:25:12Z</time>
      </trkpt>
      <trkpt lat="44.6643" lon="3.9029">
        <ele>1057</ele>
        <time>2011-06-01T11:25:22Z</time>
      </trkpt>
      <trkpt lat="44.66418" lon="3.90285">
        <ele>1057</ele>
        <time>2011-06-01T11:25:32Z</time>
      </trkpt>
      <trkpt lat="44.66407" lon="3.90282">
        <ele>1057</ele>
        <time>2011-06-01T11:25:42Z</time>
      </trkpt>
      <trkpt lat="44.66394" lon="3.90277">
        <ele>1057</ele>
        <time>2011-06-01T11:25:53Z</time>
      </trkpt>
      <trkpt lat="44.66383" lon="3.90271">
        <ele>1057</ele>
        <time>2011-06-01T11:26:03Z</time>
      </trkpt>
      <trkpt lat="44.66372" lon="3.90266">
        <ele>1057</ele>
        <time>2011-06-01T11:26:13Z</time>
      </trkpt>
      <trkpt lat="44.66361" lon="3.9026">
        <ele>1058</ele>
        <time>2011-06-01T11:26:23Z</time>
      </trkpt>
      <trkpt lat="44.66351" lon="3.90254">
        <ele>1060</ele>
        <time>2011-06-01T11:26:33Z</time>
      </trkpt>
      <trkpt lat="44.66339" lon="3.90248">
        <ele>1060</ele>
        <time>2011-06-01T11:26:44Z</time>
      </trkpt>
      <trkpt lat="44.66329" lon="3.90242">
        <ele>1061</ele>
        <time>2011-06-01T11:26:55Z</time>
      </trkpt>
      <trkpt lat="44.66319" lon="3.90236">
        <ele>1063</ele>
        <time>2011-06-01T11:27:06Z</time>
      </trkpt>
      <trkpt lat="44.66308" lon="3.90229">
        <ele>1065</ele>
        <time>2011-06-01T11:27:16Z</time>
      </trkpt>
      <trkpt lat="44.66299" lon="3.90221">
        <ele>1065</ele>
        <time>2011-06-01T11:27:27Z</time>
      </trkpt>
      <trkpt lat="44.66288" lon="3.90215">
        <ele>1065</ele>
        <time>2011-06-01T11:27:38Z</time>
      </trkpt>
      <trkpt lat="44.66276" lon="3.90211">
        <ele>1067</ele>
        <time>2011-06-01T11:27:49Z</time>
      </trkpt>
      <trkpt lat="44.66264" lon="3.90209">
        <ele>1069</ele>
        <time>2011-06-01T11:28:00Z</time>
      </trkpt>
      <trkpt lat="44.66254" lon="3.90209">
        <ele>1069</ele>
        <time>2011-06-01T11:28:10Z</time>
      </trkpt>
      <trkpt lat="44.66242" lon="3.9021">
        <ele>1069</ele>
        <time>2011-06-01T11:28:21Z</time>
      </trkpt>
      <trkpt lat="44.66232" lon="3.90214">
        <ele>1069</ele>
        <time>2011-06-01T11:28:31Z</time>
      </trkpt>
      <trkpt lat="44.66222" lon="3.90218">
        <ele>1069</ele>
        <time>2011-06-01T11:28:41Z</time>
      </trkpt>
      <trkpt lat="44.66212" lon="3.90223">
        <ele>1069</ele>
        <time>2011-06-01T11:28:51Z</time>
      </trkpt>
      <trkpt lat="44.66201" lon="3.9023">
        <ele>1071</ele>
        <time>2011-06-01T11:29:01Z</time>
      </trkpt>
      <trkpt lat="44.66189" lon="3.90238">
        <ele>1074</ele>
        <time>2011-06-01T11:29:11Z</time>
      </trkpt>
      <trkpt lat="44.66176" lon="3.90243">
        <ele>1074</ele>
        <time>2011-06-01T11:29:22Z</time>
      </trkpt>
      <trkpt lat="44.66164" lon="3.90245">
        <ele>1074</ele>
        <time>2011-06-01T11:29:32Z</time>
      </trkpt>
      <trkpt lat="44.66152" lon="3.90244">
        <ele>1076</ele>
        <time>2011-06-01T11:29:42Z</time>
      </trkpt>
      <trkpt lat="44.6614" lon="3.90246">
        <ele>1078</ele>
        <time>2011-06-01T11:29:52Z</time>
      </trkpt>
      <trkpt lat="44.66127" lon="3.90247">
        <ele>1078</ele>
        <time>2011-06-01T11:30:02Z</time>
      </trkpt>
      <trkpt lat="44.66117" lon="3.90252">
        <ele>1078</ele>
        <time>2011-06-01T11:30:12Z</time>
      </trkpt>
      <trkpt lat="44.66106" lon="3.9026">
        <ele>1079</ele>
        <time>2011-06-01T11:30:22Z</time>
      </trkpt>
      <trkpt lat="44.66096" lon="3.90274">
        <ele>1081</ele>
        <time>2011-06-01T11:30:32Z</time>
      </trkpt>
      <trkpt lat="44.66086" lon="3.90283">
        <ele>1083</ele>
        <time>2011-06-01T11:30:42Z</time>
      </trkpt>
      <trkpt lat="44.66074" lon="3.90293">
        <ele>1083</ele>
        <time>2011-06-01T11:30:53Z</time>
      </trkpt>
      <trkpt lat="44.66062" lon="3.90304">
        <ele>1083</ele>
        <time>2011-06-01T11:31:04Z</time>
      </trkpt>
      <trkpt lat="44.66051" lon="3.90316">
        <ele>1084</ele>
        <time>2011-06-01T11:31:15Z</time>
      </trkpt>
      <trkpt lat="44.66039" lon="3.90326">
        <ele>1084</ele>
        <time>2011-06-01T11:31:26Z</time>
      </trkpt>
      <trkpt lat="44.66029" lon="3.90337">
        <ele>1087</ele>
        <time>2011-06-01T11:31:37Z</time>
      </trkpt>
      <trkpt lat="44.66019" lon="3.90339">
        <ele>1087</ele>
        <time>2011-06-01T11:31:48Z</time>
      </trkpt>
      <trkpt lat="44.66018" lon="3.90341">
        <ele>1087</ele>
        <time>2011-06-01T11:32:05Z</time>
      </trkpt>
      <trkpt lat="44.66017" lon="3.90341">
        <ele>1088</ele>
        <time>2011-06-01T11:32:21Z</time>
      </trkpt>
      <trkpt lat="44.66005" lon="3.90343">
        <ele>1089</ele>
        <time>2011-06-01T11:32:31Z</time>
      </trkpt>
      <trkpt lat="44.65995" lon="3.90344">
        <ele>1089</ele>
        <time>2011-06-01T11:32:41Z</time>
      </trkpt>
      <trkpt lat="44.65987" lon="3.9034">
        <ele>1087</ele>
        <time>2011-06-01T11:32:51Z</time>
      </trkpt>
      <trkpt lat="44.65978" lon="3.90346">
        <ele>1082</ele>
        <time>2011-06-01T11:33:01Z</time>
      </trkpt>
      <trkpt lat="44.65967" lon="3.90356">
        <ele>1079</ele>
        <time>2011-06-01T11:33:12Z</time>
      </trkpt>
      <trkpt lat="44.65958" lon="3.90367">
        <ele>1078</ele>
        <time>2011-06-01T11:33:22Z</time>
      </trkpt>
      <trkpt lat="44.65947" lon="3.90382">
        <ele>1078</ele>
        <time>2011-06-01T11:33:32Z</time>
      </trkpt>
      <trkpt lat="44.65937" lon="3.90391">
        <ele>1078</ele>
        <time>2011-06-01T11:33:42Z</time>
      </trkpt>
      <trkpt lat="44.65925" lon="3.90394">
        <ele>1078</ele>
        <time>2011-06-01T11:33:53Z</time>
      </trkpt>
      <trkpt lat="44.65913" lon="3.90401">
        <ele>1078</ele>
        <time>2011-06-01T11:34:03Z</time>
      </trkpt>
      <trkpt lat="44.659" lon="3.90402">
        <ele>1079</ele>
        <time>2011-06-01T11:34:13Z</time>
      </trkpt>
      <trkpt lat="44.65887" lon="3.90398">
        <ele>1079</ele>
        <time>2011-06-01T11:34:24Z</time>
      </trkpt>
      <trkpt lat="44.65875" lon="3.90393">
        <ele>1078</ele>
        <time>2011-06-01T11:34:34Z</time>
      </trkpt>
      <trkpt lat="44.65863" lon="3.9039">
        <ele>1077</ele>
        <time>2011-06-01T11:34:44Z</time>
      </trkpt>
      <trkpt lat="44.6585" lon="3.90387">
        <ele>1077</ele>
        <time>2011-06-01T11:34:54Z</time>
      </trkpt>
      <trkpt lat="44.65837" lon="3.90382">
        <ele>1077</ele>
        <time>2011-06-01T11:35:04Z</time>
      </trkpt>
      <trkpt lat="44.65824" lon="3.90381">
        <ele>1076</ele>
        <time>2011-06-01T11:35:15Z</time>
      </trkpt>
      <trkpt lat="44.65811" lon="3.90378">
        <ele>1075</ele>
        <time>2011-06-01T11:35:25Z</time>
      </trkpt>
      <trkpt lat="44.65798" lon="3.90373">
        <ele>1075</ele>
        <time>2011-06-01T11:35:35Z</time>
      </trkpt>
      <trkpt lat="44.65786" lon="3.90366">
        <ele>1075</ele>
        <time>2011-06-01T11:35:45Z</time>
      </trkpt>
      <trkpt lat="44.65773" lon="3.90356">
        <ele>1075</ele>
        <time>2011-06-01T11:35:56Z</time>
      </trkpt>
      <trkpt lat="44.65762" lon="3.90346">
        <ele>1075</ele>
        <time>2011-06-01T11:36:06Z</time>
      </trkpt>
      <trkpt lat="44.65751" lon="3.90334">
        <ele>1075</ele>
        <time>2011-06-01T11:36:17Z</time>
      </trkpt>
      <trkpt lat="44.65741" lon="3.9032">
        <ele>1075</ele>
        <time>2011-06-01T11:36:28Z</time>
      </trkpt>
      <trkpt lat="44.65732" lon="3.90306">
        <ele>1075</ele>
        <time>2011-06-01T11:36:39Z</time>
      </trkpt>
      <trkpt lat="44.65723" lon="3.90295">
        <ele>1075</ele>
        <time>2011-06-01T11:36:49Z</time>
      </trkpt>
      <trkpt lat="44.65711" lon="3.90284">
        <ele>1075</ele>
        <time>2011-06-01T11:36:59Z</time>
      </trkpt>
      <trkpt lat="44.65699" lon="3.90274">
        <ele>1075</ele>
        <time>2011-06-01T11:37:09Z</time>
      </trkpt>
      <trkpt lat="44.65687" lon="3.90266">
        <ele>1075</ele>
        <time>2011-06-01T11:37:19Z</time>
      </trkpt>
      <trkpt lat="44.65675" lon="3.9026">
        <ele>1075</ele>
        <time>2011-06-01T11:37:29Z</time>
      </trkpt>
      <trkpt lat="44.65662" lon="3.90256">
        <ele>1075</ele>
        <time>2011-06-01T11:37:39Z</time>
      </trkpt>
      <trkpt lat="44.6565" lon="3.9025">
        <ele>1075</ele>
        <time>2011-06-01T11:37:49Z</time>
      </trkpt>
      <trkpt lat="44.65638" lon="3.90246">
        <ele>1075</ele>
        <time>2011-06-01T11:37:59Z</time>
      </trkpt>
      <trkpt lat="44.65624" lon="3.9024">
        <ele>1075</ele>
        <time>2011-06-01T11:38:10Z</time>
      </trkpt>
      <trkpt lat="44.65612" lon="3.90234">
        <ele>1075</ele>
        <time>2011-06-01T11:38:20Z</time>
      </trkpt>
      <trkpt lat="44.65599" lon="3.90228">
        <ele>1075</ele>
        <time>2011-06-01T11:38:31Z</time>
      </trkpt>
      <trkpt lat="44.65587" lon="3.90223">
        <ele>1073</ele>
        <time>2011-06-01T11:38:41Z</time>
      </trkpt>
      <trkpt lat="44.65574" lon="3.90224">
        <ele>1072</ele>
        <time>2011-06-01T11:38:51Z</time>
      </trkpt>
      <trkpt lat="44.6556" lon="3.90223">
        <ele>1072</ele>
        <time>2011-06-01T11:39:01Z</time>
      </trkpt>
      <trkpt lat="44.65548" lon="3.9022">
        <ele>1072</ele>
        <time>2011-06-01T11:39:11Z</time>
      </trkpt>
      <trkpt lat="44.65536" lon="3.90216">
        <ele>1072</ele>
        <time>2011-06-01T11:39:21Z</time>
      </trkpt>
      <trkpt lat="44.65525" lon="3.90212">
        <ele>1072</ele>
        <time>2011-06-01T11:39:31Z</time>
      </trkpt>
      <trkpt lat="44.65512" lon="3.90213">
        <ele>1072</ele>
        <time>2011-06-01T11:39:41Z</time>
      </trkpt>
      <trkpt lat="44.655" lon="3.90216">
        <ele>1072</ele>
        <time>2011-06-01T11:39:51Z</time>
      </trkpt>
      <trkpt lat="44.65488" lon="3.90217">
        <ele>1070</ele>
        <time>2011-06-01T11:40:02Z</time>
      </trkpt>
      <trkpt lat="44.65475" lon="3.90219">
        <ele>1070</ele>
        <time>2011-06-01T11:40:12Z</time>
      </trkpt>
      <trkpt lat="44.65461" lon="3.90215">
        <ele>1070</ele>
        <time>2011-06-01T11:40:23Z</time>
      </trkpt>
      <trkpt lat="44.65449" lon="3.90213">
        <ele>1069</ele>
        <time>2011-06-01T11:40:33Z</time>
      </trkpt>
      <trkpt lat="44.65437" lon="3.9021">
        <ele>1067</ele>
        <time>2011-06-01T11:40:43Z</time>
      </trkpt>
      <trkpt lat="44.65424" lon="3.90203">
        <ele>1065</ele>
        <time>2011-06-01T11:40:54Z</time>
      </trkpt>
      <trkpt lat="44.65414" lon="3.90202">
        <ele>1061</ele>
        <time>2011-06-01T11:41:04Z</time>
      </trkpt>
      <trkpt lat="44.65401" lon="3.90197">
        <ele>1056</ele>
        <time>2011-06-01T11:41:15Z</time>
      </trkpt>
      <trkpt lat="44.6539" lon="3.90185">
        <ele>1053</ele>
        <time>2011-06-01T11:41:26Z</time>
      </trkpt>
      <trkpt lat="44.65379" lon="3.9018">
        <ele>1050</ele>
        <time>2011-06-01T11:41:37Z</time>
      </trkpt>
      <trkpt lat="44.65366" lon="3.90186">
        <ele>1049</ele>
        <time>2011-06-01T11:41:48Z</time>
      </trkpt>
      <trkpt lat="44.65355" lon="3.90189">
        <ele>1048</ele>
        <time>2011-06-01T11:41:58Z</time>
      </trkpt>
      <trkpt lat="44.65343" lon="3.90192">
        <ele>1046</ele>
        <time>2011-06-01T11:42:08Z</time>
      </trkpt>
      <trkpt lat="44.6533" lon="3.90192">
        <ele>1045</ele>
        <time>2011-06-01T11:42:18Z</time>
      </trkpt>
      <trkpt lat="44.65318" lon="3.9019">
        <ele>1042</ele>
        <time>2011-06-01T11:42:28Z</time>
      </trkpt>
      <trkpt lat="44.65305" lon="3.90184">
        <ele>1040</ele>
        <time>2011-06-01T11:42:38Z</time>
      </trkpt>
      <trkpt lat="44.65291" lon="3.90178">
        <ele>1038</ele>
        <time>2011-06-01T11:42:48Z</time>
      </trkpt>
      <trkpt lat="44.65282" lon="3.90177">
        <ele>1033</ele>
        <time>2011-06-01T11:42:58Z</time>
      </trkpt>
      <trkpt lat="44.65267" lon="3.90173">
        <ele>1030</ele>
        <time>2011-06-01T11:43:09Z</time>
      </trkpt>
      <trkpt lat="44.65253" lon="3.90166">
        <ele>1030</ele>
        <time>2011-06-01T11:43:20Z</time>
      </trkpt>
      <trkpt lat="44.6524" lon="3.90158">
        <ele>1030</ele>
        <time>2011-06-01T11:43:31Z</time>
      </trkpt>
      <trkpt lat="44.65228" lon="3.9016">
        <ele>1029</ele>
        <time>2011-06-01T11:43:41Z</time>
      </trkpt>
      <trkpt lat="44.65214" lon="3.90161">
        <ele>1028</ele>
        <time>2011-06-01T11:43:51Z</time>
      </trkpt>
      <trkpt lat="44.65201" lon="3.90165">
        <ele>1028</ele>
        <time>2011-06-01T11:44:01Z</time>
      </trkpt>
      <trkpt lat="44.65189" lon="3.90169">
        <ele>1027</ele>
        <time>2011-06-01T11:44:11Z</time>
      </trkpt>
      <trkpt lat="44.65177" lon="3.90173">
        <ele>1026</ele>
        <time>2011-06-01T11:44:21Z</time>
      </trkpt>
      <trkpt lat="44.65165" lon="3.9018">
        <ele>1026</ele>
        <time>2011-06-01T11:44:31Z</time>
      </trkpt>
      <trkpt lat="44.65153" lon="3.90186">
        <ele>1025</ele>
        <time>2011-06-01T11:44:41Z</time>
      </trkpt>
      <trkpt lat="44.65141" lon="3.90192">
        <ele>1023</ele>
        <time>2011-06-01T11:44:51Z</time>
      </trkpt>
      <trkpt lat="44.6513" lon="3.90198">
        <ele>1022</ele>
        <time>2011-06-01T11:45:01Z</time>
      </trkpt>
      <trkpt lat="44.65119" lon="3.90202">
        <ele>1021</ele>
        <time>2011-06-01T11:45:11Z</time>
      </trkpt>
      <trkpt lat="44.65108" lon="3.90208">
        <ele>1019</ele>
        <time>2011-06-01T11:45:21Z</time>
      </trkpt>
      <trkpt lat="44.65096" lon="3.90215">
        <ele>1018</ele>
        <time>2011-06-01T11:45:31Z</time>
      </trkpt>
      <trkpt lat="44.65083" lon="3.90221">
        <ele>1015</ele>
        <time>2011-06-01T11:45:42Z</time>
      </trkpt>
      <trkpt lat="44.65072" lon="3.90223">
        <ele>1011</ele>
        <time>2011-06-01T11:45:53Z</time>
      </trkpt>
      <trkpt lat="44.6506" lon="3.90233">
        <ele>1009</ele>
        <time>2011-06-01T11:46:03Z</time>
      </trkpt>
      <trkpt lat="44.65053" lon="3.90246">
        <ele>1007</ele>
        <time>2011-06-01T11:46:13Z</time>
      </trkpt>
      <trkpt lat="44.65045" lon="3.90263">
        <ele>1007</ele>
        <time>2011-06-01T11:46:24Z</time>
      </trkpt>
      <trkpt lat="44.65037" lon="3.90278">
        <ele>1003</ele>
        <time>2011-06-01T11:46:34Z</time>
      </trkpt>
      <trkpt lat="44.65031" lon="3.90293">
        <ele>999</ele>
        <time>2011-06-01T11:46:45Z</time>
      </trkpt>
      <trkpt lat="44.65025" lon="3.90311">
        <ele>998</ele>
        <time>2011-06-01T11:46:56Z</time>
      </trkpt>
      <trkpt lat="44.65028" lon="3.90314">
        <ele>998</ele>
        <time>2011-06-01T11:47:11Z</time>
      </trkpt>
      <trkpt lat="44.65018" lon="3.90323">
        <ele>998</ele>
        <time>2011-06-01T11:47:21Z</time>
      </trkpt>
      <trkpt lat="44.65004" lon="3.90335">
        <ele>996</ele>
        <time>2011-06-01T11:47:32Z</time>
      </trkpt>
      <trkpt lat="44.64992" lon="3.90347">
        <ele>988</ele>
        <time>2011-06-01T11:47:43Z</time>
      </trkpt>
      <trkpt lat="44.6498" lon="3.9036">
        <ele>986</ele>
        <time>2011-06-01T11:47:53Z</time>
      </trkpt>
      <trkpt lat="44.64967" lon="3.90361">
        <ele>985</ele>
        <time>2011-06-01T11:48:03Z</time>
      </trkpt>
      <trkpt lat="44.64955" lon="3.90358">
        <ele>984</ele>
        <time>2011-06-01T11:48:13Z</time>
      </trkpt>
      <trkpt lat="44.64947" lon="3.90344">
        <ele>981</ele>
        <time>2011-06-01T11:48:25Z</time>
      </trkpt>
      <trkpt lat="44.64943" lon="3.90329">
        <ele>979</ele>
        <time>2011-06-01T11:48:36Z</time>
      </trkpt>
      <trkpt lat="44.64936" lon="3.90318">
        <ele>974</ele>
        <time>2011-06-01T11:48:46Z</time>
      </trkpt>
      <trkpt lat="44.64933" lon="3.9032">
        <ele>973</ele>
        <time>2011-06-01T11:49:01Z</time>
      </trkpt>
      <trkpt lat="44.64933" lon="3.90321">
        <ele>973</ele>
        <time>2011-06-01T11:49:13Z</time>
      </trkpt>
      <trkpt lat="44.64931" lon="3.90321">
        <ele>973</ele>
        <time>2011-06-01T11:49:25Z</time>
      </trkpt>
      <trkpt lat="44.64921" lon="3.90325">
        <ele>973</ele>
        <time>2011-06-01T11:49:36Z</time>
      </trkpt>
      <trkpt lat="44.64911" lon="3.90335">
        <ele>973</ele>
        <time>2011-06-01T11:49:47Z</time>
      </trkpt>
      <trkpt lat="44.64902" lon="3.90347">
        <ele>973</ele>
        <time>2011-06-01T11:49:58Z</time>
      </trkpt>
      <trkpt lat="44.64892" lon="3.90357">
        <ele>972</ele>
        <time>2011-06-01T11:50:09Z</time>
      </trkpt>
      <trkpt lat="44.6488" lon="3.90368">
        <ele>972</ele>
        <time>2011-06-01T11:50:20Z</time>
      </trkpt>
      <trkpt lat="44.64868" lon="3.90372">
        <ele>972</ele>
        <time>2011-06-01T11:50:30Z</time>
      </trkpt>
      <trkpt lat="44.64855" lon="3.90374">
        <ele>972</ele>
        <time>2011-06-01T11:50:41Z</time>
      </trkpt>
      <trkpt lat="44.64843" lon="3.90371">
        <ele>971</ele>
        <time>2011-06-01T11:50:51Z</time>
      </trkpt>
      <trkpt lat="44.64837" lon="3.90363">
        <ele>971</ele>
        <time>2011-06-01T11:51:04Z</time>
      </trkpt>
      <trkpt lat="44.64835" lon="3.90366">
        <ele>970</ele>
        <time>2011-06-01T11:51:15Z</time>
      </trkpt>
      <trkpt lat="44.64834" lon="3.90367">
        <ele>970</ele>
        <time>2011-06-01T11:52:01Z</time>
      </trkpt>
      <trkpt lat="44.64835" lon="3.90367">
        <ele>970</ele>
        <time>2011-06-01T11:52:17Z</time>
      </trkpt>
      <trkpt lat="44.64835" lon="3.90368">
        <ele>970</ele>
        <time>2011-06-01T11:52:27Z</time>
      </trkpt>
      <trkpt lat="44.64834" lon="3.9037">
        <ele>970</ele>
        <time>2011-06-01T11:52:38Z</time>
      </trkpt>
      <trkpt lat="44.64835" lon="3.90368">
        <ele>970</ele>
        <time>2011-06-01T11:52:54Z</time>
      </trkpt>
      <trkpt lat="44.6483" lon="3.90363">
        <ele>970</ele>
        <time>2011-06-01T11:53:05Z</time>
      </trkpt>
      <trkpt lat="44.64821" lon="3.9035">
        <ele>970</ele>
        <time>2011-06-01T11:53:16Z</time>
      </trkpt>
      <trkpt lat="44.6481" lon="3.90333">
        <ele>970</ele>
        <time>2011-06-01T11:53:26Z</time>
      </trkpt>
      <trkpt lat="44.64806" lon="3.90324">
        <ele>969</ele>
        <time>2011-06-01T11:53:37Z</time>
      </trkpt>
      <trkpt lat="44.64805" lon="3.90322">
        <ele>967</ele>
        <time>2011-06-01T11:53:47Z</time>
      </trkpt>
      <trkpt lat="44.64799" lon="3.9031">
        <ele>967</ele>
        <time>2011-06-01T11:53:57Z</time>
      </trkpt>
      <trkpt lat="44.64791" lon="3.90295">
        <ele>967</ele>
        <time>2011-06-01T11:54:07Z</time>
      </trkpt>
      <trkpt lat="44.64784" lon="3.90278">
        <ele>967</ele>
        <time>2011-06-01T11:54:18Z</time>
      </trkpt>
      <trkpt lat="44.64778" lon="3.90264">
        <ele>967</ele>
        <time>2011-06-01T11:54:28Z</time>
      </trkpt>
      <trkpt lat="44.64776" lon="3.90248">
        <ele>967</ele>
        <time>2011-06-01T11:54:38Z</time>
      </trkpt>
      <trkpt lat="44.64782" lon="3.90229">
        <ele>965</ele>
        <time>2011-06-01T11:54:49Z</time>
      </trkpt>
      <trkpt lat="44.64792" lon="3.90218">
        <ele>965</ele>
        <time>2011-06-01T11:54:59Z</time>
      </trkpt>
      <trkpt lat="44.64803" lon="3.90208">
        <ele>965</ele>
        <time>2011-06-01T11:55:09Z</time>
      </trkpt>
      <trkpt lat="44.64814" lon="3.90196">
        <ele>965</ele>
        <time>2011-06-01T11:55:20Z</time>
      </trkpt>
      <trkpt lat="44.64819" lon="3.90194">
        <ele>965</ele>
        <time>2011-06-01T11:55:31Z</time>
      </trkpt>
      <trkpt lat="44.64818" lon="3.90185">
        <ele>965</ele>
        <time>2011-06-01T11:55:42Z</time>
      </trkpt>
      <trkpt lat="44.64813" lon="3.90175">
        <ele>965</ele>
        <time>2011-06-01T11:55:52Z</time>
      </trkpt>
      <trkpt lat="44.64804" lon="3.90158">
        <ele>965</ele>
        <time>2011-06-01T11:56:03Z</time>
      </trkpt>
      <trkpt lat="44.64797" lon="3.90146">
        <ele>965</ele>
        <time>2011-06-01T11:56:13Z</time>
      </trkpt>
      <trkpt lat="44.64788" lon="3.90133">
        <ele>965</ele>
        <time>2011-06-01T11:56:24Z</time>
      </trkpt>
      <trkpt lat="44.64778" lon="3.90118">
        <ele>965</ele>
        <time>2011-06-01T11:56:34Z</time>
      </trkpt>
      <trkpt lat="44.64768" lon="3.90102">
        <ele>965</ele>
        <time>2011-06-01T11:56:44Z</time>
      </trkpt>
      <trkpt lat="44.64759" lon="3.90089">
        <ele>965</ele>
        <time>2011-06-01T11:56:54Z</time>
      </trkpt>
      <trkpt lat="44.64752" lon="3.90072">
        <ele>966</ele>
        <time>2011-06-01T11:57:04Z</time>
      </trkpt>
      <trkpt lat="44.64745" lon="3.9006">
        <ele>967</ele>
        <time>2011-06-01T11:57:14Z</time>
      </trkpt>
      <trkpt lat="44.64734" lon="3.90046">
        <ele>967</ele>
        <time>2011-06-01T11:57:25Z</time>
      </trkpt>
      <trkpt lat="44.64723" lon="3.90037">
        <ele>967</ele>
        <time>2011-06-01T11:57:35Z</time>
      </trkpt>
      <trkpt lat="44.6471" lon="3.90037">
        <ele>967</ele>
        <time>2011-06-01T11:57:45Z</time>
      </trkpt>
      <trkpt lat="44.64698" lon="3.90037">
        <ele>967</ele>
        <time>2011-06-01T11:57:55Z</time>
      </trkpt>
      <trkpt lat="44.64689" lon="3.90024">
        <ele>968</ele>
        <time>2011-06-01T11:58:05Z</time>
      </trkpt>
      <trkpt lat="44.64682" lon="3.90006">
        <ele>970</ele>
        <time>2011-06-01T11:58:16Z</time>
      </trkpt>
      <trkpt lat="44.64673" lon="3.89992">
        <ele>971</ele>
        <time>2011-06-01T11:58:26Z</time>
      </trkpt>
      <trkpt lat="44.64662" lon="3.89983">
        <ele>973</ele>
        <time>2011-06-01T11:58:37Z</time>
      </trkpt>
      <trkpt lat="44.64653" lon="3.89975">
        <ele>973</ele>
        <time>2011-06-01T11:58:47Z</time>
      </trkpt>
      <trkpt lat="44.64643" lon="3.89972">
        <ele>974</ele>
        <time>2011-06-01T11:58:57Z</time>
      </trkpt>
      <trkpt lat="44.64632" lon="3.8997">
        <ele>974</ele>
        <time>2011-06-01T11:59:07Z</time>
      </trkpt>
      <trkpt lat="44.64619" lon="3.89977">
        <ele>978</ele>
        <time>2011-06-01T11:59:17Z</time>
      </trkpt>
      <trkpt lat="44.6461" lon="3.89983">
        <ele>978</ele>
        <time>2011-06-01T11:59:27Z</time>
      </trkpt>
      <trkpt lat="44.64597" lon="3.89991">
        <ele>978</ele>
        <time>2011-06-01T11:59:37Z</time>
      </trkpt>
      <trkpt lat="44.64586" lon="3.90001">
        <ele>978</ele>
        <time>2011-06-01T11:59:47Z</time>
      </trkpt>
      <trkpt lat="44.64574" lon="3.9">
        <ele>979</ele>
        <time>2011-06-01T11:59:57Z</time>
      </trkpt>
      <trkpt lat="44.64562" lon="3.89997">
        <ele>979</ele>
        <time>2011-06-01T12:00:08Z</time>
      </trkpt>
      <trkpt lat="44.64549" lon="3.89996">
        <ele>980</ele>
        <time>2011-06-01T12:00:19Z</time>
      </trkpt>
      <trkpt lat="44.64538" lon="3.89992">
        <ele>980</ele>
        <time>2011-06-01T12:00:29Z</time>
      </trkpt>
      <trkpt lat="44.64526" lon="3.8998">
        <ele>981</ele>
        <time>2011-06-01T12:00:40Z</time>
      </trkpt>
      <trkpt lat="44.64516" lon="3.89969">
        <ele>981</ele>
        <time>2011-06-01T12:00:51Z</time>
      </trkpt>
      <trkpt lat="44.64505" lon="3.8996">
        <ele>981</ele>
        <time>2011-06-01T12:01:01Z</time>
      </trkpt>
      <trkpt lat="44.64492" lon="3.89952">
        <ele>981</ele>
        <time>2011-06-01T12:01:11Z</time>
      </trkpt>
      <trkpt lat="44.64479" lon="3.89945">
        <ele>981</ele>
        <time>2011-06-01T12:01:22Z</time>
      </trkpt>
      <trkpt lat="44.64466" lon="3.8994">
        <ele>981</ele>
        <time>2011-06-01T12:01:32Z</time>
      </trkpt>
      <trkpt lat="44.64454" lon="3.89935">
        <ele>981</ele>
        <time>2011-06-01T12:01:42Z</time>
      </trkpt>
      <trkpt lat="44.6444" lon="3.89929">
        <ele>981</ele>
        <time>2011-06-01T12:01:52Z</time>
      </trkpt>
      <trkpt lat="44.64426" lon="3.89923">
        <ele>981</ele>
        <time>2011-06-01T12:02:03Z</time>
      </trkpt>
      <trkpt lat="44.64413" lon="3.89917">
        <ele>979</ele>
        <time>2011-06-01T12:02:13Z</time>
      </trkpt>
      <trkpt lat="44.64401" lon="3.8991">
        <ele>979</ele>
        <time>2011-06-01T12:02:23Z</time>
      </trkpt>
      <trkpt lat="44.64389" lon="3.89904">
        <ele>979</ele>
        <time>2011-06-01T12:02:33Z</time>
      </trkpt>
      <trkpt lat="44.64377" lon="3.89893">
        <ele>979</ele>
        <time>2011-06-01T12:02:44Z</time>
      </trkpt>
      <trkpt lat="44.6437" lon="3.89884">
        <ele>979</ele>
        <time>2011-06-01T12:02:54Z</time>
      </trkpt>
      <trkpt lat="44.64366" lon="3.89868">
        <ele>979</ele>
        <time>2011-06-01T12:03:04Z</time>
      </trkpt>
      <trkpt lat="44.6436" lon="3.89852">
        <ele>979</ele>
        <time>2011-06-01T12:03:14Z</time>
      </trkpt>
      <trkpt lat="44.64353" lon="3.89836">
        <ele>978</ele>
        <time>2011-06-01T12:03:24Z</time>
      </trkpt>
      <trkpt lat="44.64347" lon="3.8982">
        <ele>977</ele>
        <time>2011-06-01T12:03:34Z</time>
      </trkpt>
      <trkpt lat="44.64338" lon="3.89806">
        <ele>977</ele>
        <time>2011-06-01T12:03:44Z</time>
      </trkpt>
      <trkpt lat="44.6433" lon="3.8979">
        <ele>977</ele>
        <time>2011-06-01T12:03:54Z</time>
      </trkpt>
      <trkpt lat="44.64322" lon="3.89774">
        <ele>977</ele>
        <time>2011-06-01T12:04:04Z</time>
      </trkpt>
      <trkpt lat="44.64315" lon="3.89758">
        <ele>975</ele>
        <time>2011-06-01T12:04:14Z</time>
      </trkpt>
      <trkpt lat="44.64308" lon="3.89741">
        <ele>975</ele>
        <time>2011-06-01T12:04:24Z</time>
      </trkpt>
      <trkpt lat="44.64299" lon="3.89728">
        <ele>975</ele>
        <time>2011-06-01T12:04:34Z</time>
      </trkpt>
      <trkpt lat="44.64289" lon="3.89717">
        <ele>975</ele>
        <time>2011-06-01T12:04:44Z</time>
      </trkpt>
      <trkpt lat="44.6428" lon="3.89703">
        <ele>975</ele>
        <time>2011-06-01T12:04:55Z</time>
      </trkpt>
      <trkpt lat="44.64273" lon="3.89692">
        <ele>974</ele>
        <time>2011-06-01T12:05:05Z</time>
      </trkpt>
      <trkpt lat="44.64273" lon="3.8969">
        <ele>974</ele>
        <time>2011-06-01T12:05:46Z</time>
      </trkpt>
      <trkpt lat="44.64275" lon="3.89692">
        <ele>974</ele>
        <time>2011-06-01T12:05:56Z</time>
      </trkpt>
      <trkpt lat="44.64283" lon="3.897">
        <ele>973</ele>
        <time>2011-06-01T12:06:06Z</time>
      </trkpt>
      <trkpt lat="44.6429" lon="3.89712">
        <ele>973</ele>
        <time>2011-06-01T12:06:16Z</time>
      </trkpt>
      <trkpt lat="44.64299" lon="3.89722">
        <ele>973</ele>
        <time>2011-06-01T12:06:26Z</time>
      </trkpt>
      <trkpt lat="44.64305" lon="3.89731">
        <ele>973</ele>
        <time>2011-06-01T12:06:39Z</time>
      </trkpt>
      <trkpt lat="44.64304" lon="3.89731">
        <ele>973</ele>
        <time>2011-06-01T12:07:25Z</time>
      </trkpt>
      <trkpt lat="44.64306" lon="3.89732">
        <ele>973</ele>
        <time>2011-06-01T12:07:50Z</time>
      </trkpt>
      <trkpt lat="44.64313" lon="3.89745">
        <ele>973</ele>
        <time>2011-06-01T12:08:01Z</time>
      </trkpt>
      <trkpt lat="44.64318" lon="3.89759">
        <ele>973</ele>
        <time>2011-06-01T12:08:12Z</time>
      </trkpt>
      <trkpt lat="44.64322" lon="3.89767">
        <ele>973</ele>
        <time>2011-06-01T12:08:33Z</time>
      </trkpt>
      <trkpt lat="44.64316" lon="3.89753">
        <ele>973</ele>
        <time>2011-06-01T12:08:43Z</time>
      </trkpt>
      <trkpt lat="44.64309" lon="3.89738">
        <ele>973</ele>
        <time>2011-06-01T12:08:53Z</time>
      </trkpt>
      <trkpt lat="44.64299" lon="3.89724">
        <ele>973</ele>
        <time>2011-06-01T12:09:03Z</time>
      </trkpt>
      <trkpt lat="44.64287" lon="3.89711">
        <ele>973</ele>
        <time>2011-06-01T12:09:14Z</time>
      </trkpt>
      <trkpt lat="44.64277" lon="3.89697">
        <ele>973</ele>
        <time>2011-06-01T12:09:25Z</time>
      </trkpt>
      <trkpt lat="44.64267" lon="3.89684">
        <ele>973</ele>
        <time>2011-06-01T12:09:35Z</time>
      </trkpt>
      <trkpt lat="44.64256" lon="3.89672">
        <ele>972</ele>
        <time>2011-06-01T12:09:45Z</time>
      </trkpt>
      <trkpt lat="44.64247" lon="3.8966">
        <ele>971</ele>
        <time>2011-06-01T12:09:55Z</time>
      </trkpt>
      <trkpt lat="44.64241" lon="3.89643">
        <ele>970</ele>
        <time>2011-06-01T12:10:05Z</time>
      </trkpt>
      <trkpt lat="44.64235" lon="3.89625">
        <ele>970</ele>
        <time>2011-06-01T12:10:15Z</time>
      </trkpt>
      <trkpt lat="44.64229" lon="3.8962">
        <ele>969</ele>
        <time>2011-06-01T12:10:25Z</time>
      </trkpt>
      <trkpt lat="44.64217" lon="3.89623">
        <ele>968</ele>
        <time>2011-06-01T12:10:36Z</time>
      </trkpt>
      <trkpt lat="44.64212" lon="3.89635">
        <ele>968</ele>
        <time>2011-06-01T12:10:46Z</time>
      </trkpt>
      <trkpt lat="44.64207" lon="3.89645">
        <ele>968</ele>
        <time>2011-06-01T12:10:56Z</time>
      </trkpt>
      <trkpt lat="44.64199" lon="3.89653">
        <ele>967</ele>
        <time>2011-06-01T12:11:07Z</time>
      </trkpt>
      <trkpt lat="44.6419" lon="3.89659">
        <ele>966</ele>
        <time>2011-06-01T12:11:18Z</time>
      </trkpt>
      <trkpt lat="44.64179" lon="3.89667">
        <ele>966</ele>
        <time>2011-06-01T12:11:29Z</time>
      </trkpt>
      <trkpt lat="44.64169" lon="3.89675">
        <ele>966</ele>
        <time>2011-06-01T12:11:40Z</time>
      </trkpt>
      <trkpt lat="44.64159" lon="3.89682">
        <ele>966</ele>
        <time>2011-06-01T12:11:50Z</time>
      </trkpt>
      <trkpt lat="44.64147" lon="3.89687">
        <ele>966</ele>
        <time>2011-06-01T12:12:01Z</time>
      </trkpt>
      <trkpt lat="44.64137" lon="3.89693">
        <ele>967</ele>
        <time>2011-06-01T12:12:11Z</time>
      </trkpt>
      <trkpt lat="44.64126" lon="3.89697">
        <ele>967</ele>
        <time>2011-06-01T12:12:22Z</time>
      </trkpt>
      <trkpt lat="44.64116" lon="3.89702">
        <ele>969</ele>
        <time>2011-06-01T12:12:33Z</time>
      </trkpt>
      <trkpt lat="44.64109" lon="3.89706">
        <ele>971</ele>
        <time>2011-06-01T12:12:43Z</time>
      </trkpt>
      <trkpt lat="44.641" lon="3.89713">
        <ele>972</ele>
        <time>2011-06-01T12:12:53Z</time>
      </trkpt>
      <trkpt lat="44.64091" lon="3.89718">
        <ele>974</ele>
        <time>2011-06-01T12:13:03Z</time>
      </trkpt>
      <trkpt lat="44.64083" lon="3.89723">
        <ele>975</ele>
        <time>2011-06-01T12:13:13Z</time>
      </trkpt>
      <trkpt lat="44.64074" lon="3.89727">
        <ele>976</ele>
        <time>2011-06-01T12:13:24Z</time>
      </trkpt>
      <trkpt lat="44.64067" lon="3.89732">
        <ele>978</ele>
        <time>2011-06-01T12:13:34Z</time>
      </trkpt>
      <trkpt lat="44.64057" lon="3.89737">
        <ele>981</ele>
        <time>2011-06-01T12:13:45Z</time>
      </trkpt>
      <trkpt lat="44.64048" lon="3.89745">
        <ele>982</ele>
        <time>2011-06-01T12:13:56Z</time>
      </trkpt>
      <trkpt lat="44.64039" lon="3.89754">
        <ele>983</ele>
        <time>2011-06-01T12:14:08Z</time>
      </trkpt>
      <trkpt lat="44.64029" lon="3.89759">
        <ele>983</ele>
        <time>2011-06-01T12:14:18Z</time>
      </trkpt>
      <trkpt lat="44.64023" lon="3.89766">
        <ele>986</ele>
        <time>2011-06-01T12:14:28Z</time>
      </trkpt>
      <trkpt lat="44.64015" lon="3.89773">
        <ele>986</ele>
        <time>2011-06-01T12:14:38Z</time>
      </trkpt>
      <trkpt lat="44.64007" lon="3.89777">
        <ele>986</ele>
        <time>2011-06-01T12:14:49Z</time>
      </trkpt>
      <trkpt lat="44.64006" lon="3.89778">
        <ele>993</ele>
        <time>2011-06-01T12:15:05Z</time>
      </trkpt>
      <trkpt lat="44.63998" lon="3.89777">
        <ele>997</ele>
        <time>2011-06-01T12:15:16Z</time>
      </trkpt>
      <trkpt lat="44.63996" lon="3.89778">
        <ele>999</ele>
        <time>2011-06-01T12:15:30Z</time>
      </trkpt>
      <trkpt lat="44.63996" lon="3.89777">
        <ele>999</ele>
        <time>2011-06-01T12:15:50Z</time>
      </trkpt>
      <trkpt lat="44.63997" lon="3.89777">
        <ele>999</ele>
        <time>2011-06-01T12:16:11Z</time>
      </trkpt>
      <trkpt lat="44.63998" lon="3.89777">
        <ele>1000</ele>
        <time>2011-06-01T12:16:31Z</time>
      </trkpt>
      <trkpt lat="44.63998" lon="3.89778">
        <ele>1000</ele>
        <time>2011-06-01T12:17:16Z</time>
      </trkpt>
      <trkpt lat="44.63995" lon="3.89784">
        <ele>1000</ele>
        <time>2011-06-01T12:17:28Z</time>
      </trkpt>
      <trkpt lat="44.6399" lon="3.89786">
        <ele>999</ele>
        <time>2011-06-01T12:17:38Z</time>
      </trkpt>
      <trkpt lat="44.6399" lon="3.89786">
        <ele>999</ele>
        <time>2011-06-01T12:17:49Z</time>
      </trkpt>
      <trkpt lat="44.63983" lon="3.89788">
        <ele>999</ele>
        <time>2011-06-01T12:18:00Z</time>
      </trkpt>
      <trkpt lat="44.63977" lon="3.89791">
        <ele>999</ele>
        <time>2011-06-01T12:18:11Z</time>
      </trkpt>
      <trkpt lat="44.63969" lon="3.89794">
        <ele>999</ele>
        <time>2011-06-01T12:18:22Z</time>
      </trkpt>
      <trkpt lat="44.6396" lon="3.89799">
        <ele>999</ele>
        <time>2011-06-01T12:18:32Z</time>
      </trkpt>
      <trkpt lat="44.63949" lon="3.89804">
        <ele>999</ele>
        <time>2011-06-01T12:18:43Z</time>
      </trkpt>
      <trkpt lat="44.63941" lon="3.8981">
        <ele>999</ele>
        <time>2011-06-01T12:18:54Z</time>
      </trkpt>
      <trkpt lat="44.63931" lon="3.89817">
        <ele>999</ele>
        <time>2011-06-01T12:19:05Z</time>
      </trkpt>
      <trkpt lat="44.63922" lon="3.89821">
        <ele>999</ele>
        <time>2011-06-01T12:19:16Z</time>
      </trkpt>
      <trkpt lat="44.63911" lon="3.89827">
        <ele>999</ele>
        <time>2011-06-01T12:19:27Z</time>
      </trkpt>
      <trkpt lat="44.63901" lon="3.89832">
        <ele>999</ele>
        <time>2011-06-01T12:19:37Z</time>
      </trkpt>
      <trkpt lat="44.63892" lon="3.8984">
        <ele>999</ele>
        <time>2011-06-01T12:19:47Z</time>
      </trkpt>
      <trkpt lat="44.63879" lon="3.89848">
        <ele>999</ele>
        <time>2011-06-01T12:19:57Z</time>
      </trkpt>
      <trkpt lat="44.63866" lon="3.89852">
        <ele>1002</ele>
        <time>2011-06-01T12:20:08Z</time>
      </trkpt>
      <trkpt lat="44.63855" lon="3.8986">
        <ele>1002</ele>
        <time>2011-06-01T12:20:19Z</time>
      </trkpt>
      <trkpt lat="44.63845" lon="3.89868">
        <ele>1002</ele>
        <time>2011-06-01T12:20:29Z</time>
      </trkpt>
      <trkpt lat="44.63835" lon="3.89871">
        <ele>1002</ele>
        <time>2011-06-01T12:20:39Z</time>
      </trkpt>
      <trkpt lat="44.63824" lon="3.89872">
        <ele>1005</ele>
        <time>2011-06-01T12:20:49Z</time>
      </trkpt>
      <trkpt lat="44.63821" lon="3.89867">
        <ele>1008</ele>
        <time>2011-06-01T12:21:00Z</time>
      </trkpt>
      <trkpt lat="44.63819" lon="3.89856">
        <ele>1008</ele>
        <time>2011-06-01T12:21:10Z</time>
      </trkpt>
      <trkpt lat="44.63815" lon="3.8984">
        <ele>1009</ele>
        <time>2011-06-01T12:21:20Z</time>
      </trkpt>
      <trkpt lat="44.63812" lon="3.89826">
        <ele>1009</ele>
        <time>2011-06-01T12:21:30Z</time>
      </trkpt>
      <trkpt lat="44.63808" lon="3.89811">
        <ele>1009</ele>
        <time>2011-06-01T12:21:40Z</time>
      </trkpt>
      <trkpt lat="44.63805" lon="3.89795">
        <ele>1009</ele>
        <time>2011-06-01T12:21:50Z</time>
      </trkpt>
      <trkpt lat="44.63801" lon="3.89779">
        <ele>1009</ele>
        <time>2011-06-01T12:22:00Z</time>
      </trkpt>
      <trkpt lat="44.63797" lon="3.89763">
        <ele>1009</ele>
        <time>2011-06-01T12:22:10Z</time>
      </trkpt>
      <trkpt lat="44.63791" lon="3.89749">
        <ele>1009</ele>
        <time>2011-06-01T12:22:20Z</time>
      </trkpt>
      <trkpt lat="44.63778" lon="3.8975">
        <ele>1009</ele>
        <time>2011-06-01T12:22:31Z</time>
      </trkpt>
      <trkpt lat="44.63768" lon="3.89754">
        <ele>1009</ele>
        <time>2011-06-01T12:22:41Z</time>
      </trkpt>
      <trkpt lat="44.63756" lon="3.89757">
        <ele>1009</ele>
        <time>2011-06-01T12:22:51Z</time>
      </trkpt>
      <trkpt lat="44.63745" lon="3.89754">
        <ele>1009</ele>
        <time>2011-06-01T12:23:01Z</time>
      </trkpt>
      <trkpt lat="44.63736" lon="3.89745">
        <ele>1009</ele>
        <time>2011-06-01T12:23:12Z</time>
      </trkpt>
      <trkpt lat="44.63729" lon="3.89737">
        <ele>1011</ele>
        <time>2011-06-01T12:23:44Z</time>
      </trkpt>
      <trkpt lat="44.63726" lon="3.89724">
        <ele>1012</ele>
        <time>2011-06-01T12:23:55Z</time>
      </trkpt>
      <trkpt lat="44.63723" lon="3.89706">
        <ele>1012</ele>
        <time>2011-06-01T12:24:06Z</time>
      </trkpt>
      <trkpt lat="44.63717" lon="3.8969">
        <ele>1012</ele>
        <time>2011-06-01T12:24:17Z</time>
      </trkpt>
      <trkpt lat="44.63707" lon="3.89678">
        <ele>1012</ele>
        <time>2011-06-01T12:24:27Z</time>
      </trkpt>
      <trkpt lat="44.63697" lon="3.89672">
        <ele>1012</ele>
        <time>2011-06-01T12:24:37Z</time>
      </trkpt>
      <trkpt lat="44.63686" lon="3.89669">
        <ele>1012</ele>
        <time>2011-06-01T12:24:47Z</time>
      </trkpt>
      <trkpt lat="44.63675" lon="3.89666">
        <ele>1008</ele>
        <time>2011-06-01T12:24:57Z</time>
      </trkpt>
      <trkpt lat="44.63662" lon="3.89664">
        <ele>1006</ele>
        <time>2011-06-01T12:25:07Z</time>
      </trkpt>
      <trkpt lat="44.63652" lon="3.89659">
        <ele>1006</ele>
        <time>2011-06-01T12:25:17Z</time>
      </trkpt>
      <trkpt lat="44.63639" lon="3.89652">
        <ele>1004</ele>
        <time>2011-06-01T12:25:27Z</time>
      </trkpt>
      <trkpt lat="44.63626" lon="3.89646">
        <ele>1002</ele>
        <time>2011-06-01T12:25:37Z</time>
      </trkpt>
      <trkpt lat="44.63613" lon="3.89639">
        <ele>1001</ele>
        <time>2011-06-01T12:25:47Z</time>
      </trkpt>
      <trkpt lat="44.63601" lon="3.8963">
        <ele>1000</ele>
        <time>2011-06-01T12:25:57Z</time>
      </trkpt>
      <trkpt lat="44.63589" lon="3.89621">
        <ele>1000</ele>
        <time>2011-06-01T12:26:07Z</time>
      </trkpt>
      <trkpt lat="44.63577" lon="3.89617">
        <ele>999</ele>
        <time>2011-06-01T12:26:19Z</time>
      </trkpt>
      <trkpt lat="44.63563" lon="3.89613">
        <ele>998</ele>
        <time>2011-06-01T12:26:29Z</time>
      </trkpt>
      <trkpt lat="44.63551" lon="3.89607">
        <ele>998</ele>
        <time>2011-06-01T12:26:39Z</time>
      </trkpt>
      <trkpt lat="44.63538" lon="3.89603">
        <ele>995</ele>
        <time>2011-06-01T12:26:49Z</time>
      </trkpt>
      <trkpt lat="44.63527" lon="3.89598">
        <ele>993</ele>
        <time>2011-06-01T12:26:59Z</time>
      </trkpt>
      <trkpt lat="44.63513" lon="3.89591">
        <ele>993</ele>
        <time>2011-06-01T12:27:09Z</time>
      </trkpt>
      <trkpt lat="44.63502" lon="3.89584">
        <ele>992</ele>
        <time>2011-06-01T12:27:19Z</time>
      </trkpt>
      <trkpt lat="44.63491" lon="3.89576">
        <ele>991</ele>
        <time>2011-06-01T12:27:29Z</time>
      </trkpt>
      <trkpt lat="44.6348" lon="3.89566">
        <ele>991</ele>
        <time>2011-06-01T12:27:39Z</time>
      </trkpt>
      <trkpt lat="44.6347" lon="3.89555">
        <ele>989</ele>
        <time>2011-06-01T12:27:50Z</time>
      </trkpt>
      <trkpt lat="44.63459" lon="3.89547">
        <ele>987</ele>
        <time>2011-06-01T12:28:01Z</time>
      </trkpt>
      <trkpt lat="44.63449" lon="3.8954">
        <ele>985</ele>
        <time>2011-06-01T12:28:11Z</time>
      </trkpt>
      <trkpt lat="44.6345" lon="3.89528">
        <ele>982</ele>
        <time>2011-06-01T12:28:21Z</time>
      </trkpt>
      <trkpt lat="44.63461" lon="3.89529">
        <ele>978</ele>
        <time>2011-06-01T12:28:31Z</time>
      </trkpt>
      <trkpt lat="44.63469" lon="3.89527">
        <ele>976</ele>
        <time>2011-06-01T12:28:43Z</time>
      </trkpt>
      <trkpt lat="44.63474" lon="3.89517">
        <ele>976</ele>
        <time>2011-06-01T12:28:56Z</time>
      </trkpt>
      <trkpt lat="44.63475" lon="3.89514">
        <ele>981</ele>
        <time>2011-06-01T12:29:10Z</time>
      </trkpt>
      <trkpt lat="44.63469" lon="3.89508">
        <ele>983</ele>
        <time>2011-06-01T12:29:20Z</time>
      </trkpt>
      <trkpt lat="44.63472" lon="3.89502">
        <ele>984</ele>
        <time>2011-06-01T12:29:30Z</time>
      </trkpt>
      <trkpt lat="44.63471" lon="3.895">
        <ele>984</ele>
        <time>2011-06-01T12:29:46Z</time>
      </trkpt>
      <trkpt lat="44.63471" lon="3.89501">
        <ele>983</ele>
        <time>2011-06-01T12:29:57Z</time>
      </trkpt>
      <trkpt lat="44.63473" lon="3.89503">
        <ele>978</ele>
        <time>2011-06-01T12:30:25Z</time>
      </trkpt>
      <trkpt lat="44.63473" lon="3.89505">
        <ele>977</ele>
        <time>2011-06-01T12:30:59Z</time>
      </trkpt>
      <trkpt lat="44.63474" lon="3.89503">
        <ele>974</ele>
        <time>2011-06-01T12:32:06Z</time>
      </trkpt>
      <trkpt lat="44.63475" lon="3.89503">
        <ele>974</ele>
        <time>2011-06-01T12:32:48Z</time>
      </trkpt>
      <trkpt lat="44.63475" lon="3.89503">
        <ele>974</ele>
        <time>2011-06-01T12:33:02Z</time>
      </trkpt>
      <trkpt lat="44.63474" lon="3.89504">
        <ele>975</ele>
        <time>2011-06-01T12:33:14Z</time>
      </trkpt>
      <trkpt lat="44.63473" lon="3.89505">
        <ele>975</ele>
        <time>2011-06-01T12:33:32Z</time>
      </trkpt>
      <trkpt lat="44.6347" lon="3.89502">
        <ele>975</ele>
        <time>2011-06-01T12:33:43Z</time>
      </trkpt>
      <trkpt lat="44.63469" lon="3.89501">
        <ele>975</ele>
        <time>2011-06-01T12:34:00Z</time>
      </trkpt>
      <trkpt lat="44.63465" lon="3.89498">
        <ele>975</ele>
        <time>2011-06-01T12:34:16Z</time>
      </trkpt>
      <trkpt lat="44.6346" lon="3.89495">
        <ele>975</ele>
        <time>2011-06-01T12:34:27Z</time>
      </trkpt>
      <trkpt lat="44.63449" lon="3.89488">
        <ele>975</ele>
        <time>2011-06-01T12:34:38Z</time>
      </trkpt>
      <trkpt lat="44.63438" lon="3.89483">
        <ele>975</ele>
        <time>2011-06-01T12:34:48Z</time>
      </trkpt>
      <trkpt lat="44.63432" lon="3.89479">
        <ele>975</ele>
        <time>2011-06-01T12:34:58Z</time>
      </trkpt>
      <trkpt lat="44.63424" lon="3.89474">
        <ele>975</ele>
        <time>2011-06-01T12:35:08Z</time>
      </trkpt>
      <trkpt lat="44.63413" lon="3.89468">
        <ele>975</ele>
        <time>2011-06-01T12:35:18Z</time>
      </trkpt>
      <trkpt lat="44.634" lon="3.89461">
        <ele>975</ele>
        <time>2011-06-01T12:35:29Z</time>
      </trkpt>
      <trkpt lat="44.63387" lon="3.89457">
        <ele>975</ele>
        <time>2011-06-01T12:35:40Z</time>
      </trkpt>
      <trkpt lat="44.63375" lon="3.89454">
        <ele>975</ele>
        <time>2011-06-01T12:35:50Z</time>
      </trkpt>
      <trkpt lat="44.63364" lon="3.8945">
        <ele>975</ele>
        <time>2011-06-01T12:36:00Z</time>
      </trkpt>
      <trkpt lat="44.63352" lon="3.89447">
        <ele>975</ele>
        <time>2011-06-01T12:36:10Z</time>
      </trkpt>
      <trkpt lat="44.63339" lon="3.89448">
        <ele>975</ele>
        <time>2011-06-01T12:36:20Z</time>
      </trkpt>
      <trkpt lat="44.63325" lon="3.89446">
        <ele>975</ele>
        <time>2011-06-01T12:36:30Z</time>
      </trkpt>
      <trkpt lat="44.63312" lon="3.89446">
        <ele>974</ele>
        <time>2011-06-01T12:36:41Z</time>
      </trkpt>
      <trkpt lat="44.63299" lon="3.89447">
        <ele>972</ele>
        <time>2011-06-01T12:36:51Z</time>
      </trkpt>
      <trkpt lat="44.63287" lon="3.89448">
        <ele>972</ele>
        <time>2011-06-01T12:37:01Z</time>
      </trkpt>
      <trkpt lat="44.63274" lon="3.89451">
        <ele>972</ele>
        <time>2011-06-01T12:37:11Z</time>
      </trkpt>
      <trkpt lat="44.63261" lon="3.89452">
        <ele>972</ele>
        <time>2011-06-01T12:37:21Z</time>
      </trkpt>
      <trkpt lat="44.6325" lon="3.89456">
        <ele>972</ele>
        <time>2011-06-01T12:37:31Z</time>
      </trkpt>
      <trkpt lat="44.63236" lon="3.89461">
        <ele>972</ele>
        <time>2011-06-01T12:37:41Z</time>
      </trkpt>
      <trkpt lat="44.63222" lon="3.89465">
        <ele>972</ele>
        <time>2011-06-01T12:37:51Z</time>
      </trkpt>
      <trkpt lat="44.6321" lon="3.8947">
        <ele>972</ele>
        <time>2011-06-01T12:38:01Z</time>
      </trkpt>
      <trkpt lat="44.63198" lon="3.89474">
        <ele>972</ele>
        <time>2011-06-01T12:38:11Z</time>
      </trkpt>
      <trkpt lat="44.63184" lon="3.8948">
        <ele>972</ele>
        <time>2011-06-01T12:38:22Z</time>
      </trkpt>
      <trkpt lat="44.63173" lon="3.89484">
        <ele>972</ele>
        <time>2011-06-01T12:38:32Z</time>
      </trkpt>
      <trkpt lat="44.63159" lon="3.8949">
        <ele>972</ele>
        <time>2011-06-01T12:38:43Z</time>
      </trkpt>
      <trkpt lat="44.63147" lon="3.89494">
        <ele>972</ele>
        <time>2011-06-01T12:38:53Z</time>
      </trkpt>
      <trkpt lat="44.63136" lon="3.89495">
        <ele>972</ele>
        <time>2011-06-01T12:39:03Z</time>
      </trkpt>
      <trkpt lat="44.63124" lon="3.89495">
        <ele>972</ele>
        <time>2011-06-01T12:39:13Z</time>
      </trkpt>
      <trkpt lat="44.63112" lon="3.89495">
        <ele>972</ele>
        <time>2011-06-01T12:39:23Z</time>
      </trkpt>
      <trkpt lat="44.63098" lon="3.89495">
        <ele>972</ele>
        <time>2011-06-01T12:39:33Z</time>
      </trkpt>
      <trkpt lat="44.63085" lon="3.89494">
        <ele>972</ele>
        <time>2011-06-01T12:39:43Z</time>
      </trkpt>
      <trkpt lat="44.6307" lon="3.89494">
        <ele>972</ele>
        <time>2011-06-01T12:39:53Z</time>
      </trkpt>
      <trkpt lat="44.63056" lon="3.89493">
        <ele>972</ele>
        <time>2011-06-01T12:40:03Z</time>
      </trkpt>
      <trkpt lat="44.63043" lon="3.89493">
        <ele>972</ele>
        <time>2011-06-01T12:40:13Z</time>
      </trkpt>
      <trkpt lat="44.6303" lon="3.89493">
        <ele>972</ele>
        <time>2011-06-01T12:40:23Z</time>
      </trkpt>
      <trkpt lat="44.63018" lon="3.89494">
        <ele>972</ele>
        <time>2011-06-01T12:40:33Z</time>
      </trkpt>
      <trkpt lat="44.63005" lon="3.89491">
        <ele>972</ele>
        <time>2011-06-01T12:40:43Z</time>
      </trkpt>
      <trkpt lat="44.62993" lon="3.89489">
        <ele>972</ele>
        <time>2011-06-01T12:40:53Z</time>
      </trkpt>
      <trkpt lat="44.6298" lon="3.89488">
        <ele>972</ele>
        <time>2011-06-01T12:41:03Z</time>
      </trkpt>
      <trkpt lat="44.62967" lon="3.89485">
        <ele>972</ele>
        <time>2011-06-01T12:41:13Z</time>
      </trkpt>
      <trkpt lat="44.62954" lon="3.89483">
        <ele>972</ele>
        <time>2011-06-01T12:41:23Z</time>
      </trkpt>
      <trkpt lat="44.62941" lon="3.89482">
        <ele>972</ele>
        <time>2011-06-01T12:41:33Z</time>
      </trkpt>
      <trkpt lat="44.62929" lon="3.8948">
        <ele>972</ele>
        <time>2011-06-01T12:41:43Z</time>
      </trkpt>
      <trkpt lat="44.62916" lon="3.89477">
        <ele>972</ele>
        <time>2011-06-01T12:41:53Z</time>
      </trkpt>
      <trkpt lat="44.62904" lon="3.89476">
        <ele>972</ele>
        <time>2011-06-01T12:42:03Z</time>
      </trkpt>
      <trkpt lat="44.62891" lon="3.89475">
        <ele>972</ele>
        <time>2011-06-01T12:42:13Z</time>
      </trkpt>
      <trkpt lat="44.6288" lon="3.89473">
        <ele>972</ele>
        <time>2011-06-01T12:42:23Z</time>
      </trkpt>
      <trkpt lat="44.62867" lon="3.89469">
        <ele>972</ele>
        <time>2011-06-01T12:42:33Z</time>
      </trkpt>
      <trkpt lat="44.62855" lon="3.89468">
        <ele>972</ele>
        <time>2011-06-01T12:42:43Z</time>
      </trkpt>
      <trkpt lat="44.62843" lon="3.89466">
        <ele>972</ele>
        <time>2011-06-01T12:42:53Z</time>
      </trkpt>
      <trkpt lat="44.6283" lon="3.89463">
        <ele>972</ele>
        <time>2011-06-01T12:43:04Z</time>
      </trkpt>
      <trkpt lat="44.62816" lon="3.89463">
        <ele>972</ele>
        <time>2011-06-01T12:43:15Z</time>
      </trkpt>
      <trkpt lat="44.62804" lon="3.8946">
        <ele>972</ele>
        <time>2011-06-01T12:43:25Z</time>
      </trkpt>
      <trkpt lat="44.62792" lon="3.89458">
        <ele>972</ele>
        <time>2011-06-01T12:43:35Z</time>
      </trkpt>
      <trkpt lat="44.6278" lon="3.89456">
        <ele>972</ele>
        <time>2011-06-01T12:43:45Z</time>
      </trkpt>
      <trkpt lat="44.62768" lon="3.89455">
        <ele>972</ele>
        <time>2011-06-01T12:43:55Z</time>
      </trkpt>
      <trkpt lat="44.62756" lon="3.89453">
        <ele>972</ele>
        <time>2011-06-01T12:44:05Z</time>
      </trkpt>
      <trkpt lat="44.62743" lon="3.89453">
        <ele>972</ele>
        <time>2011-06-01T12:44:15Z</time>
      </trkpt>
      <trkpt lat="44.62731" lon="3.89455">
        <ele>972</ele>
        <time>2011-06-01T12:44:25Z</time>
      </trkpt>
      <trkpt lat="44.62719" lon="3.89458">
        <ele>972</ele>
        <time>2011-06-01T12:44:35Z</time>
      </trkpt>
      <trkpt lat="44.62707" lon="3.89463">
        <ele>972</ele>
        <time>2011-06-01T12:44:45Z</time>
      </trkpt>
      <trkpt lat="44.62694" lon="3.89468">
        <ele>972</ele>
        <time>2011-06-01T12:44:55Z</time>
      </trkpt>
      <trkpt lat="44.62682" lon="3.89474">
        <ele>973</ele>
        <time>2011-06-01T12:45:05Z</time>
      </trkpt>
      <trkpt lat="44.6267" lon="3.89479">
        <ele>975</ele>
        <time>2011-06-01T12:45:15Z</time>
      </trkpt>
      <trkpt lat="44.62658" lon="3.89485">
        <ele>975</ele>
        <time>2011-06-01T12:45:25Z</time>
      </trkpt>
      <trkpt lat="44.62647" lon="3.89491">
        <ele>975</ele>
        <time>2011-06-01T12:45:35Z</time>
      </trkpt>
      <trkpt lat="44.62635" lon="3.89497">
        <ele>975</ele>
        <time>2011-06-01T12:45:45Z</time>
      </trkpt>
      <trkpt lat="44.62622" lon="3.89504">
        <ele>975</ele>
        <time>2011-06-01T12:45:55Z</time>
      </trkpt>
      <trkpt lat="44.6261" lon="3.8951">
        <ele>976</ele>
        <time>2011-06-01T12:46:05Z</time>
      </trkpt>
      <trkpt lat="44.62597" lon="3.89516">
        <ele>976</ele>
        <time>2011-06-01T12:46:15Z</time>
      </trkpt>
      <trkpt lat="44.62584" lon="3.89523">
        <ele>976</ele>
        <time>2011-06-01T12:46:26Z</time>
      </trkpt>
      <trkpt lat="44.62572" lon="3.89529">
        <ele>976</ele>
        <time>2011-06-01T12:46:36Z</time>
      </trkpt>
      <trkpt lat="44.62559" lon="3.89535">
        <ele>976</ele>
        <time>2011-06-01T12:46:46Z</time>
      </trkpt>
      <trkpt lat="44.62546" lon="3.89542">
        <ele>976</ele>
        <time>2011-06-01T12:46:57Z</time>
      </trkpt>
      <trkpt lat="44.62532" lon="3.89548">
        <ele>977</ele>
        <time>2011-06-01T12:47:08Z</time>
      </trkpt>
      <trkpt lat="44.62519" lon="3.89555">
        <ele>978</ele>
        <time>2011-06-01T12:47:19Z</time>
      </trkpt>
      <trkpt lat="44.62506" lon="3.89563">
        <ele>978</ele>
        <time>2011-06-01T12:47:30Z</time>
      </trkpt>
      <trkpt lat="44.62494" lon="3.89568">
        <ele>979</ele>
        <time>2011-06-01T12:47:40Z</time>
      </trkpt>
      <trkpt lat="44.62482" lon="3.89572">
        <ele>981</ele>
        <time>2011-06-01T12:47:50Z</time>
      </trkpt>
      <trkpt lat="44.62468" lon="3.89575">
        <ele>982</ele>
        <time>2011-06-01T12:48:01Z</time>
      </trkpt>
      <trkpt lat="44.62455" lon="3.89576">
        <ele>983</ele>
        <time>2011-06-01T12:48:11Z</time>
      </trkpt>
      <trkpt lat="44.62443" lon="3.89574">
        <ele>984</ele>
        <time>2011-06-01T12:48:21Z</time>
      </trkpt>
      <trkpt lat="44.62431" lon="3.89571">
        <ele>984</ele>
        <time>2011-06-01T12:48:32Z</time>
      </trkpt>
      <trkpt lat="44.62419" lon="3.89567">
        <ele>986</ele>
        <time>2011-06-01T12:48:43Z</time>
      </trkpt>
      <trkpt lat="44.62408" lon="3.89561">
        <ele>987</ele>
        <time>2011-06-01T12:48:53Z</time>
      </trkpt>
      <trkpt lat="44.62396" lon="3.89557">
        <ele>989</ele>
        <time>2011-06-01T12:49:03Z</time>
      </trkpt>
      <trkpt lat="44.62383" lon="3.89552">
        <ele>990</ele>
        <time>2011-06-01T12:49:14Z</time>
      </trkpt>
      <trkpt lat="44.62373" lon="3.89546">
        <ele>991</ele>
        <time>2011-06-01T12:49:24Z</time>
      </trkpt>
      <trkpt lat="44.62361" lon="3.89542">
        <ele>991</ele>
        <time>2011-06-01T12:49:35Z</time>
      </trkpt>
      <trkpt lat="44.62349" lon="3.89539">
        <ele>993</ele>
        <time>2011-06-01T12:49:45Z</time>
      </trkpt>
      <trkpt lat="44.62336" lon="3.89542">
        <ele>995</ele>
        <time>2011-06-01T12:49:55Z</time>
      </trkpt>
      <trkpt lat="44.62324" lon="3.89548">
        <ele>996</ele>
        <time>2011-06-01T12:50:05Z</time>
      </trkpt>
      <trkpt lat="44.62313" lon="3.89556">
        <ele>997</ele>
        <time>2011-06-01T12:50:15Z</time>
      </trkpt>
      <trkpt lat="44.62302" lon="3.89564">
        <ele>999</ele>
        <time>2011-06-01T12:50:25Z</time>
      </trkpt>
      <trkpt lat="44.62291" lon="3.89571">
        <ele>1000</ele>
        <time>2011-06-01T12:50:35Z</time>
      </trkpt>
      <trkpt lat="44.6228" lon="3.89577">
        <ele>1000</ele>
        <time>2011-06-01T12:50:46Z</time>
      </trkpt>
      <trkpt lat="44.62265" lon="3.89579">
        <ele>1002</ele>
        <time>2011-06-01T12:50:57Z</time>
      </trkpt>
      <trkpt lat="44.62254" lon="3.8958">
        <ele>1003</ele>
        <time>2011-06-01T12:51:07Z</time>
      </trkpt>
      <trkpt lat="44.62244" lon="3.8958">
        <ele>1004</ele>
        <time>2011-06-01T12:51:17Z</time>
      </trkpt>
      <trkpt lat="44.62233" lon="3.89579">
        <ele>1004</ele>
        <time>2011-06-01T12:51:27Z</time>
      </trkpt>
      <trkpt lat="44.62222" lon="3.89577">
        <ele>1005</ele>
        <time>2011-06-01T12:51:37Z</time>
      </trkpt>
      <trkpt lat="44.6221" lon="3.89578">
        <ele>1006</ele>
        <time>2011-06-01T12:51:47Z</time>
      </trkpt>
      <trkpt lat="44.62197" lon="3.89577">
        <ele>1008</ele>
        <time>2011-06-01T12:51:57Z</time>
      </trkpt>
      <trkpt lat="44.62183" lon="3.89576">
        <ele>1008</ele>
        <time>2011-06-01T12:52:07Z</time>
      </trkpt>
      <trkpt lat="44.6217" lon="3.89574">
        <ele>1009</ele>
        <time>2011-06-01T12:52:17Z</time>
      </trkpt>
      <trkpt lat="44.62157" lon="3.89573">
        <ele>1010</ele>
        <time>2011-06-01T12:52:27Z</time>
      </trkpt>
      <trkpt lat="44.62143" lon="3.89573">
        <ele>1011</ele>
        <time>2011-06-01T12:52:37Z</time>
      </trkpt>
      <trkpt lat="44.62131" lon="3.89574">
        <ele>1011</ele>
        <time>2011-06-01T12:52:47Z</time>
      </trkpt>
      <trkpt lat="44.62118" lon="3.89575">
        <ele>1011</ele>
        <time>2011-06-01T12:52:57Z</time>
      </trkpt>
      <trkpt lat="44.62105" lon="3.89578">
        <ele>1011</ele>
        <time>2011-06-01T12:53:07Z</time>
      </trkpt>
      <trkpt lat="44.62092" lon="3.8958">
        <ele>1011</ele>
        <time>2011-06-01T12:53:17Z</time>
      </trkpt>
      <trkpt lat="44.62079" lon="3.89586">
        <ele>1012</ele>
        <time>2011-06-01T12:53:27Z</time>
      </trkpt>
      <trkpt lat="44.62065" lon="3.8959">
        <ele>1012</ele>
        <time>2011-06-01T12:53:37Z</time>
      </trkpt>
      <trkpt lat="44.62052" lon="3.89594">
        <ele>1013</ele>
        <time>2011-06-01T12:53:47Z</time>
      </trkpt>
      <trkpt lat="44.6204" lon="3.896">
        <ele>1014</ele>
        <time>2011-06-01T12:53:57Z</time>
      </trkpt>
      <trkpt lat="44.62026" lon="3.89606">
        <ele>1014</ele>
        <time>2011-06-01T12:54:08Z</time>
      </trkpt>
      <trkpt lat="44.62015" lon="3.89613">
        <ele>1015</ele>
        <time>2011-06-01T12:54:18Z</time>
      </trkpt>
      <trkpt lat="44.62003" lon="3.8962">
        <ele>1015</ele>
        <time>2011-06-01T12:54:28Z</time>
      </trkpt>
      <trkpt lat="44.61991" lon="3.89627">
        <ele>1015</ele>
        <time>2011-06-01T12:54:38Z</time>
      </trkpt>
      <trkpt lat="44.61979" lon="3.89634">
        <ele>1016</ele>
        <time>2011-06-01T12:54:48Z</time>
      </trkpt>
      <trkpt lat="44.61966" lon="3.8964">
        <ele>1016</ele>
        <time>2011-06-01T12:54:59Z</time>
      </trkpt>
      <trkpt lat="44.61954" lon="3.89646">
        <ele>1016</ele>
        <time>2011-06-01T12:55:09Z</time>
      </trkpt>
      <trkpt lat="44.61942" lon="3.8965">
        <ele>1016</ele>
        <time>2011-06-01T12:55:19Z</time>
      </trkpt>
      <trkpt lat="44.61928" lon="3.89655">
        <ele>1016</ele>
        <time>2011-06-01T12:55:30Z</time>
      </trkpt>
      <trkpt lat="44.61915" lon="3.8966">
        <ele>1017</ele>
        <time>2011-06-01T12:55:40Z</time>
      </trkpt>
      <trkpt lat="44.61902" lon="3.89664">
        <ele>1019</ele>
        <time>2011-06-01T12:55:50Z</time>
      </trkpt>
      <trkpt lat="44.6189" lon="3.89668">
        <ele>1021</ele>
        <time>2011-06-01T12:56:00Z</time>
      </trkpt>
      <trkpt lat="44.61877" lon="3.89673">
        <ele>1023</ele>
        <time>2011-06-01T12:56:10Z</time>
      </trkpt>
      <trkpt lat="44.61864" lon="3.89682">
        <ele>1023</ele>
        <time>2011-06-01T12:56:21Z</time>
      </trkpt>
      <trkpt lat="44.61852" lon="3.89691">
        <ele>1023</ele>
        <time>2011-06-01T12:56:32Z</time>
      </trkpt>
      <trkpt lat="44.61841" lon="3.89702">
        <ele>1023</ele>
        <time>2011-06-01T12:56:42Z</time>
      </trkpt>
      <trkpt lat="44.6183" lon="3.89715">
        <ele>1023</ele>
        <time>2011-06-01T12:56:53Z</time>
      </trkpt>
      <trkpt lat="44.61819" lon="3.89726">
        <ele>1023</ele>
        <time>2011-06-01T12:57:03Z</time>
      </trkpt>
      <trkpt lat="44.61809" lon="3.89738">
        <ele>1023</ele>
        <time>2011-06-01T12:57:13Z</time>
      </trkpt>
      <trkpt lat="44.61799" lon="3.89751">
        <ele>1023</ele>
        <time>2011-06-01T12:57:24Z</time>
      </trkpt>
      <trkpt lat="44.61789" lon="3.89763">
        <ele>1023</ele>
        <time>2011-06-01T12:57:34Z</time>
      </trkpt>
      <trkpt lat="44.61777" lon="3.89773">
        <ele>1023</ele>
        <time>2011-06-01T12:57:44Z</time>
      </trkpt>
      <trkpt lat="44.61764" lon="3.89781">
        <ele>1023</ele>
        <time>2011-06-01T12:57:55Z</time>
      </trkpt>
      <trkpt lat="44.61758" lon="3.89786">
        <ele>1023</ele>
        <time>2011-06-01T12:58:17Z</time>
      </trkpt>
      <trkpt lat="44.61756" lon="3.89788">
        <ele>1025</ele>
        <time>2011-06-01T12:58:40Z</time>
      </trkpt>
      <trkpt lat="44.61747" lon="3.89797">
        <ele>1025</ele>
        <time>2011-06-01T12:58:50Z</time>
      </trkpt>
      <trkpt lat="44.61736" lon="3.89804">
        <ele>1025</ele>
        <time>2011-06-01T12:59:00Z</time>
      </trkpt>
      <trkpt lat="44.61724" lon="3.89807">
        <ele>1026</ele>
        <time>2011-06-01T12:59:10Z</time>
      </trkpt>
      <trkpt lat="44.61713" lon="3.89813">
        <ele>1027</ele>
        <time>2011-06-01T12:59:20Z</time>
      </trkpt>
      <trkpt lat="44.61702" lon="3.89823">
        <ele>1028</ele>
        <time>2011-06-01T12:59:30Z</time>
      </trkpt>
      <trkpt lat="44.61691" lon="3.89835">
        <ele>1029</ele>
        <time>2011-06-01T12:59:40Z</time>
      </trkpt>
      <trkpt lat="44.61679" lon="3.89846">
        <ele>1029</ele>
        <time>2011-06-01T12:59:50Z</time>
      </trkpt>
      <trkpt lat="44.61667" lon="3.89858">
        <ele>1029</ele>
        <time>2011-06-01T13:00:00Z</time>
      </trkpt>
      <trkpt lat="44.61656" lon="3.89872">
        <ele>1029</ele>
        <time>2011-06-01T13:00:10Z</time>
      </trkpt>
      <trkpt lat="44.61648" lon="3.89888">
        <ele>1029</ele>
        <time>2011-06-01T13:00:20Z</time>
      </trkpt>
      <trkpt lat="44.6164" lon="3.89905">
        <ele>1029</ele>
        <time>2011-06-01T13:00:30Z</time>
      </trkpt>
      <trkpt lat="44.61632" lon="3.8992">
        <ele>1029</ele>
        <time>2011-06-01T13:00:40Z</time>
      </trkpt>
      <trkpt lat="44.61623" lon="3.89938">
        <ele>1029</ele>
        <time>2011-06-01T13:00:51Z</time>
      </trkpt>
      <trkpt lat="44.61616" lon="3.89954">
        <ele>1029</ele>
        <time>2011-06-01T13:01:01Z</time>
      </trkpt>
      <trkpt lat="44.61607" lon="3.89969">
        <ele>1027</ele>
        <time>2011-06-01T13:01:11Z</time>
      </trkpt>
      <trkpt lat="44.616" lon="3.89985">
        <ele>1026</ele>
        <time>2011-06-01T13:01:21Z</time>
      </trkpt>
      <trkpt lat="44.61594" lon="3.90003">
        <ele>1026</ele>
        <time>2011-06-01T13:01:31Z</time>
      </trkpt>
      <trkpt lat="44.6159" lon="3.90019">
        <ele>1024</ele>
        <time>2011-06-01T13:01:41Z</time>
      </trkpt>
      <trkpt lat="44.61586" lon="3.90036">
        <ele>1022</ele>
        <time>2011-06-01T13:01:51Z</time>
      </trkpt>
      <trkpt lat="44.61584" lon="3.90055">
        <ele>1021</ele>
        <time>2011-06-01T13:02:01Z</time>
      </trkpt>
      <trkpt lat="44.61581" lon="3.90075">
        <ele>1020</ele>
        <time>2011-06-01T13:02:13Z</time>
      </trkpt>
      <trkpt lat="44.61579" lon="3.90091">
        <ele>1017</ele>
        <time>2011-06-01T13:02:24Z</time>
      </trkpt>
      <trkpt lat="44.61578" lon="3.90104">
        <ele>1015</ele>
        <time>2011-06-01T13:02:35Z</time>
      </trkpt>
      <trkpt lat="44.61575" lon="3.9011">
        <ele>1014</ele>
        <time>2011-06-01T13:02:46Z</time>
      </trkpt>
      <trkpt lat="44.61571" lon="3.90123">
        <ele>1012</ele>
        <time>2011-06-01T13:02:58Z</time>
      </trkpt>
      <trkpt lat="44.61571" lon="3.90135">
        <ele>1009</ele>
        <time>2011-06-01T13:03:08Z</time>
      </trkpt>
      <trkpt lat="44.61569" lon="3.90139">
        <ele>1009</ele>
        <time>2011-06-01T13:03:19Z</time>
      </trkpt>
      <trkpt lat="44.61562" lon="3.90147">
        <ele>1009</ele>
        <time>2011-06-01T13:03:29Z</time>
      </trkpt>
      <trkpt lat="44.61554" lon="3.90161">
        <ele>1009</ele>
        <time>2011-06-01T13:03:40Z</time>
      </trkpt>
      <trkpt lat="44.61547" lon="3.9017">
        <ele>1009</ele>
        <time>2011-06-01T13:03:50Z</time>
      </trkpt>
      <trkpt lat="44.61538" lon="3.90181">
        <ele>1007</ele>
        <time>2011-06-01T13:04:00Z</time>
      </trkpt>
      <trkpt lat="44.61528" lon="3.90192">
        <ele>1006</ele>
        <time>2011-06-01T13:04:10Z</time>
      </trkpt>
      <trkpt lat="44.6152" lon="3.90201">
        <ele>1003</ele>
        <time>2011-06-01T13:04:22Z</time>
      </trkpt>
      <trkpt lat="44.61518" lon="3.90208">
        <ele>1001</ele>
        <time>2011-06-01T13:04:34Z</time>
      </trkpt>
      <trkpt lat="44.61516" lon="3.90209">
        <ele>1001</ele>
        <time>2011-06-01T13:04:44Z</time>
      </trkpt>
      <trkpt lat="44.61512" lon="3.90212">
        <ele>1001</ele>
        <time>2011-06-01T13:05:06Z</time>
      </trkpt>
      <trkpt lat="44.6151" lon="3.90213">
        <ele>1002</ele>
        <time>2011-06-01T13:06:01Z</time>
      </trkpt>
      <trkpt lat="44.61515" lon="3.90227">
        <ele>1002</ele>
        <time>2011-06-01T13:06:12Z</time>
      </trkpt>
      <trkpt lat="44.61522" lon="3.90243">
        <ele>1002</ele>
        <time>2011-06-01T13:06:24Z</time>
      </trkpt>
      <trkpt lat="44.61527" lon="3.90258">
        <ele>1002</ele>
        <time>2011-06-01T13:06:34Z</time>
      </trkpt>
      <trkpt lat="44.61531" lon="3.90275">
        <ele>1002</ele>
        <time>2011-06-01T13:06:45Z</time>
      </trkpt>
      <trkpt lat="44.61536" lon="3.90283">
        <ele>1001</ele>
        <time>2011-06-01T13:07:34Z</time>
      </trkpt>
      <trkpt lat="44.61535" lon="3.90283">
        <ele>1001</ele>
        <time>2011-06-01T13:07:54Z</time>
      </trkpt>
      <trkpt lat="44.61533" lon="3.90284">
        <ele>1001</ele>
        <time>2011-06-01T13:08:17Z</time>
      </trkpt>
      <trkpt lat="44.61532" lon="3.90284">
        <ele>1001</ele>
        <time>2011-06-01T13:08:36Z</time>
      </trkpt>
      <trkpt lat="44.61532" lon="3.90286">
        <ele>999</ele>
        <time>2011-06-01T13:08:48Z</time>
      </trkpt>
      <trkpt lat="44.61533" lon="3.90285">
        <ele>999</ele>
        <time>2011-06-01T13:09:03Z</time>
      </trkpt>
      <trkpt lat="44.61532" lon="3.90284">
        <ele>999</ele>
        <time>2011-06-01T13:09:13Z</time>
      </trkpt>
      <trkpt lat="44.61534" lon="3.90284">
        <ele>999</ele>
        <time>2011-06-01T13:09:29Z</time>
      </trkpt>
      <trkpt lat="44.61535" lon="3.90283">
        <ele>999</ele>
        <time>2011-06-01T13:09:39Z</time>
      </trkpt>
      <trkpt lat="44.61533" lon="3.90282">
        <ele>999</ele>
        <time>2011-06-01T13:10:21Z</time>
      </trkpt>
      <trkpt lat="44.61533" lon="3.90282">
        <ele>999</ele>
        <time>2011-06-01T13:10:40Z</time>
      </trkpt>
      <trkpt lat="44.61532" lon="3.90283">
        <ele>997</ele>
        <time>2011-06-01T13:11:05Z</time>
      </trkpt>
      <trkpt lat="44.61532" lon="3.90286">
        <ele>996</ele>
        <time>2011-06-01T13:11:16Z</time>
      </trkpt>
      <trkpt lat="44.61534" lon="3.90303">
        <ele>996</ele>
        <time>2011-06-01T13:11:26Z</time>
      </trkpt>
      <trkpt lat="44.61536" lon="3.90314">
        <ele>996</ele>
        <time>2011-06-01T13:11:37Z</time>
      </trkpt>
      <trkpt lat="44.61536" lon="3.90315">
        <ele>996</ele>
        <time>2011-06-01T13:11:51Z</time>
      </trkpt>
      <trkpt lat="44.61541" lon="3.90326">
        <ele>996</ele>
        <time>2011-06-01T13:12:02Z</time>
      </trkpt>
      <trkpt lat="44.61547" lon="3.9034">
        <ele>996</ele>
        <time>2011-06-01T13:12:13Z</time>
      </trkpt>
      <trkpt lat="44.61551" lon="3.90355">
        <ele>996</ele>
        <time>2011-06-01T13:12:24Z</time>
      </trkpt>
      <trkpt lat="44.61554" lon="3.90369">
        <ele>997</ele>
        <time>2011-06-01T13:12:35Z</time>
      </trkpt>
      <trkpt lat="44.61555" lon="3.90384">
        <ele>1000</ele>
        <time>2011-06-01T13:12:47Z</time>
      </trkpt>
      <trkpt lat="44.61555" lon="3.90393">
        <ele>1004</ele>
        <time>2011-06-01T13:12:58Z</time>
      </trkpt>
      <trkpt lat="44.61548" lon="3.90379">
        <ele>1007</ele>
        <time>2011-06-01T13:13:08Z</time>
      </trkpt>
      <trkpt lat="44.61542" lon="3.90363">
        <ele>1008</ele>
        <time>2011-06-01T13:13:18Z</time>
      </trkpt>
      <trkpt lat="44.61536" lon="3.90346">
        <ele>1008</ele>
        <time>2011-06-01T13:13:29Z</time>
      </trkpt>
      <trkpt lat="44.61526" lon="3.90333">
        <ele>1008</ele>
        <time>2011-06-01T13:13:39Z</time>
      </trkpt>
      <trkpt lat="44.61516" lon="3.90325">
        <ele>1008</ele>
        <time>2011-06-01T13:13:49Z</time>
      </trkpt>
      <trkpt lat="44.61505" lon="3.90315">
        <ele>1008</ele>
        <time>2011-06-01T13:14:00Z</time>
      </trkpt>
      <trkpt lat="44.61502" lon="3.90301">
        <ele>1008</ele>
        <time>2011-06-01T13:14:10Z</time>
      </trkpt>
      <trkpt lat="44.61491" lon="3.90284">
        <ele>1007</ele>
        <time>2011-06-01T13:14:21Z</time>
      </trkpt>
      <trkpt lat="44.61487" lon="3.90271">
        <ele>1007</ele>
        <time>2011-06-01T13:14:31Z</time>
      </trkpt>
      <trkpt lat="44.6148" lon="3.90256">
        <ele>1007</ele>
        <time>2011-06-01T13:14:41Z</time>
      </trkpt>
      <trkpt lat="44.61472" lon="3.9024">
        <ele>1007</ele>
        <time>2011-06-01T13:14:51Z</time>
      </trkpt>
      <trkpt lat="44.61465" lon="3.90221">
        <ele>1007</ele>
        <time>2011-06-01T13:15:02Z</time>
      </trkpt>
      <trkpt lat="44.61462" lon="3.90203">
        <ele>1007</ele>
        <time>2011-06-01T13:15:12Z</time>
      </trkpt>
      <trkpt lat="44.6146" lon="3.90185">
        <ele>1006</ele>
        <time>2011-06-01T13:15:22Z</time>
      </trkpt>
      <trkpt lat="44.61458" lon="3.90168">
        <ele>1005</ele>
        <time>2011-06-01T13:15:32Z</time>
      </trkpt>
      <trkpt lat="44.61451" lon="3.9015">
        <ele>1005</ele>
        <time>2011-06-01T13:15:42Z</time>
      </trkpt>
      <trkpt lat="44.61443" lon="3.90134">
        <ele>1004</ele>
        <time>2011-06-01T13:15:52Z</time>
      </trkpt>
      <trkpt lat="44.61436" lon="3.90115">
        <ele>1004</ele>
        <time>2011-06-01T13:16:02Z</time>
      </trkpt>
      <trkpt lat="44.61427" lon="3.90102">
        <ele>1004</ele>
        <time>2011-06-01T13:16:12Z</time>
      </trkpt>
      <trkpt lat="44.61415" lon="3.90091">
        <ele>1004</ele>
        <time>2011-06-01T13:16:22Z</time>
      </trkpt>
      <trkpt lat="44.61403" lon="3.90081">
        <ele>1004</ele>
        <time>2011-06-01T13:16:33Z</time>
      </trkpt>
      <trkpt lat="44.61389" lon="3.90079">
        <ele>1004</ele>
        <time>2011-06-01T13:16:44Z</time>
      </trkpt>
      <trkpt lat="44.61382" lon="3.90095">
        <ele>1004</ele>
        <time>2011-06-01T13:16:54Z</time>
      </trkpt>
      <trkpt lat="44.61379" lon="3.90114">
        <ele>1004</ele>
        <time>2011-06-01T13:17:04Z</time>
      </trkpt>
      <trkpt lat="44.61373" lon="3.9013">
        <ele>1003</ele>
        <time>2011-06-01T13:17:14Z</time>
      </trkpt>
      <trkpt lat="44.61367" lon="3.90147">
        <ele>1002</ele>
        <time>2011-06-01T13:17:24Z</time>
      </trkpt>
      <trkpt lat="44.61361" lon="3.90164">
        <ele>1001</ele>
        <time>2011-06-01T13:17:34Z</time>
      </trkpt>
      <trkpt lat="44.61355" lon="3.9018">
        <ele>1000</ele>
        <time>2011-06-01T13:17:44Z</time>
      </trkpt>
      <trkpt lat="44.61348" lon="3.90196">
        <ele>997</ele>
        <time>2011-06-01T13:17:55Z</time>
      </trkpt>
      <trkpt lat="44.61343" lon="3.90211">
        <ele>996</ele>
        <time>2011-06-01T13:18:05Z</time>
      </trkpt>
      <trkpt lat="44.61334" lon="3.90224">
        <ele>996</ele>
        <time>2011-06-01T13:18:15Z</time>
      </trkpt>
      <trkpt lat="44.61322" lon="3.90228">
        <ele>996</ele>
        <time>2011-06-01T13:18:26Z</time>
      </trkpt>
      <trkpt lat="44.61306" lon="3.90229">
        <ele>996</ele>
        <time>2011-06-01T13:18:37Z</time>
      </trkpt>
      <trkpt lat="44.61293" lon="3.90231">
        <ele>996</ele>
        <time>2011-06-01T13:18:47Z</time>
      </trkpt>
      <trkpt lat="44.6128" lon="3.90236">
        <ele>996</ele>
        <time>2011-06-01T13:18:58Z</time>
      </trkpt>
      <trkpt lat="44.61268" lon="3.90245">
        <ele>996</ele>
        <time>2011-06-01T13:19:09Z</time>
      </trkpt>
      <trkpt lat="44.61258" lon="3.90252">
        <ele>996</ele>
        <time>2011-06-01T13:19:19Z</time>
      </trkpt>
      <trkpt lat="44.61246" lon="3.9026">
        <ele>996</ele>
        <time>2011-06-01T13:19:30Z</time>
      </trkpt>
      <trkpt lat="44.61235" lon="3.90266">
        <ele>996</ele>
        <time>2011-06-01T13:19:40Z</time>
      </trkpt>
      <trkpt lat="44.61224" lon="3.90273">
        <ele>996</ele>
        <time>2011-06-01T13:19:50Z</time>
      </trkpt>
      <trkpt lat="44.61219" lon="3.9029">
        <ele>997</ele>
        <time>2011-06-01T13:20:01Z</time>
      </trkpt>
      <trkpt lat="44.6122" lon="3.90308">
        <ele>997</ele>
        <time>2011-06-01T13:20:11Z</time>
      </trkpt>
      <trkpt lat="44.61217" lon="3.90326">
        <ele>997</ele>
        <time>2011-06-01T13:20:22Z</time>
      </trkpt>
      <trkpt lat="44.61212" lon="3.9034">
        <ele>997</ele>
        <time>2011-06-01T13:20:32Z</time>
      </trkpt>
      <trkpt lat="44.61202" lon="3.90354">
        <ele>997</ele>
        <time>2011-06-01T13:20:43Z</time>
      </trkpt>
      <trkpt lat="44.61193" lon="3.90365">
        <ele>997</ele>
        <time>2011-06-01T13:20:53Z</time>
      </trkpt>
      <trkpt lat="44.61186" lon="3.90378">
        <ele>997</ele>
        <time>2011-06-01T13:21:03Z</time>
      </trkpt>
      <trkpt lat="44.61179" lon="3.90393">
        <ele>997</ele>
        <time>2011-06-01T13:21:13Z</time>
      </trkpt>
      <trkpt lat="44.6117" lon="3.9041">
        <ele>998</ele>
        <time>2011-06-01T13:21:24Z</time>
      </trkpt>
      <trkpt lat="44.6116" lon="3.90424">
        <ele>998</ele>
        <time>2011-06-01T13:21:34Z</time>
      </trkpt>
      <trkpt lat="44.61149" lon="3.90435">
        <ele>998</ele>
        <time>2011-06-01T13:21:44Z</time>
      </trkpt>
      <trkpt lat="44.61138" lon="3.90446">
        <ele>999</ele>
        <time>2011-06-01T13:21:54Z</time>
      </trkpt>
      <trkpt lat="44.61127" lon="3.90455">
        <ele>1001</ele>
        <time>2011-06-01T13:22:05Z</time>
      </trkpt>
      <trkpt lat="44.61115" lon="3.90469">
        <ele>1001</ele>
        <time>2011-06-01T13:22:16Z</time>
      </trkpt>
      <trkpt lat="44.61104" lon="3.9048">
        <ele>1001</ele>
        <time>2011-06-01T13:22:26Z</time>
      </trkpt>
      <trkpt lat="44.61094" lon="3.9049">
        <ele>1001</ele>
        <time>2011-06-01T13:22:36Z</time>
      </trkpt>
      <trkpt lat="44.61083" lon="3.90501">
        <ele>1001</ele>
        <time>2011-06-01T13:22:46Z</time>
      </trkpt>
      <trkpt lat="44.61071" lon="3.9051">
        <ele>1002</ele>
        <time>2011-06-01T13:22:56Z</time>
      </trkpt>
      <trkpt lat="44.6106" lon="3.9052">
        <ele>1002</ele>
        <time>2011-06-01T13:23:06Z</time>
      </trkpt>
      <trkpt lat="44.61049" lon="3.90531">
        <ele>1002</ele>
        <time>2011-06-01T13:23:16Z</time>
      </trkpt>
      <trkpt lat="44.61038" lon="3.90542">
        <ele>1002</ele>
        <time>2011-06-01T13:23:26Z</time>
      </trkpt>
      <trkpt lat="44.61028" lon="3.90554">
        <ele>1002</ele>
        <time>2011-06-01T13:23:36Z</time>
      </trkpt>
      <trkpt lat="44.61018" lon="3.90565">
        <ele>1002</ele>
        <time>2011-06-01T13:23:46Z</time>
      </trkpt>
      <trkpt lat="44.61007" lon="3.90578">
        <ele>1002</ele>
        <time>2011-06-01T13:23:56Z</time>
      </trkpt>
      <trkpt lat="44.60996" lon="3.90588">
        <ele>1002</ele>
        <time>2011-06-01T13:24:06Z</time>
      </trkpt>
      <trkpt lat="44.60986" lon="3.90598">
        <ele>1002</ele>
        <time>2011-06-01T13:24:16Z</time>
      </trkpt>
      <trkpt lat="44.60974" lon="3.90607">
        <ele>1002</ele>
        <time>2011-06-01T13:24:26Z</time>
      </trkpt>
      <trkpt lat="44.60962" lon="3.90616">
        <ele>1002</ele>
        <time>2011-06-01T13:24:36Z</time>
      </trkpt>
      <trkpt lat="44.60949" lon="3.90624">
        <ele>1002</ele>
        <time>2011-06-01T13:24:46Z</time>
      </trkpt>
      <trkpt lat="44.60936" lon="3.90632">
        <ele>1002</ele>
        <time>2011-06-01T13:24:56Z</time>
      </trkpt>
      <trkpt lat="44.60923" lon="3.90639">
        <ele>1002</ele>
        <time>2011-06-01T13:25:06Z</time>
      </trkpt>
      <trkpt lat="44.60912" lon="3.90647">
        <ele>1002</ele>
        <time>2011-06-01T13:25:16Z</time>
      </trkpt>
      <trkpt lat="44.609" lon="3.90656">
        <ele>1002</ele>
        <time>2011-06-01T13:25:26Z</time>
      </trkpt>
      <trkpt lat="44.60888" lon="3.90663">
        <ele>1002</ele>
        <time>2011-06-01T13:25:36Z</time>
      </trkpt>
      <trkpt lat="44.60875" lon="3.90667">
        <ele>1002</ele>
        <time>2011-06-01T13:25:46Z</time>
      </trkpt>
      <trkpt lat="44.60862" lon="3.90671">
        <ele>1002</ele>
        <time>2011-06-01T13:25:56Z</time>
      </trkpt>
      <trkpt lat="44.60849" lon="3.90673">
        <ele>1002</ele>
        <time>2011-06-01T13:26:06Z</time>
      </trkpt>
      <trkpt lat="44.60836" lon="3.90676">
        <ele>1002</ele>
        <time>2011-06-01T13:26:16Z</time>
      </trkpt>
      <trkpt lat="44.60824" lon="3.90666">
        <ele>1002</ele>
        <time>2011-06-01T13:26:26Z</time>
      </trkpt>
      <trkpt lat="44.60811" lon="3.90654">
        <ele>1002</ele>
        <time>2011-06-01T13:26:37Z</time>
      </trkpt>
      <trkpt lat="44.60799" lon="3.90643">
        <ele>1002</ele>
        <time>2011-06-01T13:26:48Z</time>
      </trkpt>
      <trkpt lat="44.6079" lon="3.90643">
        <ele>1001</ele>
        <time>2011-06-01T13:27:01Z</time>
      </trkpt>
      <trkpt lat="44.60787" lon="3.90642">
        <ele>999</ele>
        <time>2011-06-01T13:27:12Z</time>
      </trkpt>
      <trkpt lat="44.60775" lon="3.90645">
        <ele>998</ele>
        <time>2011-06-01T13:27:22Z</time>
      </trkpt>
      <trkpt lat="44.60765" lon="3.90651">
        <ele>998</ele>
        <time>2011-06-01T13:27:32Z</time>
      </trkpt>
      <trkpt lat="44.60759" lon="3.9066">
        <ele>998</ele>
        <time>2011-06-01T13:27:43Z</time>
      </trkpt>
      <trkpt lat="44.60753" lon="3.90651">
        <ele>997</ele>
        <time>2011-06-01T13:27:54Z</time>
      </trkpt>
      <trkpt lat="44.60746" lon="3.90639">
        <ele>997</ele>
        <time>2011-06-01T13:28:04Z</time>
      </trkpt>
      <trkpt lat="44.6074" lon="3.90631">
        <ele>997</ele>
        <time>2011-06-01T13:28:14Z</time>
      </trkpt>
      <trkpt lat="44.60736" lon="3.90619">
        <ele>997</ele>
        <time>2011-06-01T13:28:24Z</time>
      </trkpt>
      <trkpt lat="44.60731" lon="3.90608">
        <ele>997</ele>
        <time>2011-06-01T13:28:34Z</time>
      </trkpt>
      <trkpt lat="44.60725" lon="3.90597">
        <ele>998</ele>
        <time>2011-06-01T13:28:44Z</time>
      </trkpt>
      <trkpt lat="44.60717" lon="3.90591">
        <ele>999</ele>
        <time>2011-06-01T13:28:54Z</time>
      </trkpt>
      <trkpt lat="44.60709" lon="3.90588">
        <ele>1000</ele>
        <time>2011-06-01T13:29:04Z</time>
      </trkpt>
      <trkpt lat="44.60699" lon="3.9058">
        <ele>1000</ele>
        <time>2011-06-01T13:29:15Z</time>
      </trkpt>
      <trkpt lat="44.60695" lon="3.90562">
        <ele>1000</ele>
        <time>2011-06-01T13:29:26Z</time>
      </trkpt>
      <trkpt lat="44.60687" lon="3.90547">
        <ele>1000</ele>
        <time>2011-06-01T13:29:37Z</time>
      </trkpt>
      <trkpt lat="44.60681" lon="3.9054">
        <ele>1000</ele>
        <time>2011-06-01T13:29:47Z</time>
      </trkpt>
      <trkpt lat="44.60675" lon="3.90531">
        <ele>1000</ele>
        <time>2011-06-01T13:29:57Z</time>
      </trkpt>
      <trkpt lat="44.60667" lon="3.90522">
        <ele>1003</ele>
        <time>2011-06-01T13:30:07Z</time>
      </trkpt>
      <trkpt lat="44.60659" lon="3.90512">
        <ele>1006</ele>
        <time>2011-06-01T13:30:17Z</time>
      </trkpt>
      <trkpt lat="44.60649" lon="3.90501">
        <ele>1009</ele>
        <time>2011-06-01T13:30:28Z</time>
      </trkpt>
      <trkpt lat="44.6064" lon="3.90493">
        <ele>1011</ele>
        <time>2011-06-01T13:30:39Z</time>
      </trkpt>
      <trkpt lat="44.60632" lon="3.90499">
        <ele>1015</ele>
        <time>2011-06-01T13:30:49Z</time>
      </trkpt>
      <trkpt lat="44.60624" lon="3.90512">
        <ele>1017</ele>
        <time>2011-06-01T13:30:59Z</time>
      </trkpt>
      <trkpt lat="44.60614" lon="3.9052">
        <ele>1021</ele>
        <time>2011-06-01T13:31:09Z</time>
      </trkpt>
      <trkpt lat="44.60601" lon="3.90524">
        <ele>1022</ele>
        <time>2011-06-01T13:31:21Z</time>
      </trkpt>
      <trkpt lat="44.60587" lon="3.90522">
        <ele>1022</ele>
        <time>2011-06-01T13:31:32Z</time>
      </trkpt>
      <trkpt lat="44.60575" lon="3.90524">
        <ele>1022</ele>
        <time>2011-06-01T13:31:42Z</time>
      </trkpt>
      <trkpt lat="44.60563" lon="3.90527">
        <ele>1023</ele>
        <time>2011-06-01T13:31:52Z</time>
      </trkpt>
      <trkpt lat="44.60551" lon="3.9053">
        <ele>1029</ele>
        <time>2011-06-01T13:32:02Z</time>
      </trkpt>
      <trkpt lat="44.6054" lon="3.9053">
        <ele>1034</ele>
        <time>2011-06-01T13:32:13Z</time>
      </trkpt>
      <trkpt lat="44.60528" lon="3.9053">
        <ele>1039</ele>
        <time>2011-06-01T13:32:23Z</time>
      </trkpt>
      <trkpt lat="44.60517" lon="3.90527">
        <ele>1041</ele>
        <time>2011-06-01T13:32:33Z</time>
      </trkpt>
      <trkpt lat="44.60503" lon="3.90527">
        <ele>1043</ele>
        <time>2011-06-01T13:32:44Z</time>
      </trkpt>
      <trkpt lat="44.6049" lon="3.9052">
        <ele>1041</ele>
        <time>2011-06-01T13:32:55Z</time>
      </trkpt>
      <trkpt lat="44.60476" lon="3.90513">
        <ele>1035</ele>
        <time>2011-06-01T13:33:05Z</time>
      </trkpt>
      <trkpt lat="44.60463" lon="3.90507">
        <ele>1033</ele>
        <time>2011-06-01T13:33:15Z</time>
      </trkpt>
      <trkpt lat="44.60447" lon="3.905">
        <ele>1033</ele>
        <time>2011-06-01T13:33:26Z</time>
      </trkpt>
      <trkpt lat="44.60432" lon="3.90495">
        <ele>1032</ele>
        <time>2011-06-01T13:33:37Z</time>
      </trkpt>
      <trkpt lat="44.60419" lon="3.90494">
        <ele>1032</ele>
        <time>2011-06-01T13:33:47Z</time>
      </trkpt>
      <trkpt lat="44.60406" lon="3.90485">
        <ele>1027</ele>
        <time>2011-06-01T13:33:58Z</time>
      </trkpt>
      <trkpt lat="44.60396" lon="3.90484">
        <ele>1028</ele>
        <time>2011-06-01T13:34:08Z</time>
      </trkpt>
      <trkpt lat="44.60386" lon="3.90485">
        <ele>1038</ele>
        <time>2011-06-01T13:34:18Z</time>
      </trkpt>
      <trkpt lat="44.60375" lon="3.90486">
        <ele>1045</ele>
        <time>2011-06-01T13:34:29Z</time>
      </trkpt>
      <trkpt lat="44.60365" lon="3.90489">
        <ele>1055</ele>
        <time>2011-06-01T13:34:39Z</time>
      </trkpt>
      <trkpt lat="44.60355" lon="3.90487">
        <ele>1064</ele>
        <time>2011-06-01T13:34:49Z</time>
      </trkpt>
      <trkpt lat="44.60343" lon="3.90481">
        <ele>1065</ele>
        <time>2011-06-01T13:34:59Z</time>
      </trkpt>
      <trkpt lat="44.60332" lon="3.90482">
        <ele>1070</ele>
        <time>2011-06-01T13:35:09Z</time>
      </trkpt>
      <trkpt lat="44.6032" lon="3.90477">
        <ele>1070</ele>
        <time>2011-06-01T13:35:19Z</time>
      </trkpt>
      <trkpt lat="44.60307" lon="3.90475">
        <ele>1070</ele>
        <time>2011-06-01T13:35:29Z</time>
      </trkpt>
      <trkpt lat="44.60293" lon="3.90471">
        <ele>1063</ele>
        <time>2011-06-01T13:35:39Z</time>
      </trkpt>
      <trkpt lat="44.6028" lon="3.90468">
        <ele>1057</ele>
        <time>2011-06-01T13:35:49Z</time>
      </trkpt>
      <trkpt lat="44.60269" lon="3.90467">
        <ele>1053</ele>
        <time>2011-06-01T13:35:59Z</time>
      </trkpt>
      <trkpt lat="44.60257" lon="3.9046">
        <ele>1049</ele>
        <time>2011-06-01T13:36:09Z</time>
      </trkpt>
      <trkpt lat="44.60244" lon="3.90453">
        <ele>1041</ele>
        <time>2011-06-01T13:36:20Z</time>
      </trkpt>
      <trkpt lat="44.6023" lon="3.90454">
        <ele>1034</ele>
        <time>2011-06-01T13:36:30Z</time>
      </trkpt>
      <trkpt lat="44.60215" lon="3.90455">
        <ele>1034</ele>
        <time>2011-06-01T13:36:41Z</time>
      </trkpt>
      <trkpt lat="44.60202" lon="3.90463">
        <ele>1034</ele>
        <time>2011-06-01T13:36:51Z</time>
      </trkpt>
      <trkpt lat="44.60189" lon="3.90465">
        <ele>1034</ele>
        <time>2011-06-01T13:37:01Z</time>
      </trkpt>
      <trkpt lat="44.60177" lon="3.90474">
        <ele>1041</ele>
        <time>2011-06-01T13:37:11Z</time>
      </trkpt>
      <trkpt lat="44.60163" lon="3.90472">
        <ele>1049</ele>
        <time>2011-06-01T13:37:22Z</time>
      </trkpt>
      <trkpt lat="44.60149" lon="3.90462">
        <ele>1052</ele>
        <time>2011-06-01T13:37:32Z</time>
      </trkpt>
      <trkpt lat="44.60137" lon="3.90454">
        <ele>1048</ele>
        <time>2011-06-01T13:37:42Z</time>
      </trkpt>
      <trkpt lat="44.60125" lon="3.90448">
        <ele>1048</ele>
        <time>2011-06-01T13:37:53Z</time>
      </trkpt>
      <trkpt lat="44.60113" lon="3.90453">
        <ele>1048</ele>
        <time>2011-06-01T13:38:03Z</time>
      </trkpt>
      <trkpt lat="44.60102" lon="3.90461">
        <ele>1045</ele>
        <time>2011-06-01T13:38:13Z</time>
      </trkpt>
      <trkpt lat="44.60089" lon="3.90462">
        <ele>1043</ele>
        <time>2011-06-01T13:38:23Z</time>
      </trkpt>
      <trkpt lat="44.60078" lon="3.90465">
        <ele>1043</ele>
        <time>2011-06-01T13:38:33Z</time>
      </trkpt>
      <trkpt lat="44.60067" lon="3.90464">
        <ele>1045</ele>
        <time>2011-06-01T13:38:43Z</time>
      </trkpt>
      <trkpt lat="44.60053" lon="3.90452">
        <ele>1042</ele>
        <time>2011-06-01T13:38:54Z</time>
      </trkpt>
      <trkpt lat="44.60041" lon="3.90447">
        <ele>1040</ele>
        <time>2011-06-01T13:39:04Z</time>
      </trkpt>
      <trkpt lat="44.6003" lon="3.90439">
        <ele>1040</ele>
        <time>2011-06-01T13:39:15Z</time>
      </trkpt>
      <trkpt lat="44.60019" lon="3.90435">
        <ele>1043</ele>
        <time>2011-06-01T13:39:26Z</time>
      </trkpt>
      <trkpt lat="44.60009" lon="3.90431">
        <ele>1044</ele>
        <time>2011-06-01T13:39:36Z</time>
      </trkpt>
      <trkpt lat="44.59995" lon="3.90422">
        <ele>1044</ele>
        <time>2011-06-01T13:39:46Z</time>
      </trkpt>
      <trkpt lat="44.59982" lon="3.9041">
        <ele>1041</ele>
        <time>2011-06-01T13:39:57Z</time>
      </trkpt>
      <trkpt lat="44.59972" lon="3.904">
        <ele>1041</ele>
        <time>2011-06-01T13:40:07Z</time>
      </trkpt>
      <trkpt lat="44.59962" lon="3.90387">
        <ele>1041</ele>
        <time>2011-06-01T13:40:18Z</time>
      </trkpt>
      <trkpt lat="44.59953" lon="3.90374">
        <ele>1041</ele>
        <time>2011-06-01T13:40:28Z</time>
      </trkpt>
      <trkpt lat="44.59943" lon="3.90366">
        <ele>1041</ele>
        <time>2011-06-01T13:40:38Z</time>
      </trkpt>
      <trkpt lat="44.5993" lon="3.90367">
        <ele>1045</ele>
        <time>2011-06-01T13:40:48Z</time>
      </trkpt>
      <trkpt lat="44.59919" lon="3.90367">
        <ele>1055</ele>
        <time>2011-06-01T13:40:58Z</time>
      </trkpt>
      <trkpt lat="44.59906" lon="3.90359">
        <ele>1059</ele>
        <time>2011-06-01T13:41:08Z</time>
      </trkpt>
      <trkpt lat="44.59893" lon="3.90351">
        <ele>1057</ele>
        <time>2011-06-01T13:41:18Z</time>
      </trkpt>
      <trkpt lat="44.59881" lon="3.90344">
        <ele>1057</ele>
        <time>2011-06-01T13:41:28Z</time>
      </trkpt>
      <trkpt lat="44.59868" lon="3.90329">
        <ele>1048</ele>
        <time>2011-06-01T13:41:38Z</time>
      </trkpt>
      <trkpt lat="44.59858" lon="3.90312">
        <ele>1044</ele>
        <time>2011-06-01T13:41:49Z</time>
      </trkpt>
      <trkpt lat="44.59853" lon="3.90297">
        <ele>1044</ele>
        <time>2011-06-01T13:41:59Z</time>
      </trkpt>
      <trkpt lat="44.59851" lon="3.90279">
        <ele>1044</ele>
        <time>2011-06-01T13:42:09Z</time>
      </trkpt>
      <trkpt lat="44.59848" lon="3.90262">
        <ele>1044</ele>
        <time>2011-06-01T13:42:19Z</time>
      </trkpt>
      <trkpt lat="44.59842" lon="3.90248">
        <ele>1044</ele>
        <time>2011-06-01T13:42:29Z</time>
      </trkpt>
      <trkpt lat="44.59838" lon="3.90233">
        <ele>1048</ele>
        <time>2011-06-01T13:42:39Z</time>
      </trkpt>
      <trkpt lat="44.59836" lon="3.90224">
        <ele>1057</ele>
        <time>2011-06-01T13:42:49Z</time>
      </trkpt>
      <trkpt lat="44.59832" lon="3.9023">
        <ele>1059</ele>
        <time>2011-06-01T13:42:59Z</time>
      </trkpt>
      <trkpt lat="44.59824" lon="3.90239">
        <ele>1054</ele>
        <time>2011-06-01T13:43:09Z</time>
      </trkpt>
      <trkpt lat="44.59817" lon="3.90255">
        <ele>1045</ele>
        <time>2011-06-01T13:43:20Z</time>
      </trkpt>
      <trkpt lat="44.59809" lon="3.90268">
        <ele>1042</ele>
        <time>2011-06-01T13:43:31Z</time>
      </trkpt>
      <trkpt lat="44.59798" lon="3.90282">
        <ele>1037</ele>
        <time>2011-06-01T13:43:42Z</time>
      </trkpt>
      <trkpt lat="44.59788" lon="3.90292">
        <ele>1036</ele>
        <time>2011-06-01T13:43:52Z</time>
      </trkpt>
      <trkpt lat="44.59777" lon="3.90298">
        <ele>1036</ele>
        <time>2011-06-01T13:44:02Z</time>
      </trkpt>
      <trkpt lat="44.59765" lon="3.90301">
        <ele>1040</ele>
        <time>2011-06-01T13:44:12Z</time>
      </trkpt>
      <trkpt lat="44.59752" lon="3.90298">
        <ele>1042</ele>
        <time>2011-06-01T13:44:22Z</time>
      </trkpt>
      <trkpt lat="44.59739" lon="3.90294">
        <ele>1042</ele>
        <time>2011-06-01T13:44:32Z</time>
      </trkpt>
      <trkpt lat="44.59726" lon="3.90293">
        <ele>1042</ele>
        <time>2011-06-01T13:44:42Z</time>
      </trkpt>
      <trkpt lat="44.59713" lon="3.90296">
        <ele>1042</ele>
        <time>2011-06-01T13:44:52Z</time>
      </trkpt>
      <trkpt lat="44.597" lon="3.90299">
        <ele>1042</ele>
        <time>2011-06-01T13:45:02Z</time>
      </trkpt>
      <trkpt lat="44.59688" lon="3.90303">
        <ele>1042</ele>
        <time>2011-06-01T13:45:12Z</time>
      </trkpt>
      <trkpt lat="44.59676" lon="3.90307">
        <ele>1045</ele>
        <time>2011-06-01T13:45:22Z</time>
      </trkpt>
      <trkpt lat="44.59662" lon="3.90309">
        <ele>1045</ele>
        <time>2011-06-01T13:45:32Z</time>
      </trkpt>
      <trkpt lat="44.59649" lon="3.90313">
        <ele>1045</ele>
        <time>2011-06-01T13:45:42Z</time>
      </trkpt>
      <trkpt lat="44.59637" lon="3.90314">
        <ele>1045</ele>
        <time>2011-06-01T13:45:52Z</time>
      </trkpt>
      <trkpt lat="44.59624" lon="3.90317">
        <ele>1046</ele>
        <time>2011-06-01T13:46:02Z</time>
      </trkpt>
      <trkpt lat="44.59612" lon="3.90321">
        <ele>1050</ele>
        <time>2011-06-01T13:46:12Z</time>
      </trkpt>
      <trkpt lat="44.59598" lon="3.90317">
        <ele>1049</ele>
        <time>2011-06-01T13:46:22Z</time>
      </trkpt>
      <trkpt lat="44.59585" lon="3.90314">
        <ele>1042</ele>
        <time>2011-06-01T13:46:32Z</time>
      </trkpt>
      <trkpt lat="44.59573" lon="3.9031">
        <ele>1040</ele>
        <time>2011-06-01T13:46:43Z</time>
      </trkpt>
      <trkpt lat="44.59562" lon="3.90307">
        <ele>1040</ele>
        <time>2011-06-01T13:46:53Z</time>
      </trkpt>
      <trkpt lat="44.59551" lon="3.90311">
        <ele>1038</ele>
        <time>2011-06-01T13:47:03Z</time>
      </trkpt>
      <trkpt lat="44.59539" lon="3.90316">
        <ele>1035</ele>
        <time>2011-06-01T13:47:14Z</time>
      </trkpt>
      <trkpt lat="44.59527" lon="3.9032">
        <ele>1035</ele>
        <time>2011-06-01T13:47:24Z</time>
      </trkpt>
      <trkpt lat="44.59514" lon="3.90324">
        <ele>1035</ele>
        <time>2011-06-01T13:47:35Z</time>
      </trkpt>
      <trkpt lat="44.59503" lon="3.90328">
        <ele>1035</ele>
        <time>2011-06-01T13:47:45Z</time>
      </trkpt>
      <trkpt lat="44.59493" lon="3.90329">
        <ele>1034</ele>
        <time>2011-06-01T13:47:55Z</time>
      </trkpt>
      <trkpt lat="44.59483" lon="3.90331">
        <ele>1033</ele>
        <time>2011-06-01T13:48:05Z</time>
      </trkpt>
      <trkpt lat="44.59471" lon="3.90334">
        <ele>1033</ele>
        <time>2011-06-01T13:48:15Z</time>
      </trkpt>
      <trkpt lat="44.59459" lon="3.90338">
        <ele>1033</ele>
        <time>2011-06-01T13:48:25Z</time>
      </trkpt>
      <trkpt lat="44.59447" lon="3.90341">
        <ele>1033</ele>
        <time>2011-06-01T13:48:36Z</time>
      </trkpt>
      <trkpt lat="44.59441" lon="3.90342">
        <ele>1033</ele>
        <time>2011-06-01T13:48:46Z</time>
      </trkpt>
      <trkpt lat="44.59436" lon="3.90343">
        <ele>1033</ele>
        <time>2011-06-01T13:48:56Z</time>
      </trkpt>
      <trkpt lat="44.59428" lon="3.90349">
        <ele>1033</ele>
        <time>2011-06-01T13:49:06Z</time>
      </trkpt>
      <trkpt lat="44.59419" lon="3.90354">
        <ele>1031</ele>
        <time>2011-06-01T13:49:16Z</time>
      </trkpt>
      <trkpt lat="44.5941" lon="3.90362">
        <ele>1028</ele>
        <time>2011-06-01T13:49:26Z</time>
      </trkpt>
      <trkpt lat="44.59402" lon="3.90373">
        <ele>1028</ele>
        <time>2011-06-01T13:49:36Z</time>
      </trkpt>
      <trkpt lat="44.59397" lon="3.9037">
        <ele>1027</ele>
        <time>2011-06-01T13:49:47Z</time>
      </trkpt>
      <trkpt lat="44.59396" lon="3.90372">
        <ele>1026</ele>
        <time>2011-06-01T13:49:59Z</time>
      </trkpt>
      <trkpt lat="44.594" lon="3.90382">
        <ele>1020</ele>
        <time>2011-06-01T13:50:09Z</time>
      </trkpt>
      <trkpt lat="44.59412" lon="3.90388">
        <ele>1019</ele>
        <time>2011-06-01T13:50:19Z</time>
      </trkpt>
      <trkpt lat="44.59422" lon="3.90389">
        <ele>1019</ele>
        <time>2011-06-01T13:50:29Z</time>
      </trkpt>
      <trkpt lat="44.59434" lon="3.90395">
        <ele>1019</ele>
        <time>2011-06-01T13:50:40Z</time>
      </trkpt>
      <trkpt lat="44.59438" lon="3.90403">
        <ele>1018</ele>
        <time>2011-06-01T13:50:50Z</time>
      </trkpt>
      <trkpt lat="44.5944" lon="3.90417">
        <ele>1016</ele>
        <time>2011-06-01T13:51:01Z</time>
      </trkpt>
      <trkpt lat="44.59437" lon="3.90423">
        <ele>1015</ele>
        <time>2011-06-01T13:51:13Z</time>
      </trkpt>
      <trkpt lat="44.59427" lon="3.90428">
        <ele>1015</ele>
        <time>2011-06-01T13:51:23Z</time>
      </trkpt>
      <trkpt lat="44.59415" lon="3.90428">
        <ele>1015</ele>
        <time>2011-06-01T13:51:33Z</time>
      </trkpt>
      <trkpt lat="44.59402" lon="3.9043">
        <ele>1015</ele>
        <time>2011-06-01T13:51:43Z</time>
      </trkpt>
      <trkpt lat="44.59389" lon="3.90434">
        <ele>1015</ele>
        <time>2011-06-01T13:51:54Z</time>
      </trkpt>
      <trkpt lat="44.59378" lon="3.90439">
        <ele>1015</ele>
        <time>2011-06-01T13:52:04Z</time>
      </trkpt>
      <trkpt lat="44.59365" lon="3.90445">
        <ele>1015</ele>
        <time>2011-06-01T13:52:15Z</time>
      </trkpt>
      <trkpt lat="44.59359" lon="3.90459">
        <ele>1015</ele>
        <time>2011-06-01T13:52:26Z</time>
      </trkpt>
      <trkpt lat="44.59349" lon="3.90466">
        <ele>1015</ele>
        <time>2011-06-01T13:52:36Z</time>
      </trkpt>
      <trkpt lat="44.59343" lon="3.90467">
        <ele>1015</ele>
        <time>2011-06-01T13:52:46Z</time>
      </trkpt>
      <trkpt lat="44.59349" lon="3.90467">
        <ele>1015</ele>
        <time>2011-06-01T13:52:57Z</time>
      </trkpt>
      <trkpt lat="44.59354" lon="3.90461">
        <ele>1022</ele>
        <time>2011-06-01T13:53:08Z</time>
      </trkpt>
      <trkpt lat="44.59348" lon="3.90456">
        <ele>1029</ele>
        <time>2011-06-01T13:53:19Z</time>
      </trkpt>
      <trkpt lat="44.59339" lon="3.90452">
        <ele>1032</ele>
        <time>2011-06-01T13:53:29Z</time>
      </trkpt>
      <trkpt lat="44.59336" lon="3.90455">
        <ele>1022</ele>
        <time>2011-06-01T13:53:43Z</time>
      </trkpt>
      <trkpt lat="44.59326" lon="3.9046">
        <ele>1020</ele>
        <time>2011-06-01T13:53:53Z</time>
      </trkpt>
      <trkpt lat="44.59314" lon="3.90463">
        <ele>1020</ele>
        <time>2011-06-01T13:54:04Z</time>
      </trkpt>
      <trkpt lat="44.59302" lon="3.90463">
        <ele>1019</ele>
        <time>2011-06-01T13:54:15Z</time>
      </trkpt>
      <trkpt lat="44.59291" lon="3.90461">
        <ele>1019</ele>
        <time>2011-06-01T13:54:25Z</time>
      </trkpt>
      <trkpt lat="44.5928" lon="3.90458">
        <ele>1019</ele>
        <time>2011-06-01T13:54:35Z</time>
      </trkpt>
      <trkpt lat="44.59269" lon="3.90457">
        <ele>1019</ele>
        <time>2011-06-01T13:54:45Z</time>
      </trkpt>
      <trkpt lat="44.59258" lon="3.90454">
        <ele>1018</ele>
        <time>2011-06-01T13:54:55Z</time>
      </trkpt>
      <trkpt lat="44.59246" lon="3.90451">
        <ele>1018</ele>
        <time>2011-06-01T13:55:05Z</time>
      </trkpt>
      <trkpt lat="44.59233" lon="3.90454">
        <ele>1018</ele>
        <time>2011-06-01T13:55:16Z</time>
      </trkpt>
      <trkpt lat="44.59221" lon="3.90461">
        <ele>1018</ele>
        <time>2011-06-01T13:55:27Z</time>
      </trkpt>
      <trkpt lat="44.59209" lon="3.90469">
        <ele>1018</ele>
        <time>2011-06-01T13:55:38Z</time>
      </trkpt>
      <trkpt lat="44.592" lon="3.9048">
        <ele>1016</ele>
        <time>2011-06-01T13:55:49Z</time>
      </trkpt>
      <trkpt lat="44.59194" lon="3.90494">
        <ele>1015</ele>
        <time>2011-06-01T13:56:00Z</time>
      </trkpt>
      <trkpt lat="44.59191" lon="3.90509">
        <ele>1015</ele>
        <time>2011-06-01T13:56:10Z</time>
      </trkpt>
      <trkpt lat="44.5919" lon="3.90523">
        <ele>1015</ele>
        <time>2011-06-01T13:56:20Z</time>
      </trkpt>
      <trkpt lat="44.59187" lon="3.90538">
        <ele>1015</ele>
        <time>2011-06-01T13:56:31Z</time>
      </trkpt>
      <trkpt lat="44.59185" lon="3.90554">
        <ele>1015</ele>
        <time>2011-06-01T13:56:41Z</time>
      </trkpt>
      <trkpt lat="44.59184" lon="3.90568">
        <ele>1015</ele>
        <time>2011-06-01T13:56:51Z</time>
      </trkpt>
      <trkpt lat="44.59191" lon="3.90576">
        <ele>1015</ele>
        <time>2011-06-01T13:57:01Z</time>
      </trkpt>
      <trkpt lat="44.59199" lon="3.90574">
        <ele>1014</ele>
        <time>2011-06-01T13:57:10Z</time>
      </trkpt>
    </trkseg>
  </trk>
</gpx>